dresdor

Windows Update Log

Nov 5th, 2019
14
Never
Not a member of Pastebin yet? Sign Up, it unlocks many cool features!
  1. 2019/11/04 13:45:06.0713746 5084 14248 Shared * START * Service startup
  2. 2019/11/04 13:45:06.0986506 5084 14248 IdleTimer Non-AoAc machine. Aoac operations will be ignored.
  3. 2019/11/04 13:45:06.0988354 5084 14248 Agent WU client version 10.0.16299.1419
  4. 2019/11/04 13:45:06.0991736 5084 14248 Agent SleepStudyTracker: Machine is non-AOAC. Sleep study tracker disabled.
  5. 2019/11/04 13:45:06.0993932 5084 14248 Agent Base directory: C:\WINDOWS\SoftwareDistribution
  6. 2019/11/04 13:45:06.1001894 5084 14248 Agent Datastore directory: C:\WINDOWS\SoftwareDistribution\DataStore\DataStore.edb
  7. 2019/11/04 13:45:06.1014814 5084 14248 DataStore JetEnableMultiInstance succeeded - applicable param count: 5, applied param count: 5
  8. 2019/11/04 13:45:06.1580127 5084 14248 Shared UpdateNetworkState Ipv6, cNetworkInterfaces = 3.
  9. 2019/11/04 13:45:06.1580427 5084 14248 Shared UpdateNetworkState Ipv4, cNetworkInterfaces = 4.
  10. 2019/11/04 13:45:06.1587917 5084 14248 Shared Network state: Connected
  11. 2019/11/04 13:45:06.2666002 5084 14248 Misc *FAILED* [8024000C] LoadHistoryEventFromRegistry completed
  12. 2019/11/04 13:45:06.2668234 5084 14248 Shared UpdateNetworkState Ipv6, cNetworkInterfaces = 3.
  13. 2019/11/04 13:45:06.2668305 5084 14248 Shared UpdateNetworkState Ipv4, cNetworkInterfaces = 4.
  14. 2019/11/04 13:45:06.2668372 5084 14248 Shared Power status changed
  15. 2019/11/04 13:45:06.2691796 5084 14248 Agent Initializing global settings cache
  16. 2019/11/04 13:45:06.2691814 5084 14248 Agent WSUS server: http://CES-MSP-WSUS-1.yourserver.com:8530
  17. 2019/11/04 13:45:06.2691842 5084 14248 Agent WSUS status server: http://CES-MSP-WSUS-1.yourserver.com:8530
  18. 2019/11/04 13:45:06.2691856 5084 14248 Agent Alternate Download Server: (null)
  19. 2019/11/04 13:45:06.2691867 5084 14248 Agent Fill Empty Content Urls: No
  20. 2019/11/04 13:45:06.2691874 5084 14248 Agent Target group: NAM Workstations
  21. 2019/11/04 13:45:06.2691884 5084 14248 Agent Windows Update access disabled: No
  22. 2019/11/04 13:45:06.2691895 5084 14248 Agent Do not connect to Windows Update Internet locations: No
  23. 2019/11/04 13:45:06.2697833 5084 14248 Agent Timer: 8B24B027-1DEE-BABB-9A95-3517DFB9C552, Expires 2019-11-04 19:46:46, not idle-only, network-only
  24. 2019/11/04 13:45:06.2697882 5084 14248 Agent Timer: 29A863E7-8609-4D1E-B7CD-5668F857F1DB, Expires 2019-11-05 15:23:02, not idle-only, not network-only
  25. 2019/11/04 13:45:06.2737735 5084 14248 Agent Initializing Windows Update Agent
  26. 2019/11/04 13:45:06.2738740 5084 14248 Agent CPersistentTimeoutScheduler | GetTimer, returned hr = 0x00000000
  27. 2019/11/04 13:45:06.2874547 5084 19336 DownloadManager PurgeExpiredFiles::Found 0 expired files to delete.
  28. 2019/11/04 13:45:06.2874992 5084 19336 DownloadManager PurgeExpiredUpdates::Found 1 non expired updates.
  29. 2019/11/04 13:45:06.3154603 5084 19336 DownloadManager PurgeExpiredUpdates::Found 0 expired updates.
  30. 2019/11/04 13:45:06.3180260 5084 19336 DownloadManager Received power state change notification: Old: <unknown>; New: AC.
  31. 2019/11/04 13:45:06.3180281 5084 19336 DownloadManager Power state changed from <unknown> to AC.
  32. 2019/11/04 13:55:06.0996471 5084 9612 Agent Earliest future timer found:
  33. 2019/11/04 13:55:06.0996894 5084 9612 Agent Timer: 29A863E7-8609-4D1E-B7CD-5668F857F1DB, Expires 2019-11-05 15:23:02, not idle-only, not network-only
  34. 2019/11/04 13:55:07.1024695 5084 14248 Misc CSusClientGlobal::DoServicePreShutdown
  35. 2019/11/04 13:55:07.1026518 5084 14248 IdleTimer Idle timer disabled in preparation for service shutdown
  36. 2019/11/04 13:55:07.1026839 5084 14248 Misc WUTaskManager uninit
  37. 2019/11/04 13:55:07.1026955 5084 14248 Agent Earliest future timer found:
  38. 2019/11/04 13:55:07.1027262 5084 14248 Agent Timer: 29A863E7-8609-4D1E-B7CD-5668F857F1DB, Expires 2019-11-05 15:23:02, not idle-only, not network-only
  39. 2019/11/04 13:55:07.1127049 5084 14248 Misc CreateSessionStateChangeTrigger, TYPE:2, Enable:No
  40. 2019/11/04 13:55:07.1127176 5084 14248 Misc CreateSessionStateChangeTrigger, TYPE:4, Enable:No
  41. 2019/11/04 13:55:07.1614229 5084 14248 Misc Agent uninit
  42. 2019/11/04 13:55:07.1636687 5084 14248 Misc Reporter uninit
  43. 2019/11/04 13:55:07.1661021 5084 14248 Misc network cost manager uninit
  44. 2019/11/04 13:55:07.1661455 5084 14248 Misc Eventer uninit
  45. 2019/11/04 13:55:07.1663518 5084 14248 Misc ServiceManager uninit
  46. 2019/11/04 13:55:07.1664854 5084 14248 Misc PersistentTimeoutScheduler uninit
  47. 2019/11/04 13:55:07.1664978 5084 14248 Agent Timer: 8B24B027-1DEE-BABB-9A95-3517DFB9C552, Expires 2019-11-04 19:46:46, not idle-only, network-only
  48. 2019/11/04 13:55:07.1690426 5084 14248 Misc datastore uninit
  49. 2019/11/04 13:55:07.2840915 5084 14248 Misc setting cache uninit
  50. 2019/11/04 13:55:07.2841063 5084 14248 Misc security checker uninit
  51. 2019/11/04 13:55:07.2841165 5084 14248 Misc Test Hook uninit
  52. 2019/11/04 13:55:07.2841197 5084 14248 Misc IdleTimer uninit
  53. 2019/11/04 13:55:07.2860630 5084 14248 Shared * END * Service exit Exit code = 0x240001
  54. 2019/11/04 14:09:52.0317789 5084 23428 Shared * START * Service startup
  55. 2019/11/04 14:09:52.0731487 5084 23428 IdleTimer Non-AoAc machine. Aoac operations will be ignored.
  56. 2019/11/04 14:09:52.0750870 5084 23428 Agent WU client version 10.0.16299.1419
  57. 2019/11/04 14:09:52.0773752 5084 23428 Agent SleepStudyTracker: Machine is non-AOAC. Sleep study tracker disabled.
  58. 2019/11/04 14:09:52.0781844 5084 23428 Agent Base directory: C:\WINDOWS\SoftwareDistribution
  59. 2019/11/04 14:09:52.0848905 5084 23428 Agent Datastore directory: C:\WINDOWS\SoftwareDistribution\DataStore\DataStore.edb
  60. 2019/11/04 14:09:52.0877220 5084 23428 DataStore JetEnableMultiInstance succeeded - applicable param count: 5, applied param count: 5
  61. 2019/11/04 14:09:52.1824538 5084 23428 Shared UpdateNetworkState Ipv6, cNetworkInterfaces = 3.
  62. 2019/11/04 14:09:52.1825035 5084 23428 Shared UpdateNetworkState Ipv4, cNetworkInterfaces = 4.
  63. 2019/11/04 14:09:52.1840233 5084 23428 Shared Network state: Connected
  64. 2019/11/04 14:09:52.3087324 5084 23428 Misc *FAILED* [8024000C] LoadHistoryEventFromRegistry completed
  65. 2019/11/04 14:09:52.3089430 5084 23428 Shared UpdateNetworkState Ipv6, cNetworkInterfaces = 3.
  66. 2019/11/04 14:09:52.3089553 5084 23428 Shared UpdateNetworkState Ipv4, cNetworkInterfaces = 4.
  67. 2019/11/04 14:09:52.3089655 5084 23428 Shared Power status changed
  68. 2019/11/04 14:09:52.3119102 5084 23428 Agent Initializing global settings cache
  69. 2019/11/04 14:09:52.3119127 5084 23428 Agent WSUS server: http://CES-MSP-WSUS-1.yourserver.com:8530
  70. 2019/11/04 14:09:52.3119183 5084 23428 Agent WSUS status server: http://CES-MSP-WSUS-1.yourserver.com:8530
  71. 2019/11/04 14:09:52.3119205 5084 23428 Agent Alternate Download Server: (null)
  72. 2019/11/04 14:09:52.3119219 5084 23428 Agent Fill Empty Content Urls: No
  73. 2019/11/04 14:09:52.3119233 5084 23428 Agent Target group: NAM Workstations
  74. 2019/11/04 14:09:52.3119247 5084 23428 Agent Windows Update access disabled: No
  75. 2019/11/04 14:09:52.3119265 5084 23428 Agent Do not connect to Windows Update Internet locations: No
  76. 2019/11/04 14:09:52.3125876 5084 23428 Agent Timer: 29A863E7-8609-4D1E-B7CD-5668F857F1DB, Expires 2019-11-05 15:23:02, not idle-only, not network-only
  77. 2019/11/04 14:09:52.3185447 5084 23428 Agent Initializing Windows Update Agent
  78. 2019/11/04 14:09:52.3187158 5084 23428 Agent CPersistentTimeoutScheduler | GetTimer, returned hr = 0x00000000
  79. 2019/11/04 14:09:52.3681778 5084 20492 DownloadManager PurgeExpiredFiles::Found 0 expired files to delete.
  80. 2019/11/04 14:09:52.3682966 5084 20492 DownloadManager PurgeExpiredUpdates::Found 1 non expired updates.
  81. 2019/11/04 14:09:52.7229353 5084 20492 DownloadManager PurgeExpiredUpdates::Found 0 expired updates.
  82. 2019/11/04 14:09:52.7480780 5084 20492 DownloadManager Received power state change notification: Old: <unknown>; New: AC.
  83. 2019/11/04 14:09:52.7480829 5084 20492 DownloadManager Power state changed from <unknown> to AC.
  84. 2019/11/04 14:11:04.4297367 20752 15144 AppAU * START *
  85. 2019/11/04 14:11:04.4298174 20752 15144 AppAU Flight settings ring provisioned default, range-checked minimum search interval: 20 hours
  86. 2019/11/04 14:11:04.4398519 20752 15144 AppAU * START * Finding app updates
  87. 2019/11/04 14:11:04.4399672 20752 15144 AppAU Desktop OOBE is complete.
  88. 2019/11/04 14:11:04.4399911 20752 15144 AppAU Watching user key Software\Microsoft\Windows\CurrentVersion\AppReadiness\S-1-5-21-1426190293-2581963236-2303502020-96247 for app readiness state
  89. 2019/11/04 14:11:04.4399936 20752 15144 AppAU Waiting for UserState to match 3
  90. 2019/11/04 14:14:33.9008270 5084 5924 DataStore Service 8D5E5823-2625-47BD-AAB2-A106B88A51F9 added
  91. 2019/11/04 14:14:33.9008890 5084 5924 Agent AddTargetedServiceMapping: 8D5E5823-2625-47BD-AAB2-A106B88A51F9 -> 7971F918-A847-4430-9279-4A52D1EFE18D
  92. 2019/11/04 14:14:34.0739537 15236 15720 ComApi * START * SLS Discovery
  93. 2019/11/04 14:14:34.0754449 5084 5924 IdleTimer WU operation (CDiscoveryCall::Init ID 1) started; operation # 10; does use network; is not at background priority
  94. 2019/11/04 14:14:34.0756089 15236 15720 ComApi *QUEUED* SLS Discovery
  95. 2019/11/04 14:14:34.1067320 5084 20236 IdleTimer WU operation (CDiscoveryCall::Init ID 1, operation # 10) stopped; does use network; is not at background priority
  96. 2019/11/04 14:14:34.1083808 15236 14756 ComApi *RESUMED* Discovery
  97. 2019/11/04 14:14:34.1084009 15236 14756 Api * END * Discovery ClientId
  98. 2019/11/04 14:14:34.1137424 15236 15720 ComApi * START * SLS Discovery
  99. 2019/11/04 14:14:34.1151814 5084 5924 IdleTimer WU operation (CDiscoveryCall::Init ID 2) started; operation # 15; does use network; is not at background priority
  100. 2019/11/04 14:14:34.1153471 15236 15720 ComApi *QUEUED* SLS Discovery
  101. 2019/11/04 14:14:34.1413280 5084 20236 IdleTimer WU operation (CDiscoveryCall::Init ID 2, operation # 15) stopped; does use network; is not at background priority
  102. 2019/11/04 14:14:34.1416390 15236 12716 ComApi *RESUMED* Discovery
  103. 2019/11/04 14:14:34.1416806 15236 12716 Api * END * Discovery ClientId
  104. 2019/11/04 14:14:34.1467287 15236 15720 ComApi * START * Federated Search ClientId = Dynamic Update (cV: S2SDZpa/tUCcNybu.1.0)
  105. 2019/11/04 14:14:34.1482213 5084 5924 IdleTimer WU operation (SR.Dynamic Update ID 3) started; operation # 20; does use network; is not at background priority
  106. 2019/11/04 14:14:34.1486004 5084 14376 Agent GetTargetedServiceMapping: 8D5E5823-2625-47BD-AAB2-A106B88A51F9 -> 7971F918-A847-4430-9279-4A52D1EFE18D
  107. 2019/11/04 14:14:34.1486028 5084 14376 Agent Processing auto/pending service registrations and recovery.
  108. 2019/11/04 14:14:34.2558165 5084 14376 IdleTimer WU operation (SR.Dynamic Update ID 3, operation # 20) stopped; does use network; is not at background priority
  109. 2019/11/04 14:14:34.2565059 15236 14044 ComApi Federated Search: Starting search against 2 service(s) (cV = S2SDZpa/tUCcNybu.1.0)
  110. 2019/11/04 14:14:34.2566551 15236 14044 ComApi * START * Search ClientId = Dynamic Update, ServiceId = 7971F918-A847-4430-9279-4A52D1EFE18D (cV = S2SDZpa/tUCcNybu.1.0.0)
  111. 2019/11/04 14:14:34.2584157 5084 5924 IdleTimer WU operation (CSearchCall::Init ID 4) started; operation # 23; does use network; is not at background priority
  112. 2019/11/04 14:14:34.2724753 5084 5924 Reporter OS Product Type = 0x00000004
  113. 2019/11/04 14:14:34.2952060 5084 5924 Agent * START * Queueing Finding updates [CallerId = Dynamic Update Id = 4]
  114. 2019/11/04 14:14:34.2952156 5084 5924 Agent Service 7971F918-A847-4430-9279-4A52D1EFE18D is not in sequential scan list
  115. 2019/11/04 14:14:34.2952399 5084 5924 Agent Added service 7971F918-A847-4430-9279-4A52D1EFE18D to sequential scan list
  116. 2019/11/04 14:14:34.2955939 15236 14044 ComApi * START * Search ClientId = Dynamic Update, ServiceId = 8B24B027-1DEE-BABB-9A95-3517DFB9C552 (cV = S2SDZpa/tUCcNybu.1.0.0)
  117. 2019/11/04 14:14:34.2956503 5084 19532 Agent Service 7971F918-A847-4430-9279-4A52D1EFE18D is in sequential scan list
  118. 2019/11/04 14:14:34.2976373 5084 5924 IdleTimer WU operation (CSearchCall::Init ID 5) started; operation # 26; does use network; is not at background priority
  119. 2019/11/04 14:14:34.3018613 5084 19780 Agent * END * Queueing Finding updates [CallerId = Dynamic Update Id = 4]
  120. 2019/11/04 14:14:34.3090572 5084 19780 Agent * START * Finding updates CallerId = Dynamic Update Id = 4
  121. 2019/11/04 14:14:34.3090597 5084 19780 Agent Online = Yes; Interactive = Yes; AllowCachedResults = No; Ignore download priority = No
  122. 2019/11/04 14:14:34.3090618 5084 19780 Agent Criteria = CallerProfile='DU' AND ( CategoryIDs contains 'ebfc1fc5-71a4-4f7b-9aca-3b9a503104a0' AND Type='Driver' ) AND VersionOverride='10.0.18362.2.175.0.18.1'""
  123. 2019/11/04 14:14:34.3090650 5084 19780 Agent ServiceID = {7971F918-A847-4430-9279-4A52D1EFE18D} Third party service
  124. 2019/11/04 14:14:34.3090657 5084 19780 Agent Search Scope = {Machine}
  125. 2019/11/04 14:14:34.3090699 5084 19780 Agent Caller SID for Applicability: S-1-5-21-1426190293-2581963236-2303502020-96247
  126. 2019/11/04 14:14:34.3298130 5084 5924 Agent * START * Queueing Finding updates [CallerId = Dynamic Update Id = 5]
  127. 2019/11/04 14:14:34.3298228 5084 5924 Agent Service 8B24B027-1DEE-BABB-9A95-3517DFB9C552 is not in sequential scan list
  128. 2019/11/04 14:14:34.3298267 5084 5924 Agent Added service 8B24B027-1DEE-BABB-9A95-3517DFB9C552 to sequential scan list
  129. 2019/11/04 14:14:34.3960649 5084 19780 Misc Got 7971F918-A847-4430-9279-4A52D1EFE18D redir Client/Server URL: https://fe2.update.microsoft.com/v6/ClientWebService/client.asmx""
  130. 2019/11/04 14:14:34.4609066 5084 19780 ProtocolTalker ServiceId = {7971F918-A847-4430-9279-4A52D1EFE18D}, Server URL = https://fe2.update.microsoft.com/v6/ClientWebService/client.asmx
  131. 2019/11/04 14:14:34.4609098 5084 19780 ProtocolTalker OK to reuse existing configuration
  132. 2019/11/04 14:14:34.4609130 5084 19780 ProtocolTalker Existing cookie is valid, just use it
  133. 2019/11/04 14:14:34.4609239 5084 19780 IdleTimer WU operation (CAgentProtocolTalker::StartCategoryScan_WithRecovery) started; operation # 27; does use network; is at background priority
  134. 2019/11/04 14:14:34.4609606 5084 19780 WebServices Auto proxy settings for this web service call.
  135. 2019/11/04 14:14:34.6108936 5084 19780 IdleTimer WU operation (CAgentProtocolTalker::StartCategoryScan_WithRecovery, operation # 27) stopped; does use network; is at background priority
  136. 2019/11/04 14:14:34.6611648 5084 19780 ProtocolTalker ServiceId = {7971F918-A847-4430-9279-4A52D1EFE18D}, Server URL = https://fe2.update.microsoft.com/v6/ClientWebService/client.asmx
  137. 2019/11/04 14:14:34.6614279 5084 19780 ProtocolTalker OK to reuse existing configuration
  138. 2019/11/04 14:14:34.6614307 5084 19780 ProtocolTalker Existing cookie is valid, just use it
  139. 2019/11/04 14:14:38.1678434 5084 19780 IdleTimer WU operation (CAgentProtocolTalker::SyncUpdates_WithRecover) started; operation # 28; does use network; is at background priority
  140. 2019/11/04 14:14:38.2702411 5084 19780 IdleTimer WU operation (CAgentProtocolTalker::SyncUpdates_WithRecover, operation # 28) stopped; does use network; is at background priority
  141. 2019/11/04 14:14:38.2725317 5084 19780 IdleTimer WU operation (CAgentProtocolTalker::GetExternalCabFileLocations) started; operation # 29; does use network; is at background priority
  142. 2019/11/04 14:14:38.2948640 5084 19780 IdleTimer WU operation (CAgentProtocolTalker::GetExternalCabFileLocations, operation # 29) stopped; does use network; is at background priority
  143. 2019/11/04 14:14:38.8379003 5084 19780 Metadata Enforcement Mode: Unknown => Audit
  144. 2019/11/04 14:14:38.8379024 5084 19780 Metadata TimestampToken Validity: 0 => 90 (days)
  145. 2019/11/04 14:14:38.8379038 5084 19780 Metadata Using mode: Audit, validity: 90
  146. 2019/11/04 14:14:38.8976506 5084 19780 ProtocolTalker SyncUpdates - 0 bad out of 60 metadata signatures checked using Audit enforcement mode.
  147. 2019/11/04 14:14:38.8976612 5084 19780 ProtocolTalker Treating 684 OutOfScope revisionIds as DeployedOutOfScope for version override scan.
  148. 2019/11/04 14:14:39.1658571 5084 19780 IdleTimer WU operation (CAgentProtocolTalker::SyncUpdates_WithRecover) started; operation # 30; does use network; is at background priority
  149. 2019/11/04 14:14:39.2381821 5084 19780 IdleTimer WU operation (CAgentProtocolTalker::SyncUpdates_WithRecover, operation # 30) stopped; does use network; is at background priority
  150. 2019/11/04 14:14:39.2395358 5084 19780 IdleTimer WU operation (CAgentProtocolTalker::GetExternalCabFileLocations) started; operation # 31; does use network; is at background priority
  151. 2019/11/04 14:14:39.2659137 5084 19780 IdleTimer WU operation (CAgentProtocolTalker::GetExternalCabFileLocations, operation # 31) stopped; does use network; is at background priority
  152. 2019/11/04 14:14:39.7273815 5084 19780 Metadata Enforcement Mode: Unknown => Audit
  153. 2019/11/04 14:14:39.7273829 5084 19780 Metadata TimestampToken Validity: 0 => 90 (days)
  154. 2019/11/04 14:14:39.7273846 5084 19780 Metadata Using mode: Audit, validity: 90
  155. 2019/11/04 14:14:39.7924292 5084 19780 ProtocolTalker SyncUpdates - 0 bad out of 120 metadata signatures checked using Audit enforcement mode.
  156. 2019/11/04 14:14:40.1378903 5084 19780 IdleTimer WU operation (CAgentProtocolTalker::SyncUpdates_WithRecover) started; operation # 32; does use network; is at background priority
  157. 2019/11/04 14:14:40.2029102 5084 19780 IdleTimer WU operation (CAgentProtocolTalker::SyncUpdates_WithRecover, operation # 32) stopped; does use network; is at background priority
  158. 2019/11/04 14:14:40.2342282 5084 19780 Metadata Enforcement Mode: Unknown => Audit
  159. 2019/11/04 14:14:40.2342300 5084 19780 Metadata TimestampToken Validity: 0 => 90 (days)
  160. 2019/11/04 14:14:40.2342314 5084 19780 Metadata Using mode: Audit, validity: 90
  161. 2019/11/04 14:14:40.2476686 5084 19780 ProtocolTalker SyncUpdates - 0 bad out of 180 metadata signatures checked using Audit enforcement mode.
  162. 2019/11/04 14:14:40.4683014 5084 19780 IdleTimer WU operation (CAgentProtocolTalker::SyncUpdates_WithRecover) started; operation # 33; does use network; is at background priority
  163. 2019/11/04 14:14:40.5351887 5084 19780 IdleTimer WU operation (CAgentProtocolTalker::SyncUpdates_WithRecover, operation # 33) stopped; does use network; is at background priority
  164. 2019/11/04 14:14:40.5648738 5084 19780 Metadata Enforcement Mode: Unknown => Audit
  165. 2019/11/04 14:14:40.5648759 5084 19780 Metadata TimestampToken Validity: 0 => 90 (days)
  166. 2019/11/04 14:14:40.5648773 5084 19780 Metadata Using mode: Audit, validity: 90
  167. 2019/11/04 14:14:40.5757598 5084 19780 ProtocolTalker SyncUpdates - 0 bad out of 240 metadata signatures checked using Audit enforcement mode.
  168. 2019/11/04 14:14:40.6758796 5084 19780 IdleTimer WU operation (CAgentProtocolTalker::SyncUpdates_WithRecover) started; operation # 34; does use network; is at background priority
  169. 2019/11/04 14:14:40.7416110 5084 19780 IdleTimer WU operation (CAgentProtocolTalker::SyncUpdates_WithRecover, operation # 34) stopped; does use network; is at background priority
  170. 2019/11/04 14:14:40.7731205 5084 19780 Metadata Enforcement Mode: Unknown => Audit
  171. 2019/11/04 14:14:40.7731223 5084 19780 Metadata TimestampToken Validity: 0 => 90 (days)
  172. 2019/11/04 14:14:40.7731237 5084 19780 Metadata Using mode: Audit, validity: 90
  173. 2019/11/04 14:14:40.7853828 5084 19780 ProtocolTalker SyncUpdates - 0 bad out of 300 metadata signatures checked using Audit enforcement mode.
  174. 2019/11/04 14:14:40.8813523 5084 19780 IdleTimer WU operation (CAgentProtocolTalker::SyncUpdates_WithRecover) started; operation # 35; does use network; is at background priority
  175. 2019/11/04 14:14:40.9452533 5084 19780 IdleTimer WU operation (CAgentProtocolTalker::SyncUpdates_WithRecover, operation # 35) stopped; does use network; is at background priority
  176. 2019/11/04 14:14:40.9757226 5084 19780 Metadata Enforcement Mode: Unknown => Audit
  177. 2019/11/04 14:14:40.9757243 5084 19780 Metadata TimestampToken Validity: 0 => 90 (days)
  178. 2019/11/04 14:14:40.9757258 5084 19780 Metadata Using mode: Audit, validity: 90
  179. 2019/11/04 14:14:40.9841642 5084 19780 ProtocolTalker SyncUpdates - 0 bad out of 341 metadata signatures checked using Audit enforcement mode.
  180. 2019/11/04 14:14:41.0755377 5084 19780 IdleTimer WU operation (CAgentProtocolTalker::SyncUpdates_WithRecover) started; operation # 36; does use network; is at background priority
  181. 2019/11/04 14:14:41.1521357 5084 19780 IdleTimer WU operation (CAgentProtocolTalker::SyncUpdates_WithRecover, operation # 36) stopped; does use network; is at background priority
  182. 2019/11/04 14:14:41.1926081 5084 19780 ProtocolTalker Skipping driver sync because it's not supported.
  183. 2019/11/04 14:14:41.1926109 5084 19780 ProtocolTalker SyncUpdates round trips: 7
  184. 2019/11/04 14:14:41.7736149 5084 19780 ProtocolTalker ServiceId = {7971F918-A847-4430-9279-4A52D1EFE18D}, Server URL = https://fe2.update.microsoft.com/v6/ClientWebService/client.asmx
  185. 2019/11/04 14:14:41.7736174 5084 19780 ProtocolTalker OK to reuse existing configuration
  186. 2019/11/04 14:14:41.7736206 5084 19780 ProtocolTalker Existing cookie is valid, just use it
  187. 2019/11/04 14:14:41.7736304 5084 19780 IdleTimer WU operation (CAgentProtocolTalker::GetExtendedUpdateInfo_WithRecovery) started; operation # 37; does use network; is at background priority
  188. 2019/11/04 14:14:41.7972029 5084 19780 IdleTimer WU operation (CAgentProtocolTalker::GetExtendedUpdateInfo_WithRecovery, operation # 37) stopped; does use network; is at background priority
  189. 2019/11/04 14:14:41.8274092 5084 19780 Metadata Enforcement Mode: Unknown => Audit
  190. 2019/11/04 14:14:41.8274113 5084 19780 Metadata TimestampToken Validity: 0 => 90 (days)
  191. 2019/11/04 14:14:41.8274127 5084 19780 Metadata Using mode: Audit, validity: 90
  192. 2019/11/04 14:14:41.8316082 5084 19780 ProtocolTalker SyncExtendedUpdateInfo - 0 bad out of 390 metadata signatures checked using Audit enforcement mode.
  193. 2019/11/04 14:14:41.8407480 5084 19780 DownloadManager *FAILED* [80240008] Failed to lock the revision for the update B9271F09-68F6-4AF6-A188-340D1C9AD7CC.200 (SessionData = (null))
  194. 2019/11/04 14:14:41.8407618 5084 19780 DownloadManager *FAILED* [80240008] Failed to lock the revision for the update 1971370B-AA59-4AD3-8230-2364FD01E334.200 (SessionData = (null))
  195. 2019/11/04 14:14:41.8407734 5084 19780 DownloadManager *FAILED* [80240008] Failed to lock the revision for the update 552ED211-EFA6-44A1-B02B-FAF391E5A722.200 (SessionData = (null))
  196. 2019/11/04 14:14:41.8407847 5084 19780 DownloadManager *FAILED* [80240008] Failed to lock the revision for the update 13610E13-FAC1-4017-B703-82062DB96BE4.255 (SessionData = (null))
  197. 2019/11/04 14:14:41.8407963 5084 19780 DownloadManager *FAILED* [80240008] Failed to lock the revision for the update CA3BB521-A8EA-4E26-A563-2AD6E3108B9A.200 (SessionData = (null))
  198. 2019/11/04 14:14:41.8408076 5084 19780 DownloadManager *FAILED* [80240008] Failed to lock the revision for the update 81E92824-528F-4583-B074-406D9ED8701B.200 (SessionData = (null))
  199. 2019/11/04 14:14:41.8408189 5084 19780 DownloadManager *FAILED* [80240008] Failed to lock the revision for the update 547D2F41-089B-448F-9265-79579EC92F80.200 (SessionData = (null))
  200. 2019/11/04 14:14:41.8408319 5084 19780 DownloadManager *FAILED* [80240008] Failed to lock the revision for the update B488E84C-6D2C-4170-B915-C36F9BBCF6E7.306 (SessionData = (null))
  201. 2019/11/04 14:14:41.8408619 5084 19780 DownloadManager *FAILED* [80240008] Failed to lock the revision for the update 6961A94D-D948-4064-83D7-D601C5BD68B6.201 (SessionData = (null))
  202. 2019/11/04 14:14:41.8408725 5084 19780 DownloadManager *FAILED* [80240008] Failed to lock the revision for the update 168C7252-BA27-4494-9889-D491014318EB.200 (SessionData = (null))
  203. 2019/11/04 14:14:41.8408831 5084 19780 DownloadManager *FAILED* [80240008] Failed to lock the revision for the update DDB74579-7A1F-4D1F-80C8-E8647055314E.200 (SessionData = (null))
  204. 2019/11/04 14:14:41.8408936 5084 19780 DownloadManager *FAILED* [80240008] Failed to lock the revision for the update 0E297A89-E334-4987-827B-370A429083B9.305 (SessionData = (null))
  205. 2019/11/04 14:14:41.8409046 5084 19780 DownloadManager *FAILED* [80240008] Failed to lock the revision for the update DEADD591-AEBC-4E14-A7EB-64AC8B31720A.200 (SessionData = (null))
  206. 2019/11/04 14:14:41.8409151 5084 19780 DownloadManager *FAILED* [80240008] Failed to lock the revision for the update 5AF4FF91-E9A7-45B3-841F-AE886BB3C658.201 (SessionData = (null))
  207. 2019/11/04 14:14:41.8409261 5084 19780 DownloadManager *FAILED* [80240008] Failed to lock the revision for the update BA0E8D95-DAC1-4211-A96E-DB1B32DEECE8.200 (SessionData = (null))
  208. 2019/11/04 14:14:41.8409370 5084 19780 DownloadManager *FAILED* [80240008] Failed to lock the revision for the update FCD98FA1-A6B0-4613-8EFD-EA8019BDD6E3.201 (SessionData = (null))
  209. 2019/11/04 14:14:41.8409610 5084 19780 DownloadManager *FAILED* [80240008] Failed to lock the revision for the update 29A16CC3-ADC5-45CD-99B0-50398E334137.200 (SessionData = (null))
  210. 2019/11/04 14:14:41.8409906 5084 19780 DownloadManager *FAILED* [80240008] Failed to lock the revision for the update 7DDC06C4-F2FF-4BB0-BC87-17B385C89A63.254 (SessionData = (null))
  211. 2019/11/04 14:14:41.8410012 5084 19780 DownloadManager *FAILED* [80240008] Failed to lock the revision for the update 95B42BE3-50BA-4AD2-908B-AF3F10304827.201 (SessionData = (null))
  212. 2019/11/04 14:14:41.8508269 5084 19780 DownloadManager *FAILED* [80240008] Failed to lock the revision for the update 1971370B-AA59-4AD3-8230-2364FD01E334.200 (SessionData = (null))
  213. 2019/11/04 14:14:41.8508413 5084 19780 DownloadManager *FAILED* [80240008] Failed to lock the revision for the update 552ED211-EFA6-44A1-B02B-FAF391E5A722.200 (SessionData = (null))
  214. 2019/11/04 14:14:41.8508533 5084 19780 DownloadManager *FAILED* [80240008] Failed to lock the revision for the update 13610E13-FAC1-4017-B703-82062DB96BE4.255 (SessionData = (null))
  215. 2019/11/04 14:14:41.8508783 5084 19780 DownloadManager *FAILED* [80240008] Failed to lock the revision for the update CA3BB521-A8EA-4E26-A563-2AD6E3108B9A.200 (SessionData = (null))
  216. 2019/11/04 14:14:41.8508896 5084 19780 DownloadManager *FAILED* [80240008] Failed to lock the revision for the update B488E84C-6D2C-4170-B915-C36F9BBCF6E7.306 (SessionData = (null))
  217. 2019/11/04 14:14:41.8508999 5084 19780 DownloadManager *FAILED* [80240008] Failed to lock the revision for the update 6961A94D-D948-4064-83D7-D601C5BD68B6.201 (SessionData = (null))
  218. 2019/11/04 14:14:41.8509126 5084 19780 DownloadManager *FAILED* [80240008] Failed to lock the revision for the update 168C7252-BA27-4494-9889-D491014318EB.200 (SessionData = (null))
  219. 2019/11/04 14:14:41.8509425 5084 19780 DownloadManager *FAILED* [80240008] Failed to lock the revision for the update DDB74579-7A1F-4D1F-80C8-E8647055314E.200 (SessionData = (null))
  220. 2019/11/04 14:14:41.8509531 5084 19780 DownloadManager *FAILED* [80240008] Failed to lock the revision for the update 0E297A89-E334-4987-827B-370A429083B9.305 (SessionData = (null))
  221. 2019/11/04 14:14:41.8509637 5084 19780 DownloadManager *FAILED* [80240008] Failed to lock the revision for the update DEADD591-AEBC-4E14-A7EB-64AC8B31720A.200 (SessionData = (null))
  222. 2019/11/04 14:14:41.8509746 5084 19780 DownloadManager *FAILED* [80240008] Failed to lock the revision for the update BA0E8D95-DAC1-4211-A96E-DB1B32DEECE8.200 (SessionData = (null))
  223. 2019/11/04 14:14:41.8509852 5084 19780 DownloadManager *FAILED* [80240008] Failed to lock the revision for the update FCD98FA1-A6B0-4613-8EFD-EA8019BDD6E3.201 (SessionData = (null))
  224. 2019/11/04 14:14:41.8509961 5084 19780 DownloadManager *FAILED* [80240008] Failed to lock the revision for the update 7DDC06C4-F2FF-4BB0-BC87-17B385C89A63.254 (SessionData = (null))
  225. 2019/11/04 14:14:42.1101569 5084 19780 Agent Found 0 updates and 1 categories in search; evaluated appl. rules of 1964 out of 2201 deployed entities
  226. 2019/11/04 14:14:42.1252317 5084 19780 Agent * END * Finding updates CallerId = Dynamic Update Id = 4
  227. 2019/11/04 14:14:42.1276820 5084 19780 IdleTimer WU operation (CSearchCall::Init ID 4, operation # 23) stopped; does use network; is not at background priority
  228. 2019/11/04 14:14:42.1283256 5084 19532 Agent Service 8B24B027-1DEE-BABB-9A95-3517DFB9C552 is in sequential scan list
  229. 2019/11/04 14:14:42.1290636 15236 12716 ComApi *RESUMED* Search ClientId = Dynamic Update, ServiceId = 7971F918-A847-4430-9279-4A52D1EFE18D (cV = S2SDZpa/tUCcNybu.1.0.0)
  230. 2019/11/04 14:14:42.1317142 15236 12716 ComApi * END * Search ClientId = Dynamic Update, Updates found = 0, ServiceId = 7971F918-A847-4430-9279-4A52D1EFE18D (cV = S2SDZpa/tUCcNybu.1.0.0)
  231. 2019/11/04 14:14:42.1338331 5084 24420 Agent * END * Queueing Finding updates [CallerId = Dynamic Update Id = 5]
  232. 2019/11/04 14:14:42.1382994 5084 24420 Agent * START * Finding updates CallerId = Dynamic Update Id = 5
  233. 2019/11/04 14:14:42.1383018 5084 24420 Agent Online = Yes; Interactive = Yes; AllowCachedResults = No; Ignore download priority = No
  234. 2019/11/04 14:14:42.1383036 5084 24420 Agent Criteria = CallerProfile='DU' AND ( CategoryIDs contains 'ebfc1fc5-71a4-4f7b-9aca-3b9a503104a0' AND Type='Driver' ) AND VersionOverride='10.0.18362.2.175.0.18.1'""
  235. 2019/11/04 14:14:42.1383068 5084 24420 Agent ServiceID = {8B24B027-1DEE-BABB-9A95-3517DFB9C552} Third party service
  236. 2019/11/04 14:14:42.1383078 5084 24420 Agent Search Scope = {Machine}
  237. 2019/11/04 14:14:42.1383117 5084 24420 Agent Caller SID for Applicability: S-1-5-21-1426190293-2581963236-2303502020-96247
  238. 2019/11/04 14:14:42.2139563 5084 24420 Misc Got 8B24B027-1DEE-BABB-9A95-3517DFB9C552 redir Client/Server URL: https://fe3.delivery.mp.microsoft.com/ClientWebService/client.asmx""
  239. 2019/11/04 14:14:42.2158047 5084 24420 Misc Token Requested with 0 category IDs.
  240. 2019/11/04 14:14:42.3209774 5084 24420 Misc GetUserTickets: No user tickets found. Returning WU_E_NO_USERTOKEN.
  241. 2019/11/04 14:14:42.7981691 5084 24420 Misc Acquired new token from Server
  242. 2019/11/04 14:14:42.7982572 5084 24420 Misc Got service 8B24B027-1DEE-BABB-9A95-3517DFB9C552 plugin Client/Server auth token of type 0x00000001
  243. 2019/11/04 14:14:42.8634442 5084 24420 Driver Skipping printer driver 7 due to incomplete info or mismatched environment - HWID[microsoftmicrosoft_musd] Provider[Microsoft] MfgName[Microsoft] Name[Microsoft enhanced Point and Print compatibility driver] pEnvironment[Windows NT x86] LocalPrintServerEnv[Windows x64]
  244. 2019/11/04 14:14:43.2994315 5084 24420 ProtocolTalker ServiceId = {8B24B027-1DEE-BABB-9A95-3517DFB9C552}, Server URL = https://fe3.delivery.mp.microsoft.com/ClientWebService/client.asmx
  245. 2019/11/04 14:14:43.2994332 5084 24420 ProtocolTalker OK to reuse existing configuration
  246. 2019/11/04 14:14:43.2994360 5084 24420 ProtocolTalker Existing cookie is valid, just use it
  247. 2019/11/04 14:14:43.2994463 5084 24420 IdleTimer WU operation (CAgentProtocolTalker::StartCategoryScan_WithRecovery) started; operation # 38; does use network; is at background priority
  248. 2019/11/04 14:14:43.2994822 5084 24420 WebServices Auto proxy settings for this web service call.
  249. 2019/11/04 14:14:43.4445522 5084 24420 IdleTimer WU operation (CAgentProtocolTalker::StartCategoryScan_WithRecovery, operation # 38) stopped; does use network; is at background priority
  250. 2019/11/04 14:14:43.5167990 5084 24420 ProtocolTalker ServiceId = {8B24B027-1DEE-BABB-9A95-3517DFB9C552}, Server URL = https://fe3.delivery.mp.microsoft.com/ClientWebService/client.asmx
  251. 2019/11/04 14:14:43.5173262 5084 24420 ProtocolTalker OK to reuse existing configuration
  252. 2019/11/04 14:14:43.5173297 5084 24420 ProtocolTalker Existing cookie is valid, just use it
  253. 2019/11/04 14:14:43.5176788 5084 24420 ProtocolTalker ProductAttributes: (null) | CallerAttributes: E:Interactive=1&Profile=DU&OSVersionOverride=10.0.18362.2.175.0.18.1&Id=Dynamic%20Update& | CurrentVersionOnly: No
  254. 2019/11/04 14:14:43.5178226 5084 24420 Agent Service supports deferral, but still sends down deferred update 8B105828-2E9A-408F-8619-C2630E7231AE.1 unexpectedly. Update is not deferred anymore.
  255. 2019/11/04 14:14:43.5473713 5084 24420 IdleTimer WU operation (CAgentProtocolTalker::SyncUpdates_WithRecover) started; operation # 39; does use network; is at background priority
  256. 2019/11/04 14:14:43.5782327 5084 24420 IdleTimer WU operation (CAgentProtocolTalker::SyncUpdates_WithRecover, operation # 39) stopped; does use network; is at background priority
  257. 2019/11/04 14:14:43.5787726 5084 24420 Agent Service supports deferral, but still sends down deferred update 8B105828-2E9A-408F-8619-C2630E7231AE.1 unexpectedly. Update is not deferred anymore.
  258. 2019/11/04 14:14:43.5973689 5084 24420 IdleTimer WU operation (CAgentProtocolTalker::SyncUpdates_WithRecover) started; operation # 40; does use network; is at background priority
  259. 2019/11/04 14:14:44.0275947 5084 24420 IdleTimer WU operation (CAgentProtocolTalker::SyncUpdates_WithRecover, operation # 40) stopped; does use network; is at background priority
  260. 2019/11/04 14:14:44.0586233 5084 24420 Metadata Enforcement Mode: Unknown => Audit
  261. 2019/11/04 14:14:44.0586251 5084 24420 Metadata TimestampToken Validity: 0 => 90 (days)
  262. 2019/11/04 14:14:44.0586286 5084 24420 Metadata Using mode: Audit, validity: 90
  263. 2019/11/04 14:14:44.0609612 5084 24420 ProtocolTalker SyncUpdates - 0 bad out of 6 metadata signatures checked using Audit enforcement mode.
  264. 2019/11/04 14:14:44.1298379 5084 24420 Metadata Enforcement Mode: Unknown => Audit
  265. 2019/11/04 14:14:44.1298394 5084 24420 Metadata TimestampToken Validity: 0 => 90 (days)
  266. 2019/11/04 14:14:44.1298408 5084 24420 Metadata Using mode: Audit, validity: 90
  267. 2019/11/04 14:14:44.1309254 5084 24420 ProtocolTalker SyncUpdates - 0 bad out of 18 metadata signatures checked using Audit enforcement mode.
  268. 2019/11/04 14:14:44.1382595 5084 24420 DownloadManager *FAILED* [80240008] Failed to lock the revision for the update 57306818-94D4-458B-AE18-86780FB6F199.2 (SessionData = (null))
  269. 2019/11/04 14:14:44.1382761 5084 24420 DownloadManager *FAILED* [80240008] Failed to lock the revision for the update 4B62D75C-0AD5-4AD4-ADF3-F320A75BDDFB.2 (SessionData = (null))
  270. 2019/11/04 14:14:44.1382874 5084 24420 DownloadManager *FAILED* [80240008] Failed to lock the revision for the update 37202B9C-6650-4298-8A68-E76A9422571C.2 (SessionData = (null))
  271. 2019/11/04 14:14:44.1382990 5084 24420 DownloadManager *FAILED* [80240008] Failed to lock the revision for the update DE6D25C2-E56A-404B-A787-5E337FE12978.2 (SessionData = (null))
  272. 2019/11/04 14:14:44.1383096 5084 24420 DownloadManager *FAILED* [80240008] Failed to lock the revision for the update 57FB59C6-CE7D-46CD-B35A-570B96CE78D1.1 (SessionData = (null))
  273. 2019/11/04 14:14:44.1383198 5084 24420 DownloadManager *FAILED* [80240008] Failed to lock the revision for the update 3E1909ED-DE41-4358-8652-000AB86324C5.1 (SessionData = (null))
  274. 2019/11/04 14:14:44.1738160 5084 24420 ProtocolTalker SyncUpdates round trips: 2
  275. 2019/11/04 14:14:44.1824368 5084 24420 Agent Service supports deferral, but still sends down deferred update 8B105828-2E9A-408F-8619-C2630E7231AE.1 unexpectedly. Update is not deferred anymore.
  276. 2019/11/04 14:14:44.1829235 5084 24420 Driver Matched driver to device MONITOR\DELA09D
  277. 2019/11/04 14:14:44.1829249 5084 24420 Driver Status: 00000000, ProblemNumber: 00000000
  278. 2019/11/04 14:14:44.1829718 5084 24420 Driver Matched driver to device MONITOR\DELA09D
  279. 2019/11/04 14:14:44.1829732 5084 24420 Driver Status: 00000000, ProblemNumber: 00000000
  280. 2019/11/04 14:14:44.1830077 5084 24420 Driver DrvUtil: {monitor\dela09d}
  281. 2019/11/04 14:14:44.1830151 5084 24420 Driver Matched driver to device MONITOR\ACRAD46
  282. 2019/11/04 14:14:44.1830162 5084 24420 Driver Status: 00000000, ProblemNumber: 00000000
  283. 2019/11/04 14:14:44.1830708 5084 24420 Driver Matched driver to device MONITOR\ACRAD46
  284. 2019/11/04 14:14:44.1830719 5084 24420 Driver Status: 00000000, ProblemNumber: 00000000
  285. 2019/11/04 14:14:44.1831326 5084 24420 Driver DrvUtil: {monitor\acrad46}
  286. 2019/11/04 14:14:44.1831364 5084 24420 Driver Matched driver to device MONITOR\DELA09E
  287. 2019/11/04 14:14:44.1831375 5084 24420 Driver Status: 00000000, ProblemNumber: 00000000
  288. 2019/11/04 14:14:44.1831629 5084 24420 Driver Matched driver to device MONITOR\DELA09E
  289. 2019/11/04 14:14:44.1831639 5084 24420 Driver Status: 00000000, ProblemNumber: 00000000
  290. 2019/11/04 14:14:44.1831823 5084 24420 Driver Matched driver to device MONITOR\DELA09E
  291. 2019/11/04 14:14:44.1831858 5084 24420 Driver Status: 00000000, ProblemNumber: 00000000
  292. 2019/11/04 14:14:44.1832182 5084 24420 Driver DrvUtil: {monitor\dela09e}
  293. 2019/11/04 14:14:44.1832574 5084 24420 Driver Matched driver to device MONITOR\HWP3183
  294. 2019/11/04 14:14:44.1832588 5084 24420 Driver Status: 00000000, ProblemNumber: 00000000
  295. 2019/11/04 14:14:44.1833572 5084 24420 Driver Matched driver to device MONITOR\HWP3184
  296. 2019/11/04 14:14:44.1833582 5084 24420 Driver Status: 00000000, ProblemNumber: 00000000
  297. 2019/11/04 14:14:44.1833815 5084 24420 Driver DrvUtil: {monitor\hwp3183}
  298. 2019/11/04 14:14:44.1833826 5084 24420 Driver DrvUtil: {monitor\hwp3184}
  299. 2019/11/04 14:14:44.1834259 5084 24420 Driver Matched driver to device HID\Vid_044E&Pid_1212&Col01
  300. 2019/11/04 14:14:44.1834273 5084 24420 Driver Status: 0x4180000a, ProblemNumber: 00000000
  301. 2019/11/04 14:14:44.1834679 5084 24420 Driver DrvUtil: {hid\vid_044e&pid_1212&col01}
  302. 2019/11/04 14:14:44.1834760 5084 24420 Driver Matched driver to device USB\VID_17E9&PID_4323&REV_3100&MI_00
  303. 2019/11/04 14:14:44.1834771 5084 24420 Driver Status: 00000000, ProblemNumber: 00000000
  304. 2019/11/04 14:14:44.1835543 5084 24420 Driver Matched driver to device USB\VID_17E9&PID_4323&REV_3100&MI_01
  305. 2019/11/04 14:14:44.1835553 5084 24420 Driver Status: 00000000, ProblemNumber: 00000000
  306. 2019/11/04 14:14:44.1835987 5084 24420 Driver DrvUtil: {usb\vid_17e9&pid_4323&mi_00}
  307. 2019/11/04 14:14:44.1835998 5084 24420 Driver DrvUtil: {usb\vid_17e9&pid_4323&mi_01}
  308. 2019/11/04 14:14:44.1838889 5084 24420 Agent Service supports deferral, but still sends down deferred update 8B105828-2E9A-408F-8619-C2630E7231AE.1 unexpectedly. Update is not deferred anymore.
  309. 2019/11/04 14:14:44.2445074 5084 24420 Agent Added update DE6D25C2-E56A-404B-A787-5E337FE12978.2 to search result
  310. 2019/11/04 14:14:44.2445123 5084 24420 Agent Added update 4B62D75C-0AD5-4AD4-ADF3-F320A75BDDFB.2 to search result
  311. 2019/11/04 14:14:44.2445162 5084 24420 Agent Added update 37202B9C-6650-4298-8A68-E76A9422571C.2 to search result
  312. 2019/11/04 14:14:44.2445194 5084 24420 Agent Added update 57306818-94D4-458B-AE18-86780FB6F199.2 to search result
  313. 2019/11/04 14:14:44.2445370 5084 24420 Agent Added update 3E1909ED-DE41-4358-8652-000AB86324C5.1 to search result
  314. 2019/11/04 14:14:44.2445405 5084 24420 Agent Added update 57FB59C6-CE7D-46CD-B35A-570B96CE78D1.1 to search result
  315. 2019/11/04 14:14:44.2445554 5084 24420 Agent Found 6 updates and 1 categories in search; evaluated appl. rules of 25 out of 59 deployed entities
  316. 2019/11/04 14:14:44.2578194 5084 24420 Agent * END * Finding updates CallerId = Dynamic Update Id = 5
  317. 2019/11/04 14:14:44.2599873 5084 24420 IdleTimer WU operation (CSearchCall::Init ID 5, operation # 26) stopped; does use network; is not at background priority
  318. 2019/11/04 14:14:44.2610829 15236 12716 ComApi *RESUMED* Search ClientId = Dynamic Update, ServiceId = 8B24B027-1DEE-BABB-9A95-3517DFB9C552 (cV = S2SDZpa/tUCcNybu.1.0.0)
  319. 2019/11/04 14:14:44.2659067 15236 12716 ComApi * END * Search ClientId = Dynamic Update, Updates found = 6, ServiceId = 8B24B027-1DEE-BABB-9A95-3517DFB9C552 (cV = S2SDZpa/tUCcNybu.1.0.0)
  320. 2019/11/04 14:14:44.2661676 15236 14044 ComApi * END * All federated searches have completed. Jobs = 2, Succeeded = 2, ClientId = Dynamic Update (cV = S2SDZpa/tUCcNybu.1.0)
  321. 2019/11/04 14:14:52.8962521 20752 5632 AppAU * START *
  322. 2019/11/04 14:14:52.8962585 20752 5632 AppAU Skipping app au: there is already a task running for this user
  323. 2019/11/04 14:14:52.8962609 20752 5632 AppAU Skipping retry failed acquisition: there is already a task running for this user
  324. 2019/11/04 14:14:52.8962641 20752 5632 AppAU * END *, exit code = 0x00000000
  325. 2019/11/04 14:15:16.4485897 15236 15720 ComApi * START * Federated Download ClientId = Dynamic Update (cV = S2SDZpa/tUCcNybu.2.0)
  326. 2019/11/04 14:15:16.4489790 15236 18520 ComApi Federated Download: Starting download for 1 service(s) (cV = S2SDZpa/tUCcNybu.2.0)
  327. 2019/11/04 14:15:16.4492442 15236 18520 ComApi * START * Download ClientId = Dynamic Update
  328. 2019/11/04 14:15:16.4492459 15236 18520 ComApi Flags: 0X10012; Download priority: 3; Network Cost Policy: 0
  329. 2019/11/04 14:15:16.4492466 15236 18520 ComApi Updates in request: 6
  330. 2019/11/04 14:15:16.4492583 15236 18520 ComApi ServiceID = {8B24B027-1DEE-BABB-9A95-3517DFB9C552} Third party service
  331. 2019/11/04 14:15:16.4526427 5084 5924 DownloadManager Subscribing to heartbeat event.
  332. 2019/11/04 14:15:16.4589408 5084 20492 Agent Effective power state: AC; IsOnAC: Yes.
  333. 2019/11/04 14:15:16.4589637 5084 20492 IdleTimer WU operation (DL.Dynamic Update) started; operation # 54; does use network; is not at background priority
  334. 2019/11/04 14:15:16.4589708 5084 20492 Agent Obtained a network PDC reference for callID {3B747760-9653-4FEF-A129-CC9A45619ABD} with No-Progress-Timeout set to 4294967295; ActivationID: 54.
  335. 2019/11/04 14:15:16.4591298 15236 18520 ComApi *QUEUED* Download ClientId = Dynamic Update
  336. 2019/11/04 14:15:16.4595537 5084 20492 DownloadManager * START * Begin Downloading Updates [CallerId = Dynamic Update] [Call ID = 3B747760-9653-4FEF-A129-CC9A45619ABD]
  337. 2019/11/04 14:15:16.4595582 5084 20492 DownloadManager Priority = 3, NetworkCostPolicy = 0, Interactive = 1, Download on Battery = 0, Bypass Regulation = 1, Owner is system = 0, Proxy session id = -1, ServiceId = 8B24B027-1DEE-BABB-9A95-3517DFB9C552.
  338. 2019/11/04 14:15:16.4595593 5084 20492 DownloadManager Updates to download = 6
  339. 2019/11/04 14:15:16.4595607 5084 20492 Agent Title = HP - Monitor - HP Pavilion 22cw IPS LED Backlit Monitor
  340. 2019/11/04 14:15:16.4595632 5084 20492 Agent UpdateId = DE6D25C2-E56A-404B-A787-5E337FE12978.2
  341. 2019/11/04 14:15:16.4595642 5084 20492 Agent Title = ACER Corporation - Display - Acer AL1717
  342. 2019/11/04 14:15:16.4595667 5084 20492 Agent UpdateId = 4B62D75C-0AD5-4AD4-ADF3-F320A75BDDFB.2
  343. 2019/11/04 14:15:16.4595681 5084 20492 Agent Title = Dell Inc. - Monitor, Other hardware - Dell E2214H(Digital)
  344. 2019/11/04 14:15:16.4595702 5084 20492 Agent UpdateId = 37202B9C-6650-4298-8A68-E76A9422571C.2
  345. 2019/11/04 14:15:16.4595713 5084 20492 Agent Title = Dell Inc. - Monitor, Other hardware - Dell E2214H(Analog)
  346. 2019/11/04 14:15:16.4595738 5084 20492 Agent UpdateId = 57306818-94D4-458B-AE18-86780FB6F199.2
  347. 2019/11/04 14:15:16.4595773 5084 20492 Agent Title = DisplayLink - Display - 1/14/2019 12:00:00 AM - 9.0.1807.0
  348. 2019/11/04 14:15:16.4595797 5084 20492 Agent UpdateId = 3E1909ED-DE41-4358-8652-000AB86324C5.1
  349. 2019/11/04 14:15:16.4595808 5084 20492 Agent Title = AlpsAlpine - HIDClass - 1/22/2019 12:00:00 AM - 10.0.0.126
  350. 2019/11/04 14:15:16.4595833 5084 20492 Agent UpdateId = 57FB59C6-CE7D-46CD-B35A-570B96CE78D1.1
  351. 2019/11/04 14:15:16.4596034 5084 20492 DownloadManager No locked revisions found for update DE6D25C2-E56A-404B-A787-5E337FE12978.2 (SessionData = (null)); locking the user-specified revision.
  352. 2019/11/04 14:15:16.4638179 5084 20492 DownloadManager No locked revisions found for update 4B62D75C-0AD5-4AD4-ADF3-F320A75BDDFB.2 (SessionData = (null)); locking the user-specified revision.
  353. 2019/11/04 14:15:16.4679428 5084 20492 DownloadManager No locked revisions found for update 37202B9C-6650-4298-8A68-E76A9422571C.2 (SessionData = (null)); locking the user-specified revision.
  354. 2019/11/04 14:15:16.4721132 5084 20492 DownloadManager No locked revisions found for update 57306818-94D4-458B-AE18-86780FB6F199.2 (SessionData = (null)); locking the user-specified revision.
  355. 2019/11/04 14:15:16.4764169 5084 20492 DownloadManager No locked revisions found for update 3E1909ED-DE41-4358-8652-000AB86324C5.1 (SessionData = (null)); locking the user-specified revision.
  356. 2019/11/04 14:15:16.4807886 5084 20492 DownloadManager No locked revisions found for update 57FB59C6-CE7D-46CD-B35A-570B96CE78D1.1 (SessionData = (null)); locking the user-specified revision.
  357. 2019/11/04 14:15:16.4851350 5084 20492 DownloadManager Regulation: {8B24B027-1DEE-BABB-9A95-3517DFB9C552} - Loaded sequence number 65535 for regulation category PerUpdate.
  358. 2019/11/04 14:15:16.4851396 5084 20492 DownloadManager Regulation: {8B24B027-1DEE-BABB-9A95-3517DFB9C552} - Loaded sequence number 65535 for regulation category Low.
  359. 2019/11/04 14:15:16.4851417 5084 20492 DownloadManager Regulation: {8B24B027-1DEE-BABB-9A95-3517DFB9C552} - Loaded sequence number 65535 for regulation category Normal.
  360. 2019/11/04 14:15:16.4851435 5084 20492 DownloadManager Regulation: {8B24B027-1DEE-BABB-9A95-3517DFB9C552} - Loaded sequence number 65535 for regulation category High.
  361. 2019/11/04 14:15:16.5073217 5084 20492 DownloadManager Update DE6D25C2-E56A-404B-A787-5E337FE12978.2 is missing dynamic file URL
  362. 2019/11/04 14:15:16.5083492 5084 20492 DownloadManager DynamicDownloadDataFetcher: {8B24B027-1DEE-BABB-9A95-3517DFB9C552} - added new entry for Update {DE6D25C2-E56A-404B-A787-5E337FE12978}.2
  363. 2019/11/04 14:15:16.5083612 5084 20492 DownloadManager Update DE6D25C2-E56A-404B-A787-5E337FE12978.2 is currently waiting on required dynamic data to start.
  364. 2019/11/04 14:15:16.5229208 5084 20492 Agent Effective power state: AC; IsOnAC: Yes.
  365. 2019/11/04 14:15:16.5229268 5084 20492 IdleTimer WU operation (DL.Dynamic Update, operation # 54) stopped; does use network; is not at background priority
  366. 2019/11/04 14:15:16.5229296 5084 20492 Agent Released network PDC reference for callId {3B747760-9653-4FEF-A129-CC9A45619ABD}; ActivationID: 54
  367. 2019/11/04 14:15:16.5229349 5084 20492 IdleTimer WU operation (DL.Dynamic Update) started; operation # 55; does use network; is not at background priority
  368. 2019/11/04 14:15:16.5229381 5084 20492 Agent Obtained a network PDC reference for callID {3B747760-9653-4FEF-A129-CC9A45619ABD} with No-Progress-Timeout set to 4294967295; ActivationID: 55.
  369. 2019/11/04 14:15:16.5234144 5084 21384 Agent WU client calls back to download call {3B747760-9653-4FEF-A129-CC9A45619ABD} with code Call progress and error 0
  370. 2019/11/04 14:15:16.5249011 5084 20492 DownloadManager * END * Begin Downloading Updates CallerId = Dynamic Update
  371. 2019/11/04 14:15:16.5252682 5084 20492 DownloadManager DynamicDownloadDataFetcher Refresh Svc: {8B24B027-1DEE-BABB-9A95-3517DFB9C552}
  372. 2019/11/04 14:15:16.5253066 5084 20492 DownloadManager Fetching dynamic data from service 8B24B027-1DEE-BABB-9A95-3517DFB9C552 for 1 updates.
  373. 2019/11/04 14:15:16.5608995 5084 20492 IdleTimer WU operation (CDynamicDownloadDataFetcher::FetchAndStoreDynamicData) started; operation # 56; does use network; is at background priority
  374. 2019/11/04 14:15:16.5909756 5084 20492 Misc Got 8B24B027-1DEE-BABB-9A95-3517DFB9C552 redir SecuredClient/Server URL: https://fe3.delivery.mp.microsoft.com/ClientWebService/client.asmx/secured""
  375. 2019/11/04 14:15:16.5923159 5084 20492 Agent Endpoint token being requested with no category data.
  376. 2019/11/04 14:15:16.5931611 5084 20492 Misc Token Requested with 0 category IDs.
  377. 2019/11/04 14:15:16.6327435 5084 20492 Misc GetUserTickets: No user tickets found. Returning WU_E_NO_USERTOKEN.
  378. 2019/11/04 14:15:16.6375194 5084 20492 Misc Acquired new token from Server
  379. 2019/11/04 14:15:16.6375931 5084 20492 Misc Got service 8B24B027-1DEE-BABB-9A95-3517DFB9C552 plugin SecuredClient/Server auth token of type 0x00000001
  380. 2019/11/04 14:15:16.6380197 5084 20492 WebServices Auto proxy settings for this web service call.
  381. 2019/11/04 14:15:16.7575158 5084 20492 DownloadManager GetExtendedUpdateInfo2 returned, hr=0x00000000, FileLocations=1, FileDecryptionData=0
  382. 2019/11/04 14:15:16.7624020 5084 20492 IdleTimer WU operation (CDynamicDownloadDataFetcher::FetchAndStoreDynamicData, operation # 56) stopped; does use network; is at background priority
  383. 2019/11/04 14:15:16.7626309 5084 20492 DownloadManager DynamicDownloadDataFetcher Refresh complete
  384. 2019/11/04 14:15:16.7626601 5084 20492 DownloadManager DynamicDownloadDataFetcher Refreshed Update {DE6D25C2-E56A-404B-A787-5E337FE12978} SetDynamicResult: 0
  385. 2019/11/04 14:15:16.7626612 5084 20492 DownloadManager DynamicDownloadDataFetcher HandleDynamicDataRefreshResult
  386. 2019/11/04 14:15:17.4315519 5084 20492 DownloadManager DO [File I/O] job initialized: JobId = {D473F89E-ED1E-40AC-89C6-C31E8F7FD30A}
  387. 2019/11/04 14:15:17.4348641 5084 20492 DownloadManager Downloading from http://tlu.dl.delivery.mp.microsoft.com/filestreamingservice/files/8d1f2a19-18cf-4d71-ace4-0d5e61653120?P1=1572899137&P2=402&P3=2&P4=XNs9ikBk2ju8LUowMinZY2TKb2HWbVmTIaYzz8lTh6xMdQ%2bffUeml%2f1cBkf8HXMGeIos9eTvPnu5AOpjpaDG%2fA%3d%3d to C:\WINDOWS\SoftwareDistribution\Download\562edfca9caff6a4ea13c28addccc1a5\884614cea71f79aa8ca8b59399275b32cdc999fb (full file)
  388. 2019/11/04 14:15:17.4349350 5084 20492 DownloadManager Created download job D473F89E-ED1E-40AC-89C6-C31E8F7FD30A; memory stream: No.
  389. 2019/11/04 14:15:17.4394619 5084 20492 DownloadManager New download job {D473F89E-ED1E-40AC-89C6-C31E8F7FD30A} for UpdateId DE6D25C2-E56A-404B-A787-5E337FE12978.2
  390. 2019/11/04 14:15:17.4557278 5084 20492 DownloadManager Download job D473F89E-ED1E-40AC-89C6-C31E8F7FD30A resumed.
  391. 2019/11/04 14:15:18.3239835 5084 20492 Agent Effective power state: AC; IsOnAC: Yes.
  392. 2019/11/04 14:15:18.3240036 5084 20492 IdleTimer WU operation (DL.Dynamic Update, operation # 55) stopped; does use network; is not at background priority
  393. 2019/11/04 14:15:18.3240131 5084 20492 Agent Released network PDC reference for callId {3B747760-9653-4FEF-A129-CC9A45619ABD}; ActivationID: 55
  394. 2019/11/04 14:15:18.3240265 5084 20492 IdleTimer WU operation (DL.Dynamic Update) started; operation # 57; does use network; is not at background priority
  395. 2019/11/04 14:15:18.3240350 5084 20492 Agent Obtained a network PDC reference for callID {3B747760-9653-4FEF-A129-CC9A45619ABD} with No-Progress-Timeout set to 4294967295; ActivationID: 57.
  396. 2019/11/04 14:15:18.3251553 5084 21384 Agent WU client calls back to download call {3B747760-9653-4FEF-A129-CC9A45619ABD} with code Call progress and error 0
  397. 2019/11/04 14:15:18.3508635 5084 20492 DownloadManager Download job D473F89E-ED1E-40AC-89C6-C31E8F7FD30A resumed.
  398. 2019/11/04 14:15:18.3855706 5084 5924 DownloadManager DO [File I/O] job {D473F89E-ED1E-40AC-89C6-C31E8F7FD30A} completed successfully, updateId = DE6D25C2-E56A-404B-A787-5E337FE12978.2
  399. 2019/11/04 14:15:18.3930042 5084 5924 DownloadManager Setting DO job D473F89E-ED1E-40AC-89C6-C31E8F7FD30A as the last job for update DE6D25C2-E56A-404B-A787-5E337FE12978.2
  400. 2019/11/04 14:15:18.4083585 5084 5924 Misc Validating signature for C:\WINDOWS\SoftwareDistribution\Download\562edfca9caff6a4ea13c28addccc1a5\884614cea71f79aa8ca8b59399275b32cdc999fb with dwProvFlags 0x00000080:
  401. 2019/11/04 14:15:18.4151679 5084 5924 Misc Microsoft signed: Yes
  402. 2019/11/04 14:15:18.4715271 5084 20492 DownloadManager All files for update DE6D25C2-E56A-404B-A787-5E337FE12978.2 were already downloaded and are valid.
  403. 2019/11/04 14:15:18.4764127 5084 20492 DownloadManager Update 4B62D75C-0AD5-4AD4-ADF3-F320A75BDDFB.2 is missing dynamic file URL
  404. 2019/11/04 14:15:18.4769578 5084 20492 DownloadManager DynamicDownloadDataFetcher: {8B24B027-1DEE-BABB-9A95-3517DFB9C552} - added new entry for Update {4B62D75C-0AD5-4AD4-ADF3-F320A75BDDFB}.2
  405. 2019/11/04 14:15:18.4769754 5084 20492 DownloadManager Update 4B62D75C-0AD5-4AD4-ADF3-F320A75BDDFB.2 is currently waiting on required dynamic data to start.
  406. 2019/11/04 14:15:18.4910956 5084 20492 Agent Effective power state: AC; IsOnAC: Yes.
  407. 2019/11/04 14:15:18.4911013 5084 20492 IdleTimer WU operation (DL.Dynamic Update, operation # 57) stopped; does use network; is not at background priority
  408. 2019/11/04 14:15:18.4911045 5084 20492 Agent Released network PDC reference for callId {3B747760-9653-4FEF-A129-CC9A45619ABD}; ActivationID: 57
  409. 2019/11/04 14:15:18.4911101 5084 20492 IdleTimer WU operation (DL.Dynamic Update) started; operation # 58; does use network; is not at background priority
  410. 2019/11/04 14:15:18.4911133 5084 20492 Agent Obtained a network PDC reference for callID {3B747760-9653-4FEF-A129-CC9A45619ABD} with No-Progress-Timeout set to 4294967295; ActivationID: 58.
  411. 2019/11/04 14:15:18.4916873 5084 21384 Agent WU client calls back to download call {3B747760-9653-4FEF-A129-CC9A45619ABD} with code Call progress and error 0
  412. 2019/11/04 14:15:18.5066785 5084 20492 DownloadManager DynamicDownloadDataFetcher Refresh Svc: {8B24B027-1DEE-BABB-9A95-3517DFB9C552}
  413. 2019/11/04 14:15:18.5067268 5084 20492 DownloadManager Fetching dynamic data from service 8B24B027-1DEE-BABB-9A95-3517DFB9C552 for 1 updates.
  414. 2019/11/04 14:15:18.5395157 5084 20492 IdleTimer WU operation (CDynamicDownloadDataFetcher::FetchAndStoreDynamicData) started; operation # 59; does use network; is at background priority
  415. 2019/11/04 14:15:18.5672716 5084 20492 Misc Got 8B24B027-1DEE-BABB-9A95-3517DFB9C552 redir SecuredClient/Server URL: https://fe3.delivery.mp.microsoft.com/ClientWebService/client.asmx/secured""
  416. 2019/11/04 14:15:18.5684776 5084 20492 Agent Endpoint token being requested with no category data.
  417. 2019/11/04 14:15:18.5694035 5084 20492 Misc Token Requested with 0 category IDs.
  418. 2019/11/04 14:15:18.5803837 5084 20492 Misc GetUserTickets: No user tickets found. Returning WU_E_NO_USERTOKEN.
  419. 2019/11/04 14:15:18.5853866 5084 20492 Misc Acquired new token from Server
  420. 2019/11/04 14:15:18.5854677 5084 20492 Misc Got service 8B24B027-1DEE-BABB-9A95-3517DFB9C552 plugin SecuredClient/Server auth token of type 0x00000001
  421. 2019/11/04 14:15:18.5855125 5084 20492 WebServices Auto proxy settings for this web service call.
  422. 2019/11/04 14:15:18.8954943 5084 20492 DownloadManager GetExtendedUpdateInfo2 returned, hr=0x00000000, FileLocations=1, FileDecryptionData=0
  423. 2019/11/04 14:15:18.9005188 5084 20492 IdleTimer WU operation (CDynamicDownloadDataFetcher::FetchAndStoreDynamicData, operation # 59) stopped; does use network; is at background priority
  424. 2019/11/04 14:15:18.9005459 5084 20492 DownloadManager DynamicDownloadDataFetcher Refresh complete
  425. 2019/11/04 14:15:18.9005840 5084 20492 DownloadManager DynamicDownloadDataFetcher Refreshed Update {4B62D75C-0AD5-4AD4-ADF3-F320A75BDDFB} SetDynamicResult: 0
  426. 2019/11/04 14:15:18.9005851 5084 20492 DownloadManager DynamicDownloadDataFetcher HandleDynamicDataRefreshResult
  427. 2019/11/04 14:15:18.9268861 5084 20492 DownloadManager DO [File I/O] job initialized: JobId = {1FC3B6EB-CD43-4BD3-9664-EE9BA4D33171}
  428. 2019/11/04 14:15:18.9301228 5084 20492 DownloadManager Downloading from http://tlu.dl.delivery.mp.microsoft.com/filestreamingservice/files/cc70f5f2-866c-4361-b500-adaa1b21509a?P1=1572899139&P2=402&P3=2&P4=X%2foCKGiMtMB2heudTTxcIZfyG7qOKPLBAF%2biMtSNGxL%2fbxTI9gvcTwBs0tLcTtL5fOXQkosefYoU5VS4qalNhA%3d%3d to C:\WINDOWS\SoftwareDistribution\Download\cea35edd9a39535e639e10b7a7f5cea1\63a2918dfbcc8825766ce8dde52e6faa3a7292dc (full file)
  429. 2019/11/04 14:15:18.9302028 5084 20492 DownloadManager Created download job 1FC3B6EB-CD43-4BD3-9664-EE9BA4D33171; memory stream: No.
  430. 2019/11/04 14:15:18.9344300 5084 20492 DownloadManager New download job {1FC3B6EB-CD43-4BD3-9664-EE9BA4D33171} for UpdateId 4B62D75C-0AD5-4AD4-ADF3-F320A75BDDFB.2
  431. 2019/11/04 14:15:18.9506755 5084 20492 DownloadManager Download job 1FC3B6EB-CD43-4BD3-9664-EE9BA4D33171 resumed.
  432. 2019/11/04 14:15:19.5609982 5084 20492 Agent Effective power state: AC; IsOnAC: Yes.
  433. 2019/11/04 14:15:19.5610253 5084 20492 IdleTimer WU operation (DL.Dynamic Update, operation # 58) stopped; does use network; is not at background priority
  434. 2019/11/04 14:15:19.5610306 5084 20492 Agent Released network PDC reference for callId {3B747760-9653-4FEF-A129-CC9A45619ABD}; ActivationID: 58
  435. 2019/11/04 14:15:19.5610377 5084 20492 IdleTimer WU operation (DL.Dynamic Update) started; operation # 60; does use network; is not at background priority
  436. 2019/11/04 14:15:19.5610426 5084 20492 Agent Obtained a network PDC reference for callID {3B747760-9653-4FEF-A129-CC9A45619ABD} with No-Progress-Timeout set to 4294967295; ActivationID: 60.
  437. 2019/11/04 14:15:19.5616530 5084 21384 Agent WU client calls back to download call {3B747760-9653-4FEF-A129-CC9A45619ABD} with code Call progress and error 0
  438. 2019/11/04 14:15:19.6089312 5084 24260 DownloadManager DO [File I/O] job {1FC3B6EB-CD43-4BD3-9664-EE9BA4D33171} completed successfully, updateId = 4B62D75C-0AD5-4AD4-ADF3-F320A75BDDFB.2
  439. 2019/11/04 14:15:19.6160848 5084 24260 DownloadManager Setting DO job 1FC3B6EB-CD43-4BD3-9664-EE9BA4D33171 as the last job for update 4B62D75C-0AD5-4AD4-ADF3-F320A75BDDFB.2
  440. 2019/11/04 14:15:19.6314868 5084 24260 Misc Validating signature for C:\WINDOWS\SoftwareDistribution\Download\cea35edd9a39535e639e10b7a7f5cea1\63a2918dfbcc8825766ce8dde52e6faa3a7292dc with dwProvFlags 0x00000080:
  441. 2019/11/04 14:15:19.6387394 5084 24260 Misc Microsoft signed: Yes
  442. 2019/11/04 14:15:19.6950658 5084 20492 DownloadManager All files for update 4B62D75C-0AD5-4AD4-ADF3-F320A75BDDFB.2 were already downloaded and are valid.
  443. 2019/11/04 14:15:19.6997260 5084 20492 DownloadManager Update 37202B9C-6650-4298-8A68-E76A9422571C.2 is missing dynamic file URL
  444. 2019/11/04 14:15:19.7000275 5084 20492 DownloadManager DynamicDownloadDataFetcher: {8B24B027-1DEE-BABB-9A95-3517DFB9C552} - added new entry for Update {37202B9C-6650-4298-8A68-E76A9422571C}.2
  445. 2019/11/04 14:15:19.7000557 5084 20492 DownloadManager Update 37202B9C-6650-4298-8A68-E76A9422571C.2 is currently waiting on required dynamic data to start.
  446. 2019/11/04 14:15:19.7138519 5084 20492 Agent Effective power state: AC; IsOnAC: Yes.
  447. 2019/11/04 14:15:19.7138579 5084 20492 IdleTimer WU operation (DL.Dynamic Update, operation # 60) stopped; does use network; is not at background priority
  448. 2019/11/04 14:15:19.7138628 5084 20492 Agent Released network PDC reference for callId {3B747760-9653-4FEF-A129-CC9A45619ABD}; ActivationID: 60
  449. 2019/11/04 14:15:19.7138685 5084 20492 IdleTimer WU operation (DL.Dynamic Update) started; operation # 61; does use network; is not at background priority
  450. 2019/11/04 14:15:19.7138716 5084 20492 Agent Obtained a network PDC reference for callID {3B747760-9653-4FEF-A129-CC9A45619ABD} with No-Progress-Timeout set to 4294967295; ActivationID: 61.
  451. 2019/11/04 14:15:19.7144944 5084 21384 Agent WU client calls back to download call {3B747760-9653-4FEF-A129-CC9A45619ABD} with code Call progress and error 0
  452. 2019/11/04 14:15:19.7311224 5084 20492 DownloadManager DynamicDownloadDataFetcher Refresh Svc: {8B24B027-1DEE-BABB-9A95-3517DFB9C552}
  453. 2019/11/04 14:15:19.7311770 5084 20492 DownloadManager Fetching dynamic data from service 8B24B027-1DEE-BABB-9A95-3517DFB9C552 for 1 updates.
  454. 2019/11/04 14:15:19.7661835 5084 20492 IdleTimer WU operation (CDynamicDownloadDataFetcher::FetchAndStoreDynamicData) started; operation # 62; does use network; is at background priority
  455. 2019/11/04 14:15:19.7940921 5084 20492 Misc Got 8B24B027-1DEE-BABB-9A95-3517DFB9C552 redir SecuredClient/Server URL: https://fe3.delivery.mp.microsoft.com/ClientWebService/client.asmx/secured""
  456. 2019/11/04 14:15:19.7953400 5084 20492 Agent Endpoint token being requested with no category data.
  457. 2019/11/04 14:15:19.7961771 5084 20492 Misc Token Requested with 0 category IDs.
  458. 2019/11/04 14:15:19.8072296 5084 20492 Misc GetUserTickets: No user tickets found. Returning WU_E_NO_USERTOKEN.
  459. 2019/11/04 14:15:19.8127879 5084 20492 Misc Acquired new token from Server
  460. 2019/11/04 14:15:19.8128563 5084 20492 Misc Got service 8B24B027-1DEE-BABB-9A95-3517DFB9C552 plugin SecuredClient/Server auth token of type 0x00000001
  461. 2019/11/04 14:15:19.8129018 5084 20492 WebServices Auto proxy settings for this web service call.
  462. 2019/11/04 14:15:20.0102978 5084 20492 DownloadManager GetExtendedUpdateInfo2 returned, hr=0x00000000, FileLocations=1, FileDecryptionData=0
  463. 2019/11/04 14:15:20.0151022 5084 20492 IdleTimer WU operation (CDynamicDownloadDataFetcher::FetchAndStoreDynamicData, operation # 62) stopped; does use network; is at background priority
  464. 2019/11/04 14:15:20.0151346 5084 20492 DownloadManager DynamicDownloadDataFetcher Refresh complete
  465. 2019/11/04 14:15:20.0151678 5084 20492 DownloadManager DynamicDownloadDataFetcher Refreshed Update {37202B9C-6650-4298-8A68-E76A9422571C} SetDynamicResult: 0
  466. 2019/11/04 14:15:20.0151699 5084 20492 DownloadManager DynamicDownloadDataFetcher HandleDynamicDataRefreshResult
  467. 2019/11/04 14:15:20.0470874 5084 20492 DownloadManager DO [File I/O] job initialized: JobId = {5D995E26-F395-4E8C-BDB9-9B5B3FEB6445}
  468. 2019/11/04 14:15:20.0504793 5084 20492 DownloadManager Downloading from http://tlu.dl.delivery.mp.microsoft.com/filestreamingservice/files/646c305b-267d-4f4b-9256-5d6bd12460c9?P1=1572899140&P2=402&P3=2&P4=GMXv7Ubzb6Jl6qP4KCssWbqxdv8P%2fso5wHxfcbBU3KpvdG4xGQkY29vIL3SAXh7i6Ngfu8HXy5hPUYAvGO9OuQ%3d%3d to C:\WINDOWS\SoftwareDistribution\Download\0a4f4311fbd89e0f5065e30b62e89c1b\953baa2b6edf1f6baf612b6df0872069b06a6ccf (full file)
  469. 2019/11/04 14:15:20.0505470 5084 20492 DownloadManager Created download job 5D995E26-F395-4E8C-BDB9-9B5B3FEB6445; memory stream: No.
  470. 2019/11/04 14:15:20.0550026 5084 20492 DownloadManager New download job {5D995E26-F395-4E8C-BDB9-9B5B3FEB6445} for UpdateId 37202B9C-6650-4298-8A68-E76A9422571C.2
  471. 2019/11/04 14:15:20.0712731 5084 20492 DownloadManager Download job 5D995E26-F395-4E8C-BDB9-9B5B3FEB6445 resumed.
  472. 2019/11/04 14:15:20.6440477 5084 20492 Agent Effective power state: AC; IsOnAC: Yes.
  473. 2019/11/04 14:15:20.6440590 5084 20492 IdleTimer WU operation (DL.Dynamic Update, operation # 61) stopped; does use network; is not at background priority
  474. 2019/11/04 14:15:20.6440643 5084 20492 Agent Released network PDC reference for callId {3B747760-9653-4FEF-A129-CC9A45619ABD}; ActivationID: 61
  475. 2019/11/04 14:15:20.6440981 5084 20492 IdleTimer WU operation (DL.Dynamic Update) started; operation # 63; does use network; is not at background priority
  476. 2019/11/04 14:15:20.6441052 5084 20492 Agent Obtained a network PDC reference for callID {3B747760-9653-4FEF-A129-CC9A45619ABD} with No-Progress-Timeout set to 4294967295; ActivationID: 63.
  477. 2019/11/04 14:15:20.6446764 5084 21384 Agent WU client calls back to download call {3B747760-9653-4FEF-A129-CC9A45619ABD} with code Call progress and error 0
  478. 2019/11/04 14:15:20.6787657 5084 24260 DownloadManager DO [File I/O] job {5D995E26-F395-4E8C-BDB9-9B5B3FEB6445} completed successfully, updateId = 37202B9C-6650-4298-8A68-E76A9422571C.2
  479. 2019/11/04 14:15:20.6860854 5084 24260 DownloadManager Setting DO job 5D995E26-F395-4E8C-BDB9-9B5B3FEB6445 as the last job for update 37202B9C-6650-4298-8A68-E76A9422571C.2
  480. 2019/11/04 14:15:20.7013452 5084 24260 Misc Validating signature for C:\WINDOWS\SoftwareDistribution\Download\0a4f4311fbd89e0f5065e30b62e89c1b\953baa2b6edf1f6baf612b6df0872069b06a6ccf with dwProvFlags 0x00000080:
  481. 2019/11/04 14:15:20.7091226 5084 24260 Misc Microsoft signed: Yes
  482. 2019/11/04 14:15:20.7721043 5084 20492 DownloadManager All files for update 37202B9C-6650-4298-8A68-E76A9422571C.2 were already downloaded and are valid.
  483. 2019/11/04 14:15:20.7903364 5084 20492 DownloadManager All files for update 57306818-94D4-458B-AE18-86780FB6F199.2 were already downloaded and are valid.
  484. 2019/11/04 14:15:20.7947684 5084 20492 DownloadManager Update 3E1909ED-DE41-4358-8652-000AB86324C5.1 is missing dynamic file URL
  485. 2019/11/04 14:15:20.7951069 5084 20492 DownloadManager DynamicDownloadDataFetcher: {8B24B027-1DEE-BABB-9A95-3517DFB9C552} - added new entry for Update {3E1909ED-DE41-4358-8652-000AB86324C5}.1
  486. 2019/11/04 14:15:20.7951355 5084 20492 DownloadManager Update 3E1909ED-DE41-4358-8652-000AB86324C5.1 is currently waiting on required dynamic data to start.
  487. 2019/11/04 14:15:20.8095153 5084 20492 Agent Effective power state: AC; IsOnAC: Yes.
  488. 2019/11/04 14:15:20.8095212 5084 20492 IdleTimer WU operation (DL.Dynamic Update, operation # 63) stopped; does use network; is not at background priority
  489. 2019/11/04 14:15:20.8095241 5084 20492 Agent Released network PDC reference for callId {3B747760-9653-4FEF-A129-CC9A45619ABD}; ActivationID: 63
  490. 2019/11/04 14:15:20.8095294 5084 20492 IdleTimer WU operation (DL.Dynamic Update) started; operation # 64; does use network; is not at background priority
  491. 2019/11/04 14:15:20.8095325 5084 20492 Agent Obtained a network PDC reference for callID {3B747760-9653-4FEF-A129-CC9A45619ABD} with No-Progress-Timeout set to 4294967295; ActivationID: 64.
  492. 2019/11/04 14:15:20.8100544 5084 21384 Agent WU client calls back to download call {3B747760-9653-4FEF-A129-CC9A45619ABD} with code Call progress and error 0
  493. 2019/11/04 14:15:20.8242522 5084 20492 DownloadManager DynamicDownloadDataFetcher Refresh Svc: {8B24B027-1DEE-BABB-9A95-3517DFB9C552}
  494. 2019/11/04 14:15:20.8243023 5084 20492 DownloadManager Fetching dynamic data from service 8B24B027-1DEE-BABB-9A95-3517DFB9C552 for 1 updates.
  495. 2019/11/04 14:15:20.8584335 5084 20492 IdleTimer WU operation (CDynamicDownloadDataFetcher::FetchAndStoreDynamicData) started; operation # 65; does use network; is at background priority
  496. 2019/11/04 14:15:20.8857836 5084 20492 Misc Got 8B24B027-1DEE-BABB-9A95-3517DFB9C552 redir SecuredClient/Server URL: https://fe3.delivery.mp.microsoft.com/ClientWebService/client.asmx/secured""
  497. 2019/11/04 14:15:20.8868573 5084 20492 Agent Endpoint token being requested with no category data.
  498. 2019/11/04 14:15:20.8877135 5084 20492 Misc Token Requested with 0 category IDs.
  499. 2019/11/04 14:15:20.8980251 5084 20492 Misc GetUserTickets: No user tickets found. Returning WU_E_NO_USERTOKEN.
  500. 2019/11/04 14:15:20.9027893 5084 20492 Misc Acquired new token from Server
  501. 2019/11/04 14:15:20.9028584 5084 20492 Misc Got service 8B24B027-1DEE-BABB-9A95-3517DFB9C552 plugin SecuredClient/Server auth token of type 0x00000001
  502. 2019/11/04 14:15:20.9029035 5084 20492 WebServices Auto proxy settings for this web service call.
  503. 2019/11/04 14:15:21.0827723 5084 20492 DownloadManager GetExtendedUpdateInfo2 returned, hr=0x00000000, FileLocations=1, FileDecryptionData=0
  504. 2019/11/04 14:15:21.0877347 5084 20492 IdleTimer WU operation (CDynamicDownloadDataFetcher::FetchAndStoreDynamicData, operation # 65) stopped; does use network; is at background priority
  505. 2019/11/04 14:15:21.0877604 5084 20492 DownloadManager DynamicDownloadDataFetcher Refresh complete
  506. 2019/11/04 14:15:21.0877851 5084 20492 DownloadManager DynamicDownloadDataFetcher Refreshed Update {3E1909ED-DE41-4358-8652-000AB86324C5} SetDynamicResult: 0
  507. 2019/11/04 14:15:21.0877865 5084 20492 DownloadManager DynamicDownloadDataFetcher HandleDynamicDataRefreshResult
  508. 2019/11/04 14:15:21.1164776 5084 20492 DownloadManager DO [File I/O] job initialized: JobId = {ECEAE6CD-DFD4-4DB6-9513-EA29CDB72199}
  509. 2019/11/04 14:15:21.1196642 5084 20492 DownloadManager Downloading from http://tlu.dl.delivery.mp.microsoft.com/filestreamingservice/files/7a2c566b-ee3a-40e9-9311-29ed0335f4f0?P1=1572899261&P2=402&P3=2&P4=M7cUzMeUmBp2aS3ObEGxoKVj%2fToKRV2W%2b5C7CFjxYNeUfB8KBxox%2fQkZcbE7RXV1VCCGBpBaMJQg7%2bkI47PvhA%3d%3d to C:\WINDOWS\SoftwareDistribution\Download\07ebe083f357c4eea40bcfdaf9027f3e\884509bbda34d271ab91216359a85d7e72abbdee (full file)
  510. 2019/11/04 14:15:21.1197333 5084 20492 DownloadManager Created download job ECEAE6CD-DFD4-4DB6-9513-EA29CDB72199; memory stream: No.
  511. 2019/11/04 14:15:21.1240836 5084 20492 DownloadManager New download job {ECEAE6CD-DFD4-4DB6-9513-EA29CDB72199} for UpdateId 3E1909ED-DE41-4358-8652-000AB86324C5.1
  512. 2019/11/04 14:15:21.1408199 5084 20492 DownloadManager Download job ECEAE6CD-DFD4-4DB6-9513-EA29CDB72199 resumed.
  513. 2019/11/04 14:15:21.8380152 5084 20492 Agent Effective power state: AC; IsOnAC: Yes.
  514. 2019/11/04 14:15:21.8380385 5084 20492 IdleTimer WU operation (DL.Dynamic Update, operation # 64) stopped; does use network; is not at background priority
  515. 2019/11/04 14:15:21.8380505 5084 20492 Agent Released network PDC reference for callId {3B747760-9653-4FEF-A129-CC9A45619ABD}; ActivationID: 64
  516. 2019/11/04 14:15:21.8380769 5084 20492 IdleTimer WU operation (DL.Dynamic Update) started; operation # 66; does use network; is not at background priority
  517. 2019/11/04 14:15:21.8380889 5084 20492 Agent Obtained a network PDC reference for callID {3B747760-9653-4FEF-A129-CC9A45619ABD} with No-Progress-Timeout set to 4294967295; ActivationID: 66.
  518. 2019/11/04 14:15:21.8390575 5084 21384 Agent WU client calls back to download call {3B747760-9653-4FEF-A129-CC9A45619ABD} with code Call progress and error 0
  519. 2019/11/04 14:15:22.9313559 5084 24260 DownloadManager DO [File I/O] job {ECEAE6CD-DFD4-4DB6-9513-EA29CDB72199} completed successfully, updateId = 3E1909ED-DE41-4358-8652-000AB86324C5.1
  520. 2019/11/04 14:15:22.9389943 5084 24260 DownloadManager Setting DO job ECEAE6CD-DFD4-4DB6-9513-EA29CDB72199 as the last job for update 3E1909ED-DE41-4358-8652-000AB86324C5.1
  521. 2019/11/04 14:15:22.9706629 5084 24260 Misc Validating signature for C:\WINDOWS\SoftwareDistribution\Download\07ebe083f357c4eea40bcfdaf9027f3e\884509bbda34d271ab91216359a85d7e72abbdee with dwProvFlags 0x00000080:
  522. 2019/11/04 14:15:23.0791485 5084 24260 Misc Microsoft signed: Yes
  523. 2019/11/04 14:15:23.1671572 5084 20492 DownloadManager All files for update 3E1909ED-DE41-4358-8652-000AB86324C5.1 were already downloaded and are valid.
  524. 2019/11/04 14:15:23.1716873 5084 20492 DownloadManager Update 57FB59C6-CE7D-46CD-B35A-570B96CE78D1.1 is missing dynamic file URL
  525. 2019/11/04 14:15:23.1722071 5084 20492 DownloadManager DynamicDownloadDataFetcher: {8B24B027-1DEE-BABB-9A95-3517DFB9C552} - added new entry for Update {57FB59C6-CE7D-46CD-B35A-570B96CE78D1}.1
  526. 2019/11/04 14:15:23.1722349 5084 20492 DownloadManager Update 57FB59C6-CE7D-46CD-B35A-570B96CE78D1.1 is currently waiting on required dynamic data to start.
  527. 2019/11/04 14:15:23.1862289 5084 20492 Agent Effective power state: AC; IsOnAC: Yes.
  528. 2019/11/04 14:15:23.1862345 5084 20492 IdleTimer WU operation (DL.Dynamic Update, operation # 66) stopped; does use network; is not at background priority
  529. 2019/11/04 14:15:23.1862377 5084 20492 Agent Released network PDC reference for callId {3B747760-9653-4FEF-A129-CC9A45619ABD}; ActivationID: 66
  530. 2019/11/04 14:15:23.1862426 5084 20492 IdleTimer WU operation (DL.Dynamic Update) started; operation # 67; does use network; is not at background priority
  531. 2019/11/04 14:15:23.1862458 5084 20492 Agent Obtained a network PDC reference for callID {3B747760-9653-4FEF-A129-CC9A45619ABD} with No-Progress-Timeout set to 4294967295; ActivationID: 67.
  532. 2019/11/04 14:15:23.1867719 5084 21384 Agent WU client calls back to download call {3B747760-9653-4FEF-A129-CC9A45619ABD} with code Call progress and error 0
  533. 2019/11/04 14:15:23.2014986 5084 20492 DownloadManager DynamicDownloadDataFetcher Refresh Svc: {8B24B027-1DEE-BABB-9A95-3517DFB9C552}
  534. 2019/11/04 14:15:23.2015441 5084 20492 DownloadManager Fetching dynamic data from service 8B24B027-1DEE-BABB-9A95-3517DFB9C552 for 1 updates.
  535. 2019/11/04 14:15:23.2364751 5084 20492 IdleTimer WU operation (CDynamicDownloadDataFetcher::FetchAndStoreDynamicData) started; operation # 68; does use network; is at background priority
  536. 2019/11/04 14:15:23.2640600 5084 20492 Misc Got 8B24B027-1DEE-BABB-9A95-3517DFB9C552 redir SecuredClient/Server URL: https://fe3.delivery.mp.microsoft.com/ClientWebService/client.asmx/secured""
  537. 2019/11/04 14:15:23.2651877 5084 20492 Agent Endpoint token being requested with no category data.
  538. 2019/11/04 14:15:23.2660774 5084 20492 Misc Token Requested with 0 category IDs.
  539. 2019/11/04 14:15:23.2762363 5084 20492 Misc GetUserTickets: No user tickets found. Returning WU_E_NO_USERTOKEN.
  540. 2019/11/04 14:15:23.2814755 5084 20492 Misc Acquired new token from Server
  541. 2019/11/04 14:15:23.2815894 5084 20492 Misc Got service 8B24B027-1DEE-BABB-9A95-3517DFB9C552 plugin SecuredClient/Server auth token of type 0x00000001
  542. 2019/11/04 14:15:23.2816338 5084 20492 WebServices Auto proxy settings for this web service call.
  543. 2019/11/04 14:15:23.4837792 5084 20492 DownloadManager GetExtendedUpdateInfo2 returned, hr=0x00000000, FileLocations=0, FileDecryptionData=0
  544. 2019/11/04 14:15:23.4847778 5084 20492 DownloadManager DynamicDownloadDataFetcher: GetExtendedUpdateInfo2 succeeded but no file locations were returned by server. Client is not authorized to download content, converting to hr=80246017
  545. 2019/11/04 14:15:23.4847806 5084 20492 DownloadManager DynamicDownloadDataFetcher - Failed to get extended update info2 for chunk: 0x80246017
  546. 2019/11/04 14:15:23.4850634 5084 20492 DownloadManager *FAILED* [80246017] FetchAndStoreDynamicData failed
  547. 2019/11/04 14:15:23.4850691 5084 20492 IdleTimer WU operation (CDynamicDownloadDataFetcher::FetchAndStoreDynamicData, operation # 68) stopped; does use network; is at background priority
  548. 2019/11/04 14:15:23.4850818 5084 20492 DownloadManager DynamicDownloadDataFetcher Refresh complete
  549. 2019/11/04 14:15:23.4851216 5084 20492 DownloadManager DynamicDownloadDataFetcher Refreshed Update {57FB59C6-CE7D-46CD-B35A-570B96CE78D1} SetDynamicResult: 0
  550. 2019/11/04 14:15:23.4851255 5084 20492 DownloadManager DynamicDownloadDataFetcher HandleDynamicDataRefreshResult
  551. 2019/11/04 14:15:23.4994343 5084 20492 DownloadManager *FAILED* [80246017] Method failed [CAgentDownloadManager::DownloadUpdate:8235]
  552. 2019/11/04 14:15:23.4998289 5084 20492 DownloadManager *FAILED* [80246017] Error occurred while downloading update 57FB59C6-CE7D-46CD-B35A-570B96CE78D1.1; notifying dependent calls.
  553. 2019/11/04 14:15:23.5306128 5084 20492 DownloadManager * END * Download Call Complete Call 6 for caller Dynamic Update has completed; signaling completion.
  554. 2019/11/04 14:15:23.5703732 5084 20492 DownloadManager *FAILED* [80240008] Failed to lock the revision for the update 57FB59C6-CE7D-46CD-B35A-570B96CE78D1.1 (SessionData = (null))
  555. 2019/11/04 14:15:23.5704177 5084 20492 DownloadManager *FAILED* [80240008] Failed to lock the revision for the update 57FB59C6-CE7D-46CD-B35A-570B96CE78D1.1 (SessionData = (null))
  556. 2019/11/04 14:15:23.5704519 5084 20492 DownloadManager *FAILED* [80240008] Failed to lock the revision for the update 57FB59C6-CE7D-46CD-B35A-570B96CE78D1.1 (SessionData = (null))
  557. 2019/11/04 14:15:23.5708873 5084 20492 DownloadManager *FAILED* [80240008] Failed to lock the revision for the update 57FB59C6-CE7D-46CD-B35A-570B96CE78D1.1 (SessionData = (null))
  558. 2019/11/04 14:15:23.5751907 5084 20492 Agent Effective power state: AC; IsOnAC: Yes.
  559. 2019/11/04 14:15:23.5751967 5084 20492 IdleTimer WU operation (DL.Dynamic Update, operation # 67) stopped; does use network; is not at background priority
  560. 2019/11/04 14:15:23.5752002 5084 20492 Agent Released network PDC reference for callId {3B747760-9653-4FEF-A129-CC9A45619ABD}; ActivationID: 67
  561. 2019/11/04 14:15:23.5757510 15236 14756 ComApi *RESUMED* Download ClientId = Dynamic Update
  562. 2019/11/04 14:15:23.5757563 15236 14756 ComApi Download call complete (succeeded = 5, succeeded with errors = 0, failed = 1, cancelled = 0, unaccounted = 0)
  563. 2019/11/04 14:15:23.5757651 15236 14756 ComApi * END * Download ClientId = Dynamic Update
  564. 2019/11/04 14:15:23.5758078 5084 21384 Agent WU client calls back to download call {3B747760-9653-4FEF-A129-CC9A45619ABD} with code Call complete and error 0x80246017
  565. 2019/11/04 14:15:23.5763473 15236 18520 ComApi Download call complete (succeeded = 5, succeeded with errors = 0, failed = 1, cancelled = 0, unaccounted = 0)
  566. 2019/11/04 14:15:23.5763713 15236 18520 ComApi * END * All federated downloads have completed. ClientId = Dynamic Update (cV = S2SDZpa/tUCcNybu.2.0)
  567. 2019/11/04 14:15:23.5811552 5084 20492 DownloadManager DynamicDownloadDataFetcher Refresh Svc: {8B24B027-1DEE-BABB-9A95-3517DFB9C552}
  568. 2019/11/04 14:15:23.5811577 5084 20492 DownloadManager *FAILED* [8024000C] DynamicDownloadDataFetcher Refresh complete
  569. 2019/11/04 14:15:23.6158422 15236 15720 ComApi * START * Federated Download ClientId = Dynamic Update (cV = S2SDZpa/tUCcNybu.3.0)
  570. 2019/11/04 14:15:23.6164476 15236 18688 ComApi Federated Download: Starting download for 1 service(s) (cV = S2SDZpa/tUCcNybu.3.0)
  571. 2019/11/04 14:15:23.6167061 15236 18688 ComApi * START * Download ClientId = Dynamic Update
  572. 2019/11/04 14:15:23.6167079 15236 18688 ComApi Flags: 0X10012; Download priority: 3; Network Cost Policy: 0
  573. 2019/11/04 14:15:23.6167089 15236 18688 ComApi Updates in request: 6
  574. 2019/11/04 14:15:23.6167230 15236 18688 ComApi ServiceID = {8B24B027-1DEE-BABB-9A95-3517DFB9C552} Third party service
  575. 2019/11/04 14:15:23.6190658 5084 6272 DownloadManager Subscribing to heartbeat event.
  576. 2019/11/04 14:15:23.6240511 5084 20492 Agent Effective power state: AC; IsOnAC: Yes.
  577. 2019/11/04 14:15:23.6240737 5084 20492 IdleTimer WU operation (DL.Dynamic Update) started; operation # 76; does use network; is not at background priority
  578. 2019/11/04 14:15:23.6240769 5084 20492 Agent Obtained a network PDC reference for callID {79754590-2A31-441E-B166-D2ADDA5D469F} with No-Progress-Timeout set to 4294967295; ActivationID: 76.
  579. 2019/11/04 14:15:23.6242426 15236 18688 ComApi *QUEUED* Download ClientId = Dynamic Update
  580. 2019/11/04 14:15:23.6244764 5084 20492 DownloadManager * START * Begin Downloading Updates [CallerId = Dynamic Update] [Call ID = 79754590-2A31-441E-B166-D2ADDA5D469F]
  581. 2019/11/04 14:15:23.6244806 5084 20492 DownloadManager Priority = 3, NetworkCostPolicy = 0, Interactive = 1, Download on Battery = 0, Bypass Regulation = 1, Owner is system = 0, Proxy session id = -1, ServiceId = 8B24B027-1DEE-BABB-9A95-3517DFB9C552.
  582. 2019/11/04 14:15:23.6244813 5084 20492 DownloadManager Updates to download = 6
  583. 2019/11/04 14:15:23.6244831 5084 20492 Agent Title = HP - Monitor - HP Pavilion 22cw IPS LED Backlit Monitor
  584. 2019/11/04 14:15:23.6244852 5084 20492 Agent UpdateId = DE6D25C2-E56A-404B-A787-5E337FE12978.2
  585. 2019/11/04 14:15:23.6244863 5084 20492 Agent Title = ACER Corporation - Display - Acer AL1717
  586. 2019/11/04 14:15:23.6244887 5084 20492 Agent UpdateId = 4B62D75C-0AD5-4AD4-ADF3-F320A75BDDFB.2
  587. 2019/11/04 14:15:23.6244926 5084 20492 Agent Title = Dell Inc. - Monitor, Other hardware - Dell E2214H(Digital)
  588. 2019/11/04 14:15:23.6244951 5084 20492 Agent UpdateId = 37202B9C-6650-4298-8A68-E76A9422571C.2
  589. 2019/11/04 14:15:23.6244961 5084 20492 Agent Title = Dell Inc. - Monitor, Other hardware - Dell E2214H(Analog)
  590. 2019/11/04 14:15:23.6245169 5084 20492 Agent UpdateId = 57306818-94D4-458B-AE18-86780FB6F199.2
  591. 2019/11/04 14:15:23.6245180 5084 20492 Agent Title = DisplayLink - Display - 1/14/2019 12:00:00 AM - 9.0.1807.0
  592. 2019/11/04 14:15:23.6245205 5084 20492 Agent UpdateId = 3E1909ED-DE41-4358-8652-000AB86324C5.1
  593. 2019/11/04 14:15:23.6245215 5084 20492 Agent Title = AlpsAlpine - HIDClass - 1/22/2019 12:00:00 AM - 10.0.0.126
  594. 2019/11/04 14:15:23.6245240 5084 20492 Agent UpdateId = 57FB59C6-CE7D-46CD-B35A-570B96CE78D1.1
  595. 2019/11/04 14:15:23.6245589 5084 20492 DownloadManager No locked revisions found for update 57FB59C6-CE7D-46CD-B35A-570B96CE78D1.1 (SessionData = (null)); locking the user-specified revision.
  596. 2019/11/04 14:15:23.6618486 5084 20492 DownloadManager All files for update DE6D25C2-E56A-404B-A787-5E337FE12978.2 were already downloaded and are valid.
  597. 2019/11/04 14:15:23.6792058 5084 20492 DownloadManager All files for update 4B62D75C-0AD5-4AD4-ADF3-F320A75BDDFB.2 were already downloaded and are valid.
  598. 2019/11/04 14:15:23.6974122 5084 20492 DownloadManager All files for update 37202B9C-6650-4298-8A68-E76A9422571C.2 were already downloaded and are valid.
  599. 2019/11/04 14:15:23.7115278 5084 20492 DownloadManager All files for update 57306818-94D4-458B-AE18-86780FB6F199.2 were already downloaded and are valid.
  600. 2019/11/04 14:15:23.7604108 5084 20492 DownloadManager All files for update 3E1909ED-DE41-4358-8652-000AB86324C5.1 were already downloaded and are valid.
  601. 2019/11/04 14:15:23.7651539 5084 20492 DownloadManager Update 57FB59C6-CE7D-46CD-B35A-570B96CE78D1.1 is missing dynamic file URL
  602. 2019/11/04 14:15:23.7655844 5084 20492 DownloadManager DynamicDownloadDataFetcher: {8B24B027-1DEE-BABB-9A95-3517DFB9C552} - added new entry for Update {57FB59C6-CE7D-46CD-B35A-570B96CE78D1}.1
  603. 2019/11/04 14:15:23.7656204 5084 20492 DownloadManager Update 57FB59C6-CE7D-46CD-B35A-570B96CE78D1.1 is currently waiting on required dynamic data to start.
  604. 2019/11/04 14:15:23.7809448 5084 20492 Agent Effective power state: AC; IsOnAC: Yes.
  605. 2019/11/04 14:15:23.7809504 5084 20492 IdleTimer WU operation (DL.Dynamic Update, operation # 76) stopped; does use network; is not at background priority
  606. 2019/11/04 14:15:23.7809536 5084 20492 Agent Released network PDC reference for callId {79754590-2A31-441E-B166-D2ADDA5D469F}; ActivationID: 76
  607. 2019/11/04 14:15:23.7809589 5084 20492 IdleTimer WU operation (DL.Dynamic Update) started; operation # 77; does use network; is not at background priority
  608. 2019/11/04 14:15:23.7809621 5084 20492 Agent Obtained a network PDC reference for callID {79754590-2A31-441E-B166-D2ADDA5D469F} with No-Progress-Timeout set to 4294967295; ActivationID: 77.
  609. 2019/11/04 14:15:23.7814071 5084 21384 Agent WU client calls back to download call {79754590-2A31-441E-B166-D2ADDA5D469F} with code Call progress and error 0
  610. 2019/11/04 14:15:23.7828341 5084 20492 DownloadManager * END * Begin Downloading Updates CallerId = Dynamic Update
  611. 2019/11/04 14:15:23.7830767 5084 20492 DownloadManager DynamicDownloadDataFetcher Refresh Svc: {8B24B027-1DEE-BABB-9A95-3517DFB9C552}
  612. 2019/11/04 14:15:23.7831409 5084 20492 DownloadManager Fetching dynamic data from service 8B24B027-1DEE-BABB-9A95-3517DFB9C552 for 1 updates.
  613. 2019/11/04 14:15:23.8171974 5084 20492 IdleTimer WU operation (CDynamicDownloadDataFetcher::FetchAndStoreDynamicData) started; operation # 78; does use network; is at background priority
  614. 2019/11/04 14:15:23.8445884 5084 20492 Misc Got 8B24B027-1DEE-BABB-9A95-3517DFB9C552 redir SecuredClient/Server URL: https://fe3.delivery.mp.microsoft.com/ClientWebService/client.asmx/secured""
  615. 2019/11/04 14:15:23.8457932 5084 20492 Agent Endpoint token being requested with no category data.
  616. 2019/11/04 14:15:23.8466900 5084 20492 Misc Token Requested with 0 category IDs.
  617. 2019/11/04 14:15:23.8579268 5084 20492 Misc GetUserTickets: No user tickets found. Returning WU_E_NO_USERTOKEN.
  618. 2019/11/04 14:15:23.8630997 5084 20492 Misc Acquired new token from Server
  619. 2019/11/04 14:15:23.8631664 5084 20492 Misc Got service 8B24B027-1DEE-BABB-9A95-3517DFB9C552 plugin SecuredClient/Server auth token of type 0x00000001
  620. 2019/11/04 14:15:23.8632461 5084 20492 WebServices Auto proxy settings for this web service call.
  621. 2019/11/04 14:15:24.0745976 5084 20492 DownloadManager GetExtendedUpdateInfo2 returned, hr=0x00000000, FileLocations=0, FileDecryptionData=0
  622. 2019/11/04 14:15:24.0756674 5084 20492 DownloadManager DynamicDownloadDataFetcher: GetExtendedUpdateInfo2 succeeded but no file locations were returned by server. Client is not authorized to download content, converting to hr=80246017
  623. 2019/11/04 14:15:24.0756727 5084 20492 DownloadManager DynamicDownloadDataFetcher - Failed to get extended update info2 for chunk: 0x80246017
  624. 2019/11/04 14:15:24.0762263 5084 20492 DownloadManager *FAILED* [80246017] FetchAndStoreDynamicData failed
  625. 2019/11/04 14:15:24.0762313 5084 20492 IdleTimer WU operation (CDynamicDownloadDataFetcher::FetchAndStoreDynamicData, operation # 78) stopped; does use network; is at background priority
  626. 2019/11/04 14:15:24.0762563 5084 20492 DownloadManager DynamicDownloadDataFetcher Refresh complete
  627. 2019/11/04 14:15:24.0763131 5084 20492 DownloadManager DynamicDownloadDataFetcher Refreshed Update {57FB59C6-CE7D-46CD-B35A-570B96CE78D1} SetDynamicResult: 0
  628. 2019/11/04 14:15:24.0763141 5084 20492 DownloadManager DynamicDownloadDataFetcher HandleDynamicDataRefreshResult
  629. 2019/11/04 14:15:24.0932274 5084 20492 DownloadManager *FAILED* [80246017] Method failed [CAgentDownloadManager::DownloadUpdate:8235]
  630. 2019/11/04 14:15:24.0935751 5084 20492 DownloadManager *FAILED* [80246017] Error occurred while downloading update 57FB59C6-CE7D-46CD-B35A-570B96CE78D1.1; notifying dependent calls.
  631. 2019/11/04 14:15:24.1245240 5084 20492 DownloadManager * END * Download Call Complete Call 7 for caller Dynamic Update has completed; signaling completion.
  632. 2019/11/04 14:15:24.1676579 5084 20492 DownloadManager *FAILED* [80240008] Failed to lock the revision for the update 57FB59C6-CE7D-46CD-B35A-570B96CE78D1.1 (SessionData = (null))
  633. 2019/11/04 14:15:24.1676893 5084 20492 DownloadManager *FAILED* [80240008] Failed to lock the revision for the update 57FB59C6-CE7D-46CD-B35A-570B96CE78D1.1 (SessionData = (null))
  634. 2019/11/04 14:15:24.1677278 5084 20492 DownloadManager *FAILED* [80240008] Failed to lock the revision for the update 57FB59C6-CE7D-46CD-B35A-570B96CE78D1.1 (SessionData = (null))
  635. 2019/11/04 14:15:24.1680130 5084 20492 DownloadManager *FAILED* [80240008] Failed to lock the revision for the update 57FB59C6-CE7D-46CD-B35A-570B96CE78D1.1 (SessionData = (null))
  636. 2019/11/04 14:15:24.1724641 5084 20492 Agent Effective power state: AC; IsOnAC: Yes.
  637. 2019/11/04 14:15:24.1724701 5084 20492 IdleTimer WU operation (DL.Dynamic Update, operation # 77) stopped; does use network; is not at background priority
  638. 2019/11/04 14:15:24.1724736 5084 20492 Agent Released network PDC reference for callId {79754590-2A31-441E-B166-D2ADDA5D469F}; ActivationID: 77
  639. 2019/11/04 14:15:24.1730904 15236 14756 ComApi *RESUMED* Download ClientId = Dynamic Update
  640. 2019/11/04 14:15:24.1730942 15236 14756 ComApi Download call complete (succeeded = 5, succeeded with errors = 0, failed = 1, cancelled = 0, unaccounted = 0)
  641. 2019/11/04 14:15:24.1730995 15236 14756 ComApi * END * Download ClientId = Dynamic Update
  642. 2019/11/04 14:15:24.1731369 5084 21384 Agent WU client calls back to download call {79754590-2A31-441E-B166-D2ADDA5D469F} with code Call complete and error 0x80246017
  643. 2019/11/04 14:15:24.1736390 15236 18688 ComApi Download call complete (succeeded = 5, succeeded with errors = 0, failed = 1, cancelled = 0, unaccounted = 0)
  644. 2019/11/04 14:15:24.1736478 15236 18688 ComApi * END * All federated downloads have completed. ClientId = Dynamic Update (cV = S2SDZpa/tUCcNybu.3.0)
  645. 2019/11/04 14:15:24.1794682 5084 20492 DownloadManager DynamicDownloadDataFetcher Refresh Svc: {8B24B027-1DEE-BABB-9A95-3517DFB9C552}
  646. 2019/11/04 14:15:24.1794741 5084 20492 DownloadManager *FAILED* [8024000C] DynamicDownloadDataFetcher Refresh complete
  647. 2019/11/04 14:15:24.2257030 15236 15720 ComApi * START * Federated Download ClientId = Dynamic Update (cV = S2SDZpa/tUCcNybu.4.0)
  648. 2019/11/04 14:15:24.2261554 15236 12140 ComApi Federated Download: Starting download for 1 service(s) (cV = S2SDZpa/tUCcNybu.4.0)
  649. 2019/11/04 14:15:24.2264167 15236 12140 ComApi * START * Download ClientId = Dynamic Update
  650. 2019/11/04 14:15:24.2264185 15236 12140 ComApi Flags: 0X10012; Download priority: 3; Network Cost Policy: 0
  651. 2019/11/04 14:15:24.2264195 15236 12140 ComApi Updates in request: 6
  652. 2019/11/04 14:15:24.2264301 15236 12140 ComApi ServiceID = {8B24B027-1DEE-BABB-9A95-3517DFB9C552} Third party service
  653. 2019/11/04 14:15:24.2291188 5084 24260 DownloadManager Subscribing to heartbeat event.
  654. 2019/11/04 14:15:24.2346747 5084 20492 Agent Effective power state: AC; IsOnAC: Yes.
  655. 2019/11/04 14:15:24.2346969 5084 20492 IdleTimer WU operation (DL.Dynamic Update) started; operation # 86; does use network; is not at background priority
  656. 2019/11/04 14:15:24.2347000 5084 20492 Agent Obtained a network PDC reference for callID {DBDC06B5-688D-4FC5-812A-313CE48AB055} with No-Progress-Timeout set to 4294967295; ActivationID: 86.
  657. 2019/11/04 14:15:24.2348538 15236 12140 ComApi *QUEUED* Download ClientId = Dynamic Update
  658. 2019/11/04 14:15:24.2351115 5084 20492 DownloadManager * START * Begin Downloading Updates [CallerId = Dynamic Update] [Call ID = DBDC06B5-688D-4FC5-812A-313CE48AB055]
  659. 2019/11/04 14:15:24.2351186 5084 20492 DownloadManager Priority = 3, NetworkCostPolicy = 0, Interactive = 1, Download on Battery = 0, Bypass Regulation = 1, Owner is system = 0, Proxy session id = -1, ServiceId = 8B24B027-1DEE-BABB-9A95-3517DFB9C552.
  660. 2019/11/04 14:15:24.2351197 5084 20492 DownloadManager Updates to download = 6
  661. 2019/11/04 14:15:24.2351214 5084 20492 Agent Title = HP - Monitor - HP Pavilion 22cw IPS LED Backlit Monitor
  662. 2019/11/04 14:15:24.2351426 5084 20492 Agent UpdateId = DE6D25C2-E56A-404B-A787-5E337FE12978.2
  663. 2019/11/04 14:15:24.2351436 5084 20492 Agent Title = ACER Corporation - Display - Acer AL1717
  664. 2019/11/04 14:15:24.2351461 5084 20492 Agent UpdateId = 4B62D75C-0AD5-4AD4-ADF3-F320A75BDDFB.2
  665. 2019/11/04 14:15:24.2351475 5084 20492 Agent Title = Dell Inc. - Monitor, Other hardware - Dell E2214H(Digital)
  666. 2019/11/04 14:15:24.2351496 5084 20492 Agent UpdateId = 37202B9C-6650-4298-8A68-E76A9422571C.2
  667. 2019/11/04 14:15:24.2351510 5084 20492 Agent Title = Dell Inc. - Monitor, Other hardware - Dell E2214H(Analog)
  668. 2019/11/04 14:15:24.2351535 5084 20492 Agent UpdateId = 57306818-94D4-458B-AE18-86780FB6F199.2
  669. 2019/11/04 14:15:24.2351546 5084 20492 Agent Title = DisplayLink - Display - 1/14/2019 12:00:00 AM - 9.0.1807.0
  670. 2019/11/04 14:15:24.2351567 5084 20492 Agent UpdateId = 3E1909ED-DE41-4358-8652-000AB86324C5.1
  671. 2019/11/04 14:15:24.2351581 5084 20492 Agent Title = AlpsAlpine - HIDClass - 1/22/2019 12:00:00 AM - 10.0.0.126
  672. 2019/11/04 14:15:24.2351606 5084 20492 Agent UpdateId = 57FB59C6-CE7D-46CD-B35A-570B96CE78D1.1
  673. 2019/11/04 14:15:24.2352283 5084 20492 DownloadManager No locked revisions found for update 57FB59C6-CE7D-46CD-B35A-570B96CE78D1.1 (SessionData = (null)); locking the user-specified revision.
  674. 2019/11/04 14:15:24.2683362 5084 20492 DownloadManager All files for update DE6D25C2-E56A-404B-A787-5E337FE12978.2 were already downloaded and are valid.
  675. 2019/11/04 14:15:24.2829720 5084 20492 DownloadManager All files for update 4B62D75C-0AD5-4AD4-ADF3-F320A75BDDFB.2 were already downloaded and are valid.
  676. 2019/11/04 14:15:24.2975351 5084 20492 DownloadManager All files for update 37202B9C-6650-4298-8A68-E76A9422571C.2 were already downloaded and are valid.
  677. 2019/11/04 14:15:24.3118242 5084 20492 DownloadManager All files for update 57306818-94D4-458B-AE18-86780FB6F199.2 were already downloaded and are valid.
  678. 2019/11/04 14:15:24.3554536 5084 20492 DownloadManager All files for update 3E1909ED-DE41-4358-8652-000AB86324C5.1 were already downloaded and are valid.
  679. 2019/11/04 14:15:24.3600460 5084 20492 DownloadManager Update 57FB59C6-CE7D-46CD-B35A-570B96CE78D1.1 is missing dynamic file URL
  680. 2019/11/04 14:15:24.3603719 5084 20492 DownloadManager DynamicDownloadDataFetcher: {8B24B027-1DEE-BABB-9A95-3517DFB9C552} - added new entry for Update {57FB59C6-CE7D-46CD-B35A-570B96CE78D1}.1
  681. 2019/11/04 14:15:24.3604033 5084 20492 DownloadManager Update 57FB59C6-CE7D-46CD-B35A-570B96CE78D1.1 is currently waiting on required dynamic data to start.
  682. 2019/11/04 14:15:24.3751208 5084 20492 Agent Effective power state: AC; IsOnAC: Yes.
  683. 2019/11/04 14:15:24.3751261 5084 20492 IdleTimer WU operation (DL.Dynamic Update, operation # 86) stopped; does use network; is not at background priority
  684. 2019/11/04 14:15:24.3751314 5084 20492 Agent Released network PDC reference for callId {DBDC06B5-688D-4FC5-812A-313CE48AB055}; ActivationID: 86
  685. 2019/11/04 14:15:24.3751370 5084 20492 IdleTimer WU operation (DL.Dynamic Update) started; operation # 87; does use network; is not at background priority
  686. 2019/11/04 14:15:24.3751398 5084 20492 Agent Obtained a network PDC reference for callID {DBDC06B5-688D-4FC5-812A-313CE48AB055} with No-Progress-Timeout set to 4294967295; ActivationID: 87.
  687. 2019/11/04 14:15:24.3757724 5084 21384 Agent WU client calls back to download call {DBDC06B5-688D-4FC5-812A-313CE48AB055} with code Call progress and error 0
  688. 2019/11/04 14:15:24.3768518 5084 20492 DownloadManager * END * Begin Downloading Updates CallerId = Dynamic Update
  689. 2019/11/04 14:15:24.3770764 5084 20492 DownloadManager DynamicDownloadDataFetcher Refresh Svc: {8B24B027-1DEE-BABB-9A95-3517DFB9C552}
  690. 2019/11/04 14:15:24.3771191 5084 20492 DownloadManager Fetching dynamic data from service 8B24B027-1DEE-BABB-9A95-3517DFB9C552 for 1 updates.
  691. 2019/11/04 14:15:24.4114520 5084 20492 IdleTimer WU operation (CDynamicDownloadDataFetcher::FetchAndStoreDynamicData) started; operation # 88; does use network; is at background priority
  692. 2019/11/04 14:15:24.4426932 5084 20492 Misc Got 8B24B027-1DEE-BABB-9A95-3517DFB9C552 redir SecuredClient/Server URL: https://fe3.delivery.mp.microsoft.com/ClientWebService/client.asmx/secured""
  693. 2019/11/04 14:15:24.4441905 5084 20492 Agent Endpoint token being requested with no category data.
  694. 2019/11/04 14:15:24.4452511 5084 20492 Misc Token Requested with 0 category IDs.
  695. 2019/11/04 14:15:24.4560243 5084 20492 Misc GetUserTickets: No user tickets found. Returning WU_E_NO_USERTOKEN.
  696. 2019/11/04 14:15:24.4611887 5084 20492 Misc Acquired new token from Server
  697. 2019/11/04 14:15:24.4612780 5084 20492 Misc Got service 8B24B027-1DEE-BABB-9A95-3517DFB9C552 plugin SecuredClient/Server auth token of type 0x00000001
  698. 2019/11/04 14:15:24.4613799 5084 20492 WebServices Auto proxy settings for this web service call.
  699. 2019/11/04 14:15:24.6578925 5084 20492 DownloadManager GetExtendedUpdateInfo2 returned, hr=0x00000000, FileLocations=0, FileDecryptionData=0
  700. 2019/11/04 14:15:24.6588721 5084 20492 DownloadManager DynamicDownloadDataFetcher: GetExtendedUpdateInfo2 succeeded but no file locations were returned by server. Client is not authorized to download content, converting to hr=80246017
  701. 2019/11/04 14:15:24.6588746 5084 20492 DownloadManager DynamicDownloadDataFetcher - Failed to get extended update info2 for chunk: 0x80246017
  702. 2019/11/04 14:15:24.6593347 5084 20492 DownloadManager *FAILED* [80246017] FetchAndStoreDynamicData failed
  703. 2019/11/04 14:15:24.6593397 5084 20492 IdleTimer WU operation (CDynamicDownloadDataFetcher::FetchAndStoreDynamicData, operation # 88) stopped; does use network; is at background priority
  704. 2019/11/04 14:15:24.6593778 5084 20492 DownloadManager DynamicDownloadDataFetcher Refresh complete
  705. 2019/11/04 14:15:24.6594074 5084 20492 DownloadManager DynamicDownloadDataFetcher Refreshed Update {57FB59C6-CE7D-46CD-B35A-570B96CE78D1} SetDynamicResult: 0
  706. 2019/11/04 14:15:24.6594084 5084 20492 DownloadManager DynamicDownloadDataFetcher HandleDynamicDataRefreshResult
  707. 2019/11/04 14:15:24.6753559 5084 20492 DownloadManager *FAILED* [80246017] Method failed [CAgentDownloadManager::DownloadUpdate:8235]
  708. 2019/11/04 14:15:24.6757181 5084 20492 DownloadManager *FAILED* [80246017] Error occurred while downloading update 57FB59C6-CE7D-46CD-B35A-570B96CE78D1.1; notifying dependent calls.
  709. 2019/11/04 14:15:24.7085076 5084 20492 DownloadManager * END * Download Call Complete Call 8 for caller Dynamic Update has completed; signaling completion.
  710. 2019/11/04 14:15:24.7514212 5084 20492 DownloadManager *FAILED* [80240008] Failed to lock the revision for the update 57FB59C6-CE7D-46CD-B35A-570B96CE78D1.1 (SessionData = (null))
  711. 2019/11/04 14:15:24.7514642 5084 20492 DownloadManager *FAILED* [80240008] Failed to lock the revision for the update 57FB59C6-CE7D-46CD-B35A-570B96CE78D1.1 (SessionData = (null))
  712. 2019/11/04 14:15:24.7514998 5084 20492 DownloadManager *FAILED* [80240008] Failed to lock the revision for the update 57FB59C6-CE7D-46CD-B35A-570B96CE78D1.1 (SessionData = (null))
  713. 2019/11/04 14:15:24.7517234 5084 20492 DownloadManager *FAILED* [80240008] Failed to lock the revision for the update 57FB59C6-CE7D-46CD-B35A-570B96CE78D1.1 (SessionData = (null))
  714. 2019/11/04 14:15:24.7561318 5084 20492 Agent Effective power state: AC; IsOnAC: Yes.
  715. 2019/11/04 14:15:24.7561378 5084 20492 IdleTimer WU operation (DL.Dynamic Update, operation # 87) stopped; does use network; is not at background priority
  716. 2019/11/04 14:15:24.7561410 5084 20492 Agent Released network PDC reference for callId {DBDC06B5-688D-4FC5-812A-313CE48AB055}; ActivationID: 87
  717. 2019/11/04 14:15:24.7567499 15236 14756 ComApi *RESUMED* Download ClientId = Dynamic Update
  718. 2019/11/04 14:15:24.7567524 15236 14756 ComApi Download call complete (succeeded = 5, succeeded with errors = 0, failed = 1, cancelled = 0, unaccounted = 0)
  719. 2019/11/04 14:15:24.7567623 15236 14756 ComApi * END * Download ClientId = Dynamic Update
  720. 2019/11/04 14:15:24.7568173 5084 21384 Agent WU client calls back to download call {DBDC06B5-688D-4FC5-812A-313CE48AB055} with code Call complete and error 0x80246017
  721. 2019/11/04 14:15:24.7573973 15236 12140 ComApi Download call complete (succeeded = 5, succeeded with errors = 0, failed = 1, cancelled = 0, unaccounted = 0)
  722. 2019/11/04 14:15:24.7574231 15236 12140 ComApi * END * All federated downloads have completed. ClientId = Dynamic Update (cV = S2SDZpa/tUCcNybu.4.0)
  723. 2019/11/04 14:15:24.7635251 5084 20492 DownloadManager DynamicDownloadDataFetcher Refresh Svc: {8B24B027-1DEE-BABB-9A95-3517DFB9C552}
  724. 2019/11/04 14:15:24.7635279 5084 20492 DownloadManager *FAILED* [8024000C] DynamicDownloadDataFetcher Refresh complete
  725. 2019/11/04 14:15:24.8190063 5084 5924 DataStore Service 8D5E5823-2625-47BD-AAB2-A106B88A51F9 removed
  726. 2019/11/04 14:15:24.8190194 5084 5924 Agent RemoveTargetedServiceMapping: 8D5E5823-2625-47BD-AAB2-A106B88A51F9 -> 7971F918-A847-4430-9279-4A52D1EFE18D
  727. 2019/11/04 14:22:00.8204672 22484 22968 ComApi * START * EvaluateHardwareCapabilities
  728. 2019/11/04 14:22:01.1871510 22484 22968 ComApi * START * Federated Search ClientId = WuApplicabilityScan (cV: eptGODy3AU2Euht4.1.0)
  729. 2019/11/04 14:22:01.1891962 5084 21348 IdleTimer WU operation (SR.WuApplicabilityScan ID 9) started; operation # 100; does use network; is not at background priority
  730. 2019/11/04 14:22:01.1893429 5084 14376 Agent Processing auto/pending service registrations and recovery.
  731. 2019/11/04 14:22:01.2739203 5084 14376 IdleTimer WU operation (SR.WuApplicabilityScan ID 9, operation # 100) stopped; does use network; is not at background priority
  732. 2019/11/04 14:22:01.2744950 22484 19112 ComApi Federated Search: Starting search against 1 service(s) (cV = eptGODy3AU2Euht4.1.0)
  733. 2019/11/04 14:22:01.2748180 22484 19112 ComApi * START * Search ClientId = WuApplicabilityScan, ServiceId = 855E8A7C-ECB4-4CA3-B045-1DFA50104289 (cV = eptGODy3AU2Euht4.1.0.0)
  734. 2019/11/04 14:22:01.2788411 5084 21348 IdleTimer WU operation (CSearchCall::Init ID 10) started; operation # 103; does use network; is not at background priority
  735. 2019/11/04 14:22:01.3582505 5084 21348 Agent * START * Queueing Finding updates [CallerId = WuApplicabilityScan Id = 10]
  736. 2019/11/04 14:22:01.3582622 5084 21348 Agent Service 855E8A7C-ECB4-4CA3-B045-1DFA50104289 is not in sequential scan list
  737. 2019/11/04 14:22:01.3584677 5084 19532 Agent Service 855E8A7C-ECB4-4CA3-B045-1DFA50104289 is not in sequential scan list
  738. 2019/11/04 14:22:01.3759974 5084 19760 Agent * END * Queueing Finding updates [CallerId = WuApplicabilityScan Id = 10]
  739. 2019/11/04 14:22:01.3917566 5084 19760 Agent * START * Finding updates CallerId = WuApplicabilityScan Id = 10
  740. 2019/11/04 14:22:01.3917608 5084 19760 Agent Online = Yes; Interactive = Yes; AllowCachedResults = No; Ignore download priority = No
  741. 2019/11/04 14:22:01.3917629 5084 19760 Agent Criteria = AppCategoryIDs contains 'DE8F75C4-B44E-9839-08D5-A151294C5611'""
  742. 2019/11/04 14:22:01.3917675 5084 19760 Agent ServiceID = {855E8A7C-ECB4-4CA3-B045-1DFA50104289} Third party service
  743. 2019/11/04 14:22:01.3917700 5084 19760 Agent Search Scope = {Current User}
  744. 2019/11/04 14:22:01.3917763 5084 19760 Agent Caller SID for Applicability: S-1-5-21-1426190293-2581963236-2303502020-96247
  745. 2019/11/04 14:22:01.5296410 5084 19760 Misc Got 855E8A7C-ECB4-4CA3-B045-1DFA50104289 redir Client/Server URL: https://fe3.delivery.mp.microsoft.com/ClientWebService/client.asmx""
  746. 2019/11/04 14:22:01.5321509 5084 19760 Misc Token Requested with 0 category IDs.
  747. 2019/11/04 14:22:01.6598884 5084 19760 Misc GetUserTickets: No user tickets found. Returning WU_E_NO_USERTOKEN.
  748. 2019/11/04 14:22:01.6804245 5084 19760 Misc GetAllAccountTickets, hr = 0, ticketCount = 0ll
  749. 2019/11/04 14:22:01.6838522 5084 19760 Misc Acquired new token from Server
  750. 2019/11/04 14:22:01.6839266 5084 19760 Misc Got service 855E8A7C-ECB4-4CA3-B045-1DFA50104289 plugin Client/Server auth token of type 0x00000001
  751. 2019/11/04 14:22:01.7790205 5084 19760 Driver Skipping printer driver 7 due to incomplete info or mismatched environment - HWID[microsoftmicrosoft_musd] Provider[Microsoft] MfgName[Microsoft] Name[Microsoft enhanced Point and Print compatibility driver] pEnvironment[Windows NT x86] LocalPrintServerEnv[Windows x64]
  752. 2019/11/04 14:22:03.3852099 5084 19760 ProtocolTalker PT: Calling GetConfig on server
  753. 2019/11/04 14:22:03.3852286 5084 19760 IdleTimer WU operation (CAgentProtocolTalker::GetConfig_WithRecovery) started; operation # 104; does use network; is at background priority
  754. 2019/11/04 14:22:03.3852702 5084 19760 WebServices Auto proxy settings for this web service call.
  755. 2019/11/04 14:22:03.5846673 5084 19760 IdleTimer WU operation (CAgentProtocolTalker::GetConfig_WithRecovery, operation # 104) stopped; does use network; is at background priority
  756. 2019/11/04 14:22:03.5876480 5084 19760 ProtocolTalker Skipping StartCategoryScan, no categories require server checks.
  757. 2019/11/04 14:22:03.5955371 5084 19760 ProtocolTalker ServiceId = {855E8A7C-ECB4-4CA3-B045-1DFA50104289}, Server URL = https://fe3.delivery.mp.microsoft.com/ClientWebService/client.asmx
  758. 2019/11/04 14:22:03.5959235 5084 19760 ProtocolTalker OK to reuse existing configuration
  759. 2019/11/04 14:22:03.5959264 5084 19760 ProtocolTalker Cached cookie has expired or new PID is available
  760. 2019/11/04 14:22:03.5959433 5084 19760 IdleTimer WU operation (CAgentProtocolTalker::GetCookie_WithRecovery) started; operation # 105; does use network; is at background priority
  761. 2019/11/04 14:22:03.6380479 5084 19760 IdleTimer WU operation (CAgentProtocolTalker::GetCookie_WithRecovery, operation # 105) stopped; does use network; is at background priority
  762. 2019/11/04 14:22:03.6408407 5084 19760 ProtocolTalker ProductAttributes: (null) | CallerAttributes: E:Interactive=1&Acquisition=1&Id=WuApplicabilityScan& | CurrentVersionOnly: No
  763. 2019/11/04 14:22:03.6414902 5084 19760 IdleTimer WU operation (CAgentProtocolTalker::SyncUpdates_WithRecover) started; operation # 106; does use network; is at background priority
  764. 2019/11/04 14:22:03.7700369 5084 19760 IdleTimer WU operation (CAgentProtocolTalker::SyncUpdates_WithRecover, operation # 106) stopped; does use network; is at background priority
  765. 2019/11/04 14:22:03.8032538 5084 19760 Metadata Enforcement Mode: Unknown => Audit
  766. 2019/11/04 14:22:03.8032556 5084 19760 Metadata TimestampToken Validity: 0 => 90 (days)
  767. 2019/11/04 14:22:03.8032570 5084 19760 Metadata Using mode: Audit, validity: 90
  768. 2019/11/04 14:22:03.8033289 5084 19760 Metadata *FAILED* [80247168] No timestamp tokens in cache
  769. 2019/11/04 14:22:03.8038434 5084 19760 IdleTimer WU operation (CAgentProtocolTalker::GetTimestamps_WithRecovery) started; operation # 107; does use network; is at background priority
  770. 2019/11/04 14:22:03.8487588 5084 19760 IdleTimer WU operation (CAgentProtocolTalker::GetTimestamps_WithRecovery, operation # 107) stopped; does use network; is at background priority
  771. 2019/11/04 14:22:03.8534828 5084 19760 Metadata Added Signed Timestamp Token - CreateTime[ 2019-08-13T00:15:28Z ]
  772. 2019/11/04 14:22:03.8535332 5084 19760 Metadata Added Signed Timestamp Token - CreateTime[ 2019-08-28T00:28:40Z ]
  773. 2019/11/04 14:22:03.8535766 5084 19760 Metadata Added Signed Timestamp Token - CreateTime[ 2019-09-12T00:32:39Z ]
  774. 2019/11/04 14:22:03.8536577 5084 19760 Metadata Added Signed Timestamp Token - CreateTime[ 2019-09-27T00:38:33Z ]
  775. 2019/11/04 14:22:03.8537222 5084 19760 Metadata Added Signed Timestamp Token - CreateTime[ 2019-10-12T00:42:11Z ]
  776. 2019/11/04 14:22:03.8537991 5084 19760 Metadata Added Signed Timestamp Token - CreateTime[ 2019-10-27T00:46:23Z ]
  777. 2019/11/04 14:22:03.8700272 5084 19760 ProtocolTalker SyncUpdates - 0 bad out of 51 metadata signatures checked using Audit enforcement mode.
  778. 2019/11/04 14:22:03.9196980 5084 19760 Metadata Enforcement Mode: Unknown => Audit
  779. 2019/11/04 14:22:03.9196998 5084 19760 Metadata TimestampToken Validity: 0 => 90 (days)
  780. 2019/11/04 14:22:03.9197012 5084 19760 Metadata Using mode: Audit, validity: 90
  781. 2019/11/04 14:22:03.9280251 5084 19760 ProtocolTalker SyncUpdates - 0 bad out of 153 metadata signatures checked using Audit enforcement mode.
  782. 2019/11/04 14:22:03.9330128 5084 19760 DownloadManager *FAILED* [80240008] Failed to lock the revision for the update 26AAFC01-30FD-4535-BD6D-76D9EF3A6BAF.1 (SessionData = (null))
  783. 2019/11/04 14:22:03.9330273 5084 19760 DownloadManager *FAILED* [80240008] Failed to lock the revision for the update 7F57FC07-A746-47E2-AF3A-A44541B9EF8A.4 (SessionData = (null))
  784. 2019/11/04 14:22:03.9330400 5084 19760 DownloadManager *FAILED* [80240008] Failed to lock the revision for the update 3D854509-0F65-46D6-B804-83B3E28C47E0.102 (SessionData = (null))
  785. 2019/11/04 14:22:03.9330520 5084 19760 DownloadManager *FAILED* [80240008] Failed to lock the revision for the update 82082714-B13C-430C-BF14-8E2C891BB8DE.5 (SessionData = (null))
  786. 2019/11/04 14:22:03.9330643 5084 19760 DownloadManager *FAILED* [80240008] Failed to lock the revision for the update C3E28014-171F-4928-A46C-45EF40971098.3 (SessionData = (null))
  787. 2019/11/04 14:22:03.9330763 5084 19760 DownloadManager *FAILED* [80240008] Failed to lock the revision for the update AEBFE014-5A40-412C-A0D4-31D7AB8C831E.4 (SessionData = (null))
  788. 2019/11/04 14:22:03.9330904 5084 19760 DownloadManager *FAILED* [80240008] Failed to lock the revision for the update 93F0071B-0C34-460D-825F-4840A76155D2.1 (SessionData = (null))
  789. 2019/11/04 14:22:03.9331222 5084 19760 DownloadManager *FAILED* [80240008] Failed to lock the revision for the update CD5FFD1E-E932-4E3A-BF74-18BF0B1BBD83.1 (SessionData = (null))
  790. 2019/11/04 14:22:03.9331345 5084 19760 DownloadManager *FAILED* [80240008] Failed to lock the revision for the update FD04DA2C-E6AA-4D0A-B212-3A387C669A10.1 (SessionData = (null))
  791. 2019/11/04 14:22:03.9331468 5084 19760 DownloadManager *FAILED* [80240008] Failed to lock the revision for the update FBD29237-F123-45D5-B4E6-4FA2008D7AF0.1 (SessionData = (null))
  792. 2019/11/04 14:22:03.9331592 5084 19760 DownloadManager *FAILED* [80240008] Failed to lock the revision for the update DD301D4B-9BE9-4C62-B71B-6AE74F139B4D.1 (SessionData = (null))
  793. 2019/11/04 14:22:03.9331712 5084 19760 DownloadManager *FAILED* [80240008] Failed to lock the revision for the update A660794D-1B54-4CB5-818F-DC4F4E65A5D6.4 (SessionData = (null))
  794. 2019/11/04 14:22:03.9331832 5084 19760 DownloadManager *FAILED* [80240008] Failed to lock the revision for the update 31EC4B55-3EF0-4A75-ACA2-18C7180637B7.2 (SessionData = (null))
  795. 2019/11/04 14:22:03.9332304 5084 19760 DownloadManager *FAILED* [80240008] Failed to lock the revision for the update DAA36E8F-FD71-489A-B939-A98EAF35D393.1 (SessionData = (null))
  796. 2019/11/04 14:22:03.9332431 5084 19760 DownloadManager *FAILED* [80240008] Failed to lock the revision for the update 3B4ACBAC-E4E7-420E-980A-F2817823394A.6 (SessionData = (null))
  797. 2019/11/04 14:22:03.9332558 5084 19760 DownloadManager *FAILED* [80240008] Failed to lock the revision for the update EBFC1FC5-71A4-4F7B-9ACA-3B9A503104A0.1 (SessionData = (null))
  798. 2019/11/04 14:22:03.9387330 5084 19760 DownloadManager *FAILED* [80240008] Failed to lock the revision for the update D5618A04-88C1-457C-9B83-453626B1A2BD.1 (SessionData = (null))
  799. 2019/11/04 14:22:03.9387549 5084 19760 DownloadManager *FAILED* [80240008] Failed to lock the revision for the update 0FA1201D-4330-4FA8-8AE9-B877473B6441.1 (SessionData = (null))
  800. 2019/11/04 14:22:03.9387746 5084 19760 DownloadManager *FAILED* [80240008] Failed to lock the revision for the update F0DE8127-3806-43B8-848C-F6D27A2C3D86.1 (SessionData = (null))
  801. 2019/11/04 14:22:03.9387958 5084 19760 DownloadManager *FAILED* [80240008] Failed to lock the revision for the update E6CF1350-C01B-414D-A61F-263D14D133B4.1 (SessionData = (null))
  802. 2019/11/04 14:22:03.9388152 5084 19760 DownloadManager *FAILED* [80240008] Failed to lock the revision for the update 71645B53-B816-4802-AB04-E83F576715B1.4 (SessionData = (null))
  803. 2019/11/04 14:22:03.9388353 5084 19760 DownloadManager *FAILED* [80240008] Failed to lock the revision for the update B1F7487D-CF2E-4F63-BB53-E5814D8F8DFC.3 (SessionData = (null))
  804. 2019/11/04 14:22:03.9388550 5084 19760 DownloadManager *FAILED* [80240008] Failed to lock the revision for the update 10689D85-2E4C-4A60-85E6-D4D96332E69C.1 (SessionData = (null))
  805. 2019/11/04 14:22:03.9388882 5084 19760 DownloadManager *FAILED* [80240008] Failed to lock the revision for the update BAA4C988-84D9-4667-A30C-AC8156F67927.1 (SessionData = (null))
  806. 2019/11/04 14:22:03.9389266 5084 19760 DownloadManager *FAILED* [80240008] Failed to lock the revision for the update 82A8D5A2-0B73-4833-96C1-3FD45C251F7F.4 (SessionData = (null))
  807. 2019/11/04 14:22:03.9389396 5084 19760 DownloadManager *FAILED* [80240008] Failed to lock the revision for the update 25CE6BBD-894D-486A-B7D2-1BD23F192CFE.1 (SessionData = (null))
  808. 2019/11/04 14:22:03.9389654 5084 19760 DownloadManager *FAILED* [80240008] Failed to lock the revision for the update 3689BDC8-B205-4AF4-8D4A-A63924C5E9D5.1 (SessionData = (null))
  809. 2019/11/04 14:22:03.9389957 5084 19760 DownloadManager *FAILED* [80240008] Failed to lock the revision for the update DE9215CE-2AC3-4CB9-AE57-DC46BE843C30.4 (SessionData = (null))
  810. 2019/11/04 14:22:03.9390077 5084 19760 DownloadManager *FAILED* [80240008] Failed to lock the revision for the update 32976FF8-F4B3-4D37-ADFF-A70495BCF92F.1 (SessionData = (null))
  811. 2019/11/04 14:22:03.9390190 5084 19760 DownloadManager *FAILED* [80240008] Failed to lock the revision for the update 8A384FFA-F490-45BE-A936-4B9891E74349.1 (SessionData = (null))
  812. 2019/11/04 14:22:03.9390303 5084 19760 DownloadManager *FAILED* [80240008] Failed to lock the revision for the update A5EC45FD-1C5A-4817-8563-8E5B1D2EDBB8.1 (SessionData = (null))
  813. 2019/11/04 14:22:03.9390412 5084 19760 DownloadManager *FAILED* [80240008] Failed to lock the revision for the update 0B25BFFF-6F19-455F-B4EA-8441031C79CD.4 (SessionData = (null))
  814. 2019/11/04 14:22:03.9441690 5084 19760 DownloadManager *FAILED* [80240008] Failed to lock the revision for the update 8F55231C-D2DB-48CF-8039-CDFCD33AD11F.2 (SessionData = (null))
  815. 2019/11/04 14:22:03.9441845 5084 19760 DownloadManager *FAILED* [80240008] Failed to lock the revision for the update 3EECDC23-DB1F-421F-985D-9CC244724719.1 (SessionData = (null))
  816. 2019/11/04 14:22:03.9441986 5084 19760 DownloadManager *FAILED* [80240008] Failed to lock the revision for the update 9E3DE03A-62A0-4D7C-9D46-64EB2C638271.1 (SessionData = (null))
  817. 2019/11/04 14:22:03.9442113 5084 19760 DownloadManager *FAILED* [80240008] Failed to lock the revision for the update 82FC3D3D-A4CD-757F-0163-8C5C3347A02D.1 (SessionData = (null))
  818. 2019/11/04 14:22:03.9442233 5084 19760 DownloadManager *FAILED* [80240008] Failed to lock the revision for the update A226CC41-98F7-48D7-984B-7F777C9B83E3.1 (SessionData = (null))
  819. 2019/11/04 14:22:03.9442356 5084 19760 DownloadManager *FAILED* [80240008] Failed to lock the revision for the update 720A9943-9B85-4957-82A8-F344C2ED7423.1 (SessionData = (null))
  820. 2019/11/04 14:22:03.9442476 5084 19760 DownloadManager *FAILED* [80240008] Failed to lock the revision for the update A717584C-87F1-4A78-B70A-944935618918.1 (SessionData = (null))
  821. 2019/11/04 14:22:03.9442617 5084 19760 DownloadManager *FAILED* [80240008] Failed to lock the revision for the update D3164B4F-B8BC-40C7-8A34-A53283703E59.5 (SessionData = (null))
  822. 2019/11/04 14:22:03.9442895 5084 19760 DownloadManager *FAILED* [80240008] Failed to lock the revision for the update 3381FC73-F5B7-4BF0-BFE9-7B49F32B4B73.1 (SessionData = (null))
  823. 2019/11/04 14:22:03.9443195 5084 19760 DownloadManager *FAILED* [80240008] Failed to lock the revision for the update 03791C74-24FC-4981-93B0-88BE2AE07AA6.1 (SessionData = (null))
  824. 2019/11/04 14:22:03.9443795 5084 19760 DownloadManager *FAILED* [80240008] Failed to lock the revision for the update 23811A75-6F98-41FD-B81E-D6DAE57EABB1.4 (SessionData = (null))
  825. 2019/11/04 14:22:03.9444084 5084 19760 DownloadManager *FAILED* [80240008] Failed to lock the revision for the update E7CD787C-8594-4E6B-8302-174F4AED7A72.1 (SessionData = (null))
  826. 2019/11/04 14:22:03.9444486 5084 19760 DownloadManager *FAILED* [80240008] Failed to lock the revision for the update 90CFDD83-C886-4525-BD71-4981E4ADB45C.1 (SessionData = (null))
  827. 2019/11/04 14:22:03.9444764 5084 19760 DownloadManager *FAILED* [80240008] Failed to lock the revision for the update 4EC8B9AE-AA5D-451A-9E5A-122921A1CBC8.1 (SessionData = (null))
  828. 2019/11/04 14:22:03.9445032 5084 19760 DownloadManager *FAILED* [80240008] Failed to lock the revision for the update 75272CBD-97C2-4A34-B4E9-7C9E81AF6F32.1 (SessionData = (null))
  829. 2019/11/04 14:22:03.9445452 5084 19760 DownloadManager *FAILED* [80240008] Failed to lock the revision for the update 19A331D9-9C9D-4307-9D08-C41B4BCF36A0.1 (SessionData = (null))
  830. 2019/11/04 14:22:03.9479656 5084 19760 DownloadManager *FAILED* [80240008] Failed to lock the revision for the update F15108C8-11CA-4850-B82C-811666794589.1 (SessionData = (null))
  831. 2019/11/04 14:22:03.9480012 5084 19760 DownloadManager *FAILED* [80240008] Failed to lock the revision for the update 4EBBEFEA-615A-4770-8CC9-71B4A92B2FA7.1 (SessionData = (null))
  832. 2019/11/04 14:22:03.9480446 5084 19760 DownloadManager *FAILED* [80240008] Failed to lock the revision for the update AE94FFFA-3509-4E67-904E-C4D3AA381A1C.1 (SessionData = (null))
  833. 2019/11/04 14:22:04.0010342 5084 19760 IdleTimer WU operation (CAgentProtocolTalker::SyncUpdates_WithRecover) started; operation # 108; does use network; is at background priority
  834. 2019/11/04 14:22:04.0505427 5084 19760 IdleTimer WU operation (CAgentProtocolTalker::SyncUpdates_WithRecover, operation # 108) stopped; does use network; is at background priority
  835. 2019/11/04 14:22:04.0885468 5084 19760 Metadata Enforcement Mode: Unknown => Audit
  836. 2019/11/04 14:22:04.0885489 5084 19760 Metadata TimestampToken Validity: 0 => 90 (days)
  837. 2019/11/04 14:22:04.0885503 5084 19760 Metadata Using mode: Audit, validity: 90
  838. 2019/11/04 14:22:04.0949309 5084 19760 ProtocolTalker SyncUpdates - 0 bad out of 174 metadata signatures checked using Audit enforcement mode.
  839. 2019/11/04 14:22:04.1390377 5084 19760 Metadata Enforcement Mode: Unknown => Audit
  840. 2019/11/04 14:22:04.1390395 5084 19760 Metadata TimestampToken Validity: 0 => 90 (days)
  841. 2019/11/04 14:22:04.1390409 5084 19760 Metadata Using mode: Audit, validity: 90
  842. 2019/11/04 14:22:04.1433957 5084 19760 ProtocolTalker SyncUpdates - 0 bad out of 216 metadata signatures checked using Audit enforcement mode.
  843. 2019/11/04 14:22:04.1502774 5084 19760 DownloadManager *FAILED* [80240008] Failed to lock the revision for the update 0EC9830D-FBB2-4F1F-B0A0-4BD935EBD5AA.6 (SessionData = (null))
  844. 2019/11/04 14:22:04.1503046 5084 19760 DownloadManager *FAILED* [80240008] Failed to lock the revision for the update 25ACAF14-BC13-4E7A-9F46-0EC59D797D0F.1 (SessionData = (null))
  845. 2019/11/04 14:22:04.1503278 5084 19760 DownloadManager *FAILED* [80240008] Failed to lock the revision for the update 77F2DF23-7BBA-46F7-A763-F4E53E773CEA.1 (SessionData = (null))
  846. 2019/11/04 14:22:04.1503497 5084 19760 DownloadManager *FAILED* [80240008] Failed to lock the revision for the update E6112748-5353-4849-971D-865D07D77103.2 (SessionData = (null))
  847. 2019/11/04 14:22:04.1503705 5084 19760 DownloadManager *FAILED* [80240008] Failed to lock the revision for the update 2E713768-A3D5-47F5-97FE-30C10442D0EE.5 (SessionData = (null))
  848. 2019/11/04 14:22:04.1503906 5084 19760 DownloadManager *FAILED* [80240008] Failed to lock the revision for the update A9A1C268-7A1D-405E-961D-BF321823B2F3.1 (SessionData = (null))
  849. 2019/11/04 14:22:04.1504107 5084 19760 DownloadManager *FAILED* [80240008] Failed to lock the revision for the update B899457E-EF82-4BBB-87DA-121983B889D1.1 (SessionData = (null))
  850. 2019/11/04 14:22:04.1504305 5084 19760 DownloadManager *FAILED* [80240008] Failed to lock the revision for the update C857B285-4C9F-4BDF-82C6-0EEC1F3F76C0.2 (SessionData = (null))
  851. 2019/11/04 14:22:04.1504502 5084 19760 DownloadManager *FAILED* [80240008] Failed to lock the revision for the update 32DB3C8A-E381-4361-B5F3-1F6148A196AB.1 (SessionData = (null))
  852. 2019/11/04 14:22:04.1504703 5084 19760 DownloadManager *FAILED* [80240008] Failed to lock the revision for the update 56D2CE9C-5318-4D22-B6A1-E038335EDFB3.2 (SessionData = (null))
  853. 2019/11/04 14:22:04.1504925 5084 19760 DownloadManager *FAILED* [80240008] Failed to lock the revision for the update 1E16FAB0-B667-4A09-AD2A-497F61D6280C.1 (SessionData = (null))
  854. 2019/11/04 14:22:04.1505130 5084 19760 DownloadManager *FAILED* [80240008] Failed to lock the revision for the update 56E5D5BF-2962-489E-986D-62BDAD984CA6.2 (SessionData = (null))
  855. 2019/11/04 14:22:04.1505327 5084 19760 DownloadManager *FAILED* [80240008] Failed to lock the revision for the update DC04E7C0-41E5-4A30-8448-61420B310A0C.5 (SessionData = (null))
  856. 2019/11/04 14:22:04.1505528 5084 19760 DownloadManager *FAILED* [80240008] Failed to lock the revision for the update 61C9C3CB-D5ED-4081-9F06-2164CA48D1FF.7 (SessionData = (null))
  857. 2019/11/04 14:22:04.1505726 5084 19760 DownloadManager *FAILED* [80240008] Failed to lock the revision for the update 7BDAE5D2-210A-48E2-AAE9-609319C0AA7F.2 (SessionData = (null))
  858. 2019/11/04 14:22:04.1505930 5084 19760 DownloadManager *FAILED* [80240008] Failed to lock the revision for the update 7A348BD7-25CE-4D08-B38F-E7BD4D8D62C5.1 (SessionData = (null))
  859. 2019/11/04 14:22:04.1543177 5084 19760 DownloadManager *FAILED* [80240008] Failed to lock the revision for the update 89BAD41A-52B0-4EC0-A06F-4C8D8C1E840B.1 (SessionData = (null))
  860. 2019/11/04 14:22:04.1543396 5084 19760 DownloadManager *FAILED* [80240008] Failed to lock the revision for the update 151A5A7F-EB8F-46A8-BC69-25BB1CACCC15.5 (SessionData = (null))
  861. 2019/11/04 14:22:04.1543600 5084 19760 DownloadManager *FAILED* [80240008] Failed to lock the revision for the update F3920F97-9944-43CE-8BFB-538BDCD99C89.2 (SessionData = (null))
  862. 2019/11/04 14:22:04.1543822 5084 19760 DownloadManager *FAILED* [80240008] Failed to lock the revision for the update BE365298-AC33-4302-80CB-8C9809D1D653.1 (SessionData = (null))
  863. 2019/11/04 14:22:04.1544041 5084 19760 DownloadManager *FAILED* [80240008] Failed to lock the revision for the update B77674AE-865E-4DA3-8A17-1A9F7BC6F4D0.5 (SessionData = (null))
  864. 2019/11/04 14:22:04.2832033 5084 19760 IdleTimer WU operation (CAgentProtocolTalker::SyncUpdates_WithRecover) started; operation # 109; does use network; is at background priority
  865. 2019/11/04 14:22:04.3278581 5084 19760 IdleTimer WU operation (CAgentProtocolTalker::SyncUpdates_WithRecover, operation # 109) stopped; does use network; is at background priority
  866. 2019/11/04 14:22:04.3296945 5084 19760 ProtocolTalker Skipping driver sync because it's not supported.
  867. 2019/11/04 14:22:04.3296966 5084 19760 ProtocolTalker SyncUpdates round trips: 3
  868. 2019/11/04 14:22:04.3493462 5084 19760 Agent Found 0 updates and 0 categories in search; evaluated appl. rules of 72 out of 72 deployed entities
  869. 2019/11/04 14:22:04.3790849 5084 19760 Agent * END * Finding updates CallerId = WuApplicabilityScan Id = 10
  870. 2019/11/04 14:22:04.3834066 5084 19760 IdleTimer WU operation (CSearchCall::Init ID 10, operation # 103) stopped; does use network; is not at background priority
  871. 2019/11/04 14:22:04.3843188 22484 1636 ComApi *RESUMED* Search ClientId = WuApplicabilityScan, ServiceId = 855E8A7C-ECB4-4CA3-B045-1DFA50104289 (cV = eptGODy3AU2Euht4.1.0.0)
  872. 2019/11/04 14:22:04.3874681 22484 1636 ComApi * END * Search ClientId = WuApplicabilityScan, Updates found = 0, ServiceId = 855E8A7C-ECB4-4CA3-B045-1DFA50104289 (cV = eptGODy3AU2Euht4.1.0.0)
  873. 2019/11/04 14:22:04.3876899 22484 19112 ComApi * END * All federated searches have completed. Jobs = 1, Succeeded = 1, ClientId = WuApplicabilityScan (cV = eptGODy3AU2Euht4.1.0)
  874. 2019/11/04 14:22:05.3993262 22484 22968 ComApi * END * EvaluateHardwareCapabilities 00000000
  875. 2019/11/04 14:24:53.0996489 20752 13496 ComApi * START * Federated Search ClientId = <<PROCESS>>: taskhostw.exe (cV: eP1dkXmBZkeh9AyH.1.0)
  876. 2019/11/04 14:24:53.1083515 5084 6272 IdleTimer WU operation (SR.<<PROCESS>>: taskhostw.exe ID 11) started; operation # 118; does use network; is not at background priority
  877. 2019/11/04 14:24:53.2112908 5084 14376 IdleTimer WU operation (SR.<<PROCESS>>: taskhostw.exe ID 11, operation # 118) stopped; does use network; is not at background priority
  878. 2019/11/04 14:24:53.2118483 20752 23604 ComApi Federated Search: Starting search against 2 service(s) (cV = eP1dkXmBZkeh9AyH.1.0)
  879. 2019/11/04 14:24:53.2121054 20752 23604 ComApi * START * Search ClientId = <<PROCESS>>: taskhostw.exe, ServiceId = 7971F918-A847-4430-9279-4A52D1EFE18D (cV = eP1dkXmBZkeh9AyH.1.0.0)
  880. 2019/11/04 14:24:53.2144993 5084 6272 IdleTimer WU operation (CSearchCall::Init ID 12) started; operation # 121; does not use network; is not at background priority
  881. 2019/11/04 14:24:53.2403014 5084 6272 Agent * START * Queueing Finding updates [CallerId = <<PROCESS>>: taskhostw.exe Id = 12]
  882. 2019/11/04 14:24:53.2403070 5084 6272 Agent Removing service 7971F918-A847-4430-9279-4A52D1EFE18D from sequential scan list
  883. 2019/11/04 14:24:53.2403123 5084 6272 Agent Service 7971F918-A847-4430-9279-4A52D1EFE18D is not in sequential scan list
  884. 2019/11/04 14:24:53.2403211 5084 6272 Agent Added service 7971F918-A847-4430-9279-4A52D1EFE18D to sequential scan list
  885. 2019/11/04 14:24:53.2405129 5084 19532 Agent Service 7971F918-A847-4430-9279-4A52D1EFE18D is in sequential scan list
  886. 2019/11/04 14:24:53.2407136 20752 23604 ComApi * START * Search ClientId = <<PROCESS>>: taskhostw.exe, ServiceId = 8B24B027-1DEE-BABB-9A95-3517DFB9C552 (cV = eP1dkXmBZkeh9AyH.1.0.0)
  887. 2019/11/04 14:24:53.2427824 5084 6272 IdleTimer WU operation (CSearchCall::Init ID 13) started; operation # 124; does not use network; is not at background priority
  888. 2019/11/04 14:24:53.2494504 5084 9812 Agent * END * Queueing Finding updates [CallerId = <<PROCESS>>: taskhostw.exe Id = 12]
  889. 2019/11/04 14:24:53.2580458 5084 9812 Agent * START * Finding updates CallerId = <<PROCESS>>: taskhostw.exe Id = 12
  890. 2019/11/04 14:24:53.2580504 5084 9812 Agent Online = No; Interactive = Yes; AllowCachedResults = No; Ignore download priority = No
  891. 2019/11/04 14:24:53.2580553 5084 9812 Agent Criteria = IsInstalled=0 and Type='Software' and IsHidden=0 and IsAssigned=1 and CategoryIDs contains 'e6cf1350-c01b-414d-a61f-263d14d133b4'""
  892. 2019/11/04 14:24:53.2580610 5084 9812 Agent ServiceID = {7971F918-A847-4430-9279-4A52D1EFE18D} Third party service
  893. 2019/11/04 14:24:53.2580627 5084 9812 Agent Search Scope = {Machine}
  894. 2019/11/04 14:24:53.2580680 5084 9812 Agent Caller SID for Applicability: S-1-5-21-1426190293-2581963236-2303502020-96247
  895. 2019/11/04 14:24:53.2733494 5084 6272 Agent * START * Queueing Finding updates [CallerId = <<PROCESS>>: taskhostw.exe Id = 13]
  896. 2019/11/04 14:24:53.2733596 5084 6272 Agent Removing service 8B24B027-1DEE-BABB-9A95-3517DFB9C552 from sequential scan list
  897. 2019/11/04 14:24:53.2733663 5084 6272 Agent Service 8B24B027-1DEE-BABB-9A95-3517DFB9C552 is not in sequential scan list
  898. 2019/11/04 14:24:53.2733723 5084 6272 Agent Added service 8B24B027-1DEE-BABB-9A95-3517DFB9C552 to sequential scan list
  899. 2019/11/04 14:24:53.5020793 5084 9812 Agent Found 0 updates and 1 categories in search; evaluated appl. rules of 119 out of 149 deployed entities
  900. 2019/11/04 14:24:53.5100086 5084 9812 Agent * END * Finding updates CallerId = <<PROCESS>>: taskhostw.exe Id = 12
  901. 2019/11/04 14:24:53.5122710 5084 9812 IdleTimer WU operation (CSearchCall::Init ID 12, operation # 121) stopped; does not use network; is not at background priority
  902. 2019/11/04 14:24:53.5126215 5084 19532 Agent Service 8B24B027-1DEE-BABB-9A95-3517DFB9C552 is in sequential scan list
  903. 2019/11/04 14:24:53.5134795 20752 1256 ComApi *RESUMED* Search ClientId = <<PROCESS>>: taskhostw.exe, ServiceId = 7971F918-A847-4430-9279-4A52D1EFE18D (cV = eP1dkXmBZkeh9AyH.1.0.0)
  904. 2019/11/04 14:24:53.5157884 20752 1256 ComApi * END * Search ClientId = <<PROCESS>>: taskhostw.exe, Updates found = 0, ServiceId = 7971F918-A847-4430-9279-4A52D1EFE18D (cV = eP1dkXmBZkeh9AyH.1.0.0)
  905. 2019/11/04 14:24:53.5186626 5084 20876 Agent * END * Queueing Finding updates [CallerId = <<PROCESS>>: taskhostw.exe Id = 13]
  906. 2019/11/04 14:24:53.5236697 5084 20876 Agent * START * Finding updates CallerId = <<PROCESS>>: taskhostw.exe Id = 13
  907. 2019/11/04 14:24:53.5236722 5084 20876 Agent Online = No; Interactive = Yes; AllowCachedResults = No; Ignore download priority = No
  908. 2019/11/04 14:24:53.5236768 5084 20876 Agent Criteria = IsInstalled=0 and Type='Software' and IsHidden=0 and IsAssigned=1 and CategoryIDs contains 'e6cf1350-c01b-414d-a61f-263d14d133b4'""
  909. 2019/11/04 14:24:53.5236803 5084 20876 Agent ServiceID = {8B24B027-1DEE-BABB-9A95-3517DFB9C552} Third party service
  910. 2019/11/04 14:24:53.5236814 5084 20876 Agent Search Scope = {Machine}
  911. 2019/11/04 14:24:53.5236860 5084 20876 Agent Caller SID for Applicability: S-1-5-21-1426190293-2581963236-2303502020-96247
  912. 2019/11/04 14:24:53.6145925 5084 20876 Agent Found 0 updates and 0 categories in search; evaluated appl. rules of 0 out of 1 deployed entities
  913. 2019/11/04 14:24:53.6188444 5084 20876 Agent * END * Finding updates CallerId = <<PROCESS>>: taskhostw.exe Id = 13
  914. 2019/11/04 14:24:53.6202887 5084 20876 IdleTimer WU operation (CSearchCall::Init ID 13, operation # 124) stopped; does not use network; is not at background priority
  915. 2019/11/04 14:24:53.6204911 20752 1256 ComApi *RESUMED* Search ClientId = <<PROCESS>>: taskhostw.exe, ServiceId = 8B24B027-1DEE-BABB-9A95-3517DFB9C552 (cV = eP1dkXmBZkeh9AyH.1.0.0)
  916. 2019/11/04 14:24:53.6209689 20752 1256 ComApi * END * Search ClientId = <<PROCESS>>: taskhostw.exe, Updates found = 0, ServiceId = 8B24B027-1DEE-BABB-9A95-3517DFB9C552 (cV = eP1dkXmBZkeh9AyH.1.0.0)
  917. 2019/11/04 14:24:53.6211844 20752 23604 ComApi * END * All federated searches have completed. Jobs = 2, Succeeded = 2, ClientId = <<PROCESS>>: taskhostw.exe (cV = eP1dkXmBZkeh9AyH.1.0)
  918. 2019/11/04 14:27:03.7040533 20752 15144 AppAU UserState value is now 3. Exiting wait.
  919. 2019/11/04 14:27:03.7040988 20752 15144 AppAU User apps are ready for update, waiting 15 minutes
  920. 2019/11/04 14:27:04.8328582 11988 12356 ComApi * START * SLS Discovery
  921. 2019/11/04 14:27:04.8407208 5084 19284 IdleTimer WU operation (CDiscoveryCall::Init ID 14) started; operation # 137; does use network; is not at background priority
  922. 2019/11/04 14:27:04.8409098 11988 12356 ComApi *QUEUED* SLS Discovery
  923. 2019/11/04 14:27:04.8832670 5084 20236 IdleTimer WU operation (CDiscoveryCall::Init ID 14, operation # 137) stopped; does use network; is not at background priority
  924. 2019/11/04 14:27:04.8840314 11988 8032 ComApi *RESUMED* Discovery
  925. 2019/11/04 14:27:04.8841792 11988 8032 Api * END * Discovery ClientId
  926. 2019/11/04 14:27:04.8904600 11988 12356 ComApi * START * SLS Discovery
  927. 2019/11/04 14:27:04.8921201 5084 19284 IdleTimer WU operation (CDiscoveryCall::Init ID 15) started; operation # 142; does use network; is not at background priority
  928. 2019/11/04 14:27:04.8922340 11988 12356 ComApi *QUEUED* SLS Discovery
  929. 2019/11/04 14:27:04.9236396 5084 20236 IdleTimer WU operation (CDiscoveryCall::Init ID 15, operation # 142) stopped; does use network; is not at background priority
  930. 2019/11/04 14:27:04.9240183 11988 2960 ComApi *RESUMED* Discovery
  931. 2019/11/04 14:27:04.9241590 11988 2960 Api * END * Discovery ClientId
  932. 2019/11/04 14:34:24.6386361 20752 21072 AppAU Task scheduler requests cancel.
  933. 2019/11/04 14:34:24.6386710 20752 15144 AppAU * END * Finding app updates, exit code = 0x800704C7
  934. 2019/11/04 14:34:24.6386728 20752 15144 AppAU * END *, exit code = 0x800704C7
  935. 2019/11/04 14:34:36.7203774 5084 23428 Misc CSusClientGlobal::DoServicePreShutdown
  936. 2019/11/04 14:34:36.7203831 5084 23428 IdleTimer Idle timer disabled in preparation for service shutdown
  937. 2019/11/04 14:34:36.7203919 5084 23428 Misc WUTaskManager uninit
  938. 2019/11/04 14:34:36.7203947 5084 23428 Agent Earliest future timer found:
  939. 2019/11/04 14:34:36.7204046 5084 23428 Agent Timer: 29A863E7-8609-4D1E-B7CD-5668F857F1DB, Expires 2019-11-05 15:23:02, not idle-only, not network-only
  940. 2019/11/04 14:34:36.7855408 5084 23428 Misc CreateSessionStateChangeTrigger, TYPE:2, Enable:No
  941. 2019/11/04 14:34:36.7855468 5084 23428 Misc CreateSessionStateChangeTrigger, TYPE:4, Enable:No
  942. 2019/11/04 14:34:36.8097064 5084 23428 Misc Agent uninit
  943. 2019/11/04 14:34:36.8557353 5084 23428 Agent Sending shutdown notification to client
  944. 2019/11/04 14:34:36.8586645 5084 23428 Misc Reporter uninit
  945. 2019/11/04 14:34:36.8590122 5084 23428 Misc network cost manager uninit
  946. 2019/11/04 14:34:36.8590499 5084 23428 Misc Eventer uninit
  947. 2019/11/04 14:34:36.8593182 5084 23428 Misc ServiceManager uninit
  948. 2019/11/04 14:34:36.8595157 5084 23428 Misc PersistentTimeoutScheduler uninit
  949. 2019/11/04 14:34:36.8595182 5084 23428 Misc datastore uninit
  950. 2019/11/04 14:34:36.9724485 5084 23428 Misc setting cache uninit
  951. 2019/11/04 14:34:36.9724517 5084 23428 Misc security checker uninit
  952. 2019/11/04 14:34:36.9724591 5084 23428 Misc Test Hook uninit
  953. 2019/11/04 14:34:36.9724602 5084 23428 Misc IdleTimer uninit
  954. 2019/11/04 14:34:36.9733731 5084 23428 Shared * END * Service exit Exit code = 0x240001
  955. 2019/11/04 15:04:03.5009861 5004 5500 IdleTimer Non-AoAc machine. Aoac operations will be ignored.
  956. 2019/11/04 15:04:03.5020200 5004 5500 Agent WU client version 10.0.16299.1419
  957. 2019/11/04 15:04:03.5024925 5004 5500 Agent SleepStudyTracker: Machine is non-AOAC. Sleep study tracker disabled.
  958. 2019/11/04 15:04:03.5029537 5004 5500 Agent Base directory: C:\WINDOWS\SoftwareDistribution
  959. 2019/11/04 15:04:03.5055310 5004 5500 Agent Datastore directory: C:\WINDOWS\SoftwareDistribution\DataStore\DataStore.edb
  960. 2019/11/04 15:04:03.5184766 5004 5500 DataStore JetEnableMultiInstance succeeded - applicable param count: 5, applied param count: 5
  961. 2019/11/04 15:04:03.6188890 5004 5500 Shared UpdateNetworkState Ipv6, cNetworkInterfaces = 4.
  962. 2019/11/04 15:04:03.6192553 5004 5500 Shared UpdateNetworkState Ipv4, cNetworkInterfaces = 3.
  963. 2019/11/04 15:04:03.6217279 5004 5500 Shared Network state: Connected
  964. 2019/11/04 15:04:11.3177362 5004 5500 Misc *FAILED* [8024000C] LoadHistoryEventFromRegistry completed
  965. 2019/11/04 15:04:11.3179432 5004 5500 Shared UpdateNetworkState Ipv6, cNetworkInterfaces = 4.
  966. 2019/11/04 15:04:11.3179534 5004 5500 Shared UpdateNetworkState Ipv4, cNetworkInterfaces = 4.
  967. 2019/11/04 15:04:11.3183998 5004 5500 Shared Power status changed
  968. 2019/11/04 15:04:11.3264307 5004 5500 Agent Initializing global settings cache
  969. 2019/11/04 15:04:11.3264338 5004 5500 Agent WSUS server: http://CES-MSP-WSUS-1.yourserver.com:8530
  970. 2019/11/04 15:04:11.3264367 5004 5500 Agent WSUS status server: http://CES-MSP-WSUS-1.yourserver.com:8530
  971. 2019/11/04 15:04:11.3264423 5004 5500 Agent Alternate Download Server: (null)
  972. 2019/11/04 15:04:11.3264444 5004 5500 Agent Fill Empty Content Urls: No
  973. 2019/11/04 15:04:11.3264462 5004 5500 Agent Target group: NAM Workstations
  974. 2019/11/04 15:04:11.3264483 5004 5500 Agent Windows Update access disabled: No
  975. 2019/11/04 15:04:11.3264631 5004 5500 Agent Do not connect to Windows Update Internet locations: No
  976. 2019/11/04 15:04:11.3281797 5004 5500 Agent Timer: 29A863E7-8609-4D1E-B7CD-5668F857F1DB, Expires 2019-11-05 15:23:02, not idle-only, not network-only
  977. 2019/11/04 15:04:11.3348099 5004 5500 Agent Initializing Windows Update Agent
  978. 2019/11/04 15:04:11.3353205 5004 5500 Agent CPersistentTimeoutScheduler | GetTimer, returned hr = 0x00000000
  979. 2019/11/04 15:04:14.1893690 5004 7356 DownloadManager PurgeExpiredFiles::Found 0 expired files to delete.
  980. 2019/11/04 15:04:14.1894424 5004 7356 DownloadManager PurgeExpiredUpdates::Found 7 non expired updates.
  981. 2019/11/04 15:04:14.6623991 5004 7356 DownloadManager PurgeExpiredUpdates::Found 0 expired updates.
  982. 2019/11/04 15:04:14.6656372 5004 7356 DownloadManager Received power state change notification: Old: <unknown>; New: AC.
  983. 2019/11/04 15:04:14.6656390 5004 7356 DownloadManager Power state changed from <unknown> to AC.
  984. 2019/11/04 15:09:03.8375917 5004 2132 ComApi * START * Federated Search ClientId = UpdateOrchestrator (cV: 0Z3dzkKRF0eDGMaV.0.1.0)
  985. 2019/11/04 15:09:03.8378086 5004 2132 IdleTimer WU operation (SR.UpdateOrchestrator ID 1) started; operation # 24; does use network; is not at background priority
  986. 2019/11/04 15:09:03.8382352 5004 1324 IdleTimer WU operation (SR.UpdateOrchestrator ID 1, operation # 24) stopped; does use network; is not at background priority
  987. 2019/11/04 15:09:03.8534542 5004 10052 ComApi Federated Search: Starting search against 1 service(s) (cV = 0Z3dzkKRF0eDGMaV.0.1.0)
  988. 2019/11/04 15:09:03.8535914 5004 10052 ComApi * START * Search ClientId = UpdateOrchestrator, ServiceId = 3DA21691-E39D-4DA6-8A4B-B43877BCB1B7 (cV = 0Z3dzkKRF0eDGMaV.0.1.0.0)
  989. 2019/11/04 15:09:03.8541552 5004 10052 IdleTimer WU operation (CSearchCall::Init ID 2) started; operation # 27; does use network; is at background priority
  990. 2019/11/04 15:09:03.8711256 5004 10052 Reporter OS Product Type = 0x00000004
  991. 2019/11/04 15:09:03.9264537 5004 10052 Agent * START * Queueing Finding updates [CallerId = UpdateOrchestrator Id = 2]
  992. 2019/11/04 15:09:03.9264604 5004 10052 Agent Service 3DA21691-E39D-4DA6-8A4B-B43877BCB1B7 is not in sequential scan list
  993. 2019/11/04 15:09:03.9264640 5004 10052 Agent Added service 3DA21691-E39D-4DA6-8A4B-B43877BCB1B7 to sequential scan list
  994. 2019/11/04 15:09:03.9268917 5004 3688 Agent Service 3DA21691-E39D-4DA6-8A4B-B43877BCB1B7 is in sequential scan list
  995. 2019/11/04 15:09:03.9686807 5004 6764 Agent * END * Queueing Finding updates [CallerId = UpdateOrchestrator Id = 2]
  996. 2019/11/04 15:09:03.9734202 5004 6764 Agent * START * Finding updates CallerId = UpdateOrchestrator Id = 2
  997. 2019/11/04 15:09:03.9734224 5004 6764 Agent Online = Yes; Interactive = No; AllowCachedResults = No; Ignore download priority = No
  998. 2019/11/04 15:09:03.9734283 5004 6764 Agent Criteria = IsInstalled=0 and DeploymentAction='Installation' or IsPresent=1 and DeploymentAction='Uninstallation' or IsInstalled=1 and DeploymentAction='Installation' and RebootRequired=1 or IsInstalled=0 and DeploymentAction='Uninstallation' and RebootRequired=1""
  999. 2019/11/04 15:09:03.9734315 5004 6764 Agent ServiceID = {3DA21691-E39D-4DA6-8A4B-B43877BCB1B7} Managed
  1000. 2019/11/04 15:09:03.9734326 5004 6764 Agent Search Scope = {Machine}
  1001. 2019/11/04 15:09:03.9734481 5004 6764 Agent Caller SID for Applicability: S-1-5-18
  1002. 2019/11/04 15:09:03.9734492 5004 6764 Agent ProcessDriverDeferrals is set
  1003. 2019/11/04 15:09:03.9952183 5004 6764 Agent Blocking Windows content for WUfB
  1004. 2019/11/04 15:09:04.0568692 5004 6764 Misc Got WSUS Client/Server URL: http://CES-MSP-WSUS-1.yourserver.com:8530/ClientWebService/client.asmx""
  1005. 2019/11/04 15:09:04.0944886 5004 6764 Driver Skipping printer driver 7 due to incomplete info or mismatched environment - HWID[microsoftmicrosoft_musd] Provider[Microsoft] MfgName[Microsoft] Name[Microsoft enhanced Point and Print compatibility driver] pEnvironment[Windows NT x86] LocalPrintServerEnv[Windows x64]
  1006. 2019/11/04 15:09:04.6554945 5004 6764 ProtocolTalker ServiceId = {3DA21691-E39D-4DA6-8A4B-B43877BCB1B7}, Server URL = http://CES-MSP-WSUS-1.yourserver.com:8530/ClientWebService/client.asmx
  1007. 2019/11/04 15:09:04.6555065 5004 6764 ProtocolTalker OK to reuse existing configuration
  1008. 2019/11/04 15:09:04.6555160 5004 6764 ProtocolTalker Cached cookie has expired or new PID is available
  1009. 2019/11/04 15:09:04.6816912 5004 6764 Misc Got WSUS SimpleTargeting URL: http://CES-MSP-WSUS-1.yourserver.com:8530""
  1010. 2019/11/04 15:09:04.6821704 5004 6764 IdleTimer WU operation (CAuthorizationCookieWrapper::InitializeSimpleTargetingCookie) started; operation # 28; does use network; is at background priority
  1011. 2019/11/04 15:09:04.6821739 5004 6764 ProtocolTalker Initializing simple targeting cookie, clientId = 5afedb30-145c-4fa3-81d6-3670d275b61f, target group = NAM Workstations, DNS name = userAccount-lt.yourserver.com
  1012. 2019/11/04 15:09:04.6821757 5004 6764 ProtocolTalker Server URL = http://CES-MSP-WSUS-1.yourserver.com:8530/SimpleAuthWebService/SimpleAuth.asmx
  1013. 2019/11/04 15:09:04.6821876 5004 6764 WebServices Auto proxy settings for this web service call.
  1014. 2019/11/04 15:09:04.8105865 5004 6764 IdleTimer WU operation (CAuthorizationCookieWrapper::InitializeSimpleTargetingCookie, operation # 28) stopped; does use network; is at background priority
  1015. 2019/11/04 15:09:04.8226612 5004 6764 IdleTimer WU operation (CAgentProtocolTalker::GetCookie_WithRecovery) started; operation # 29; does use network; is at background priority
  1016. 2019/11/04 15:09:04.8226834 5004 6764 WebServices Auto proxy settings for this web service call.
  1017. 2019/11/04 15:09:04.8500299 5004 6764 IdleTimer WU operation (CAgentProtocolTalker::GetCookie_WithRecovery, operation # 29) stopped; does use network; is at background priority
  1018. 2019/11/04 15:09:04.8537642 5004 6764 ProtocolTalker PTInfo: Server requested registration
  1019. 2019/11/04 15:09:04.8877074 5004 6764 Agent Update filtered by policy: 6964AAB4-C5B5-43BD-A17D-FFB4346A8E1D.100
  1020. 2019/11/04 15:09:07.1576204 5004 6764 IdleTimer WU operation (CAgentProtocolTalker::SyncUpdates_WithRecover) started; operation # 30; does use network; is at background priority
  1021. 2019/11/04 15:09:07.1832046 5004 6764 IdleTimer WU operation (CAgentProtocolTalker::SyncUpdates_WithRecover, operation # 30) stopped; does use network; is at background priority
  1022. 2019/11/04 15:09:07.1846052 5004 6764 Agent Update filtered by policy: 6964AAB4-C5B5-43BD-A17D-FFB4346A8E1D.100
  1023. 2019/11/04 15:09:07.3091024 5004 6764 IdleTimer WU operation (CAgentProtocolTalker::SyncUpdates_WithRecover) started; operation # 31; does use network; is at background priority
  1024. 2019/11/04 15:09:07.4508520 5004 6764 IdleTimer WU operation (CAgentProtocolTalker::SyncUpdates_WithRecover, operation # 31) stopped; does use network; is at background priority
  1025. 2019/11/04 15:09:07.4508651 5004 6764 ProtocolTalker SyncUpdates round trips: 2
  1026. 2019/11/04 15:09:07.4615910 5004 6764 Agent Update filtered by policy: 6964AAB4-C5B5-43BD-A17D-FFB4346A8E1D.100
  1027. 2019/11/04 15:09:07.4680869 5004 6764 Agent Update filtered by policy: 6964AAB4-C5B5-43BD-A17D-FFB4346A8E1D.100
  1028. 2019/11/04 15:09:07.5095170 5004 6764 Agent Found 0 updates and 86 categories in search; evaluated appl. rules of 350 out of 771 deployed entities
  1029. 2019/11/04 15:09:07.6040498 5004 6764 Agent * END * Finding updates CallerId = UpdateOrchestrator Id = 2
  1030. 2019/11/04 15:09:07.6107386 5004 6764 IdleTimer WU operation (CSearchCall::Init ID 2, operation # 27) stopped; does use network; is at background priority
  1031. 2019/11/04 15:09:07.6190628 5004 6332 ComApi *RESUMED* Search ClientId = UpdateOrchestrator, ServiceId = 3DA21691-E39D-4DA6-8A4B-B43877BCB1B7 (cV = 0Z3dzkKRF0eDGMaV.0.1.0.0)
  1032. 2019/11/04 15:09:07.6209691 5004 6332 ComApi * END * Search ClientId = UpdateOrchestrator, Updates found = 0, ServiceId = 3DA21691-E39D-4DA6-8A4B-B43877BCB1B7 (cV = 0Z3dzkKRF0eDGMaV.0.1.0.0)
  1033. 2019/11/04 15:09:07.6214306 5004 10052 ComApi * END * All federated searches have completed. Jobs = 1, Succeeded = 1, ClientId = UpdateOrchestrator (cV = 0Z3dzkKRF0eDGMaV.0.1.0)
  1034. 2019/11/04 15:09:07.6251730 5004 2132 ComApi * START * Federated Search ClientId = UpdateOrchestrator (cV: SUhRmAjXZkuYzPNW.0.1.0)
  1035. 2019/11/04 15:09:07.6254642 5004 2132 IdleTimer WU operation (SR.UpdateOrchestrator ID 3) started; operation # 38; does use network; is not at background priority
  1036. 2019/11/04 15:09:07.6256627 5004 1324 Agent Processing auto/pending service registrations and recovery.
  1037. 2019/11/04 15:09:07.7177882 5004 1324 IdleTimer WU operation (SR.UpdateOrchestrator ID 3, operation # 38) stopped; does use network; is not at background priority
  1038. 2019/11/04 15:09:07.7290413 5004 1048 ComApi Federated Search: Starting search against 2 service(s) (cV = SUhRmAjXZkuYzPNW.0.1.0)
  1039. 2019/11/04 15:09:07.7292977 5004 1048 ComApi * START * Search ClientId = UpdateOrchestrator, ServiceId = 7971F918-A847-4430-9279-4A52D1EFE18D (cV = SUhRmAjXZkuYzPNW.0.1.0.0)
  1040. 2019/11/04 15:09:07.7298629 5004 1048 IdleTimer WU operation (CSearchCall::Init ID 4) started; operation # 41; does use network; is at background priority
  1041. 2019/11/04 15:09:07.7548437 5004 1048 Agent * START * Queueing Finding updates [CallerId = UpdateOrchestrator Id = 4]
  1042. 2019/11/04 15:09:07.7548504 5004 1048 Agent Service 7971F918-A847-4430-9279-4A52D1EFE18D is not in sequential scan list
  1043. 2019/11/04 15:09:07.7548564 5004 1048 Agent Added service 7971F918-A847-4430-9279-4A52D1EFE18D to sequential scan list
  1044. 2019/11/04 15:09:07.7550119 5004 1048 ComApi * START * Search ClientId = UpdateOrchestrator, ServiceId = 8B24B027-1DEE-BABB-9A95-3517DFB9C552 (cV = SUhRmAjXZkuYzPNW.0.1.0.0)
  1045. 2019/11/04 15:09:07.7550719 5004 3688 Agent Service 7971F918-A847-4430-9279-4A52D1EFE18D is in sequential scan list
  1046. 2019/11/04 15:09:07.7554421 5004 1048 IdleTimer WU operation (CSearchCall::Init ID 5) started; operation # 44; does use network; is at background priority
  1047. 2019/11/04 15:09:07.7624380 5004 2560 Agent * END * Queueing Finding updates [CallerId = UpdateOrchestrator Id = 4]
  1048. 2019/11/04 15:09:07.7692672 5004 2560 Agent * START * Finding updates CallerId = UpdateOrchestrator Id = 4
  1049. 2019/11/04 15:09:07.7692693 5004 2560 Agent Online = Yes; Interactive = No; AllowCachedResults = No; Ignore download priority = No
  1050. 2019/11/04 15:09:07.7692725 5004 2560 Agent Criteria = IsInstalled=0 and DeploymentAction='Installation' or IsPresent=1 and DeploymentAction='Uninstallation' or IsInstalled=1 and DeploymentAction='Installation' and RebootRequired=1 or IsInstalled=0 and DeploymentAction='Uninstallation' and RebootRequired=1""
  1051. 2019/11/04 15:09:07.7692753 5004 2560 Agent ServiceID = {7971F918-A847-4430-9279-4A52D1EFE18D} Third party service
  1052. 2019/11/04 15:09:07.7692764 5004 2560 Agent Search Scope = {Machine}
  1053. 2019/11/04 15:09:07.7692792 5004 2560 Agent Caller SID for Applicability: S-1-5-18
  1054. 2019/11/04 15:09:07.7692806 5004 2560 Agent ProcessDriverDeferrals is set
  1055. 2019/11/04 15:09:07.7966839 5004 1048 Agent * START * Queueing Finding updates [CallerId = UpdateOrchestrator Id = 5]
  1056. 2019/11/04 15:09:07.7967100 5004 1048 Agent Service 8B24B027-1DEE-BABB-9A95-3517DFB9C552 is not in sequential scan list
  1057. 2019/11/04 15:09:07.7967139 5004 1048 Agent Added service 8B24B027-1DEE-BABB-9A95-3517DFB9C552 to sequential scan list
  1058. 2019/11/04 15:09:07.8558576 5004 2560 Misc Got 7971F918-A847-4430-9279-4A52D1EFE18D redir Client/Server URL: https://fe2.update.microsoft.com/v6/ClientWebService/client.asmx""
  1059. 2019/11/04 15:09:08.8910637 5004 2560 ProtocolTalker ServiceId = {7971F918-A847-4430-9279-4A52D1EFE18D}, Server URL = https://fe2.update.microsoft.com/v6/ClientWebService/client.asmx
  1060. 2019/11/04 15:09:08.8910735 5004 2560 ProtocolTalker OK to reuse existing configuration
  1061. 2019/11/04 15:09:08.8910760 5004 2560 ProtocolTalker Existing cookie is valid, just use it
  1062. 2019/11/04 15:09:13.3264296 5004 2560 IdleTimer WU operation (CAgentProtocolTalker::SyncUpdates_WithRecover) started; operation # 45; does use network; is at background priority
  1063. 2019/11/04 15:09:13.3264395 5004 2560 WebServices Auto proxy settings for this web service call.
  1064. 2019/11/04 15:09:13.6046746 5004 2560 IdleTimer WU operation (CAgentProtocolTalker::SyncUpdates_WithRecover, operation # 45) stopped; does use network; is at background priority
  1065. 2019/11/04 15:09:13.6047695 5004 2560 ProtocolTalker SyncUpdates - 0 bad out of 0 metadata signatures checked using Audit enforcement mode.
  1066. 2019/11/04 15:09:15.5287385 5004 2560 ProtocolTalker Skipping driver sync because it's not supported.
  1067. 2019/11/04 15:09:15.5287406 5004 2560 ProtocolTalker SyncUpdates round trips: 1
  1068. 2019/11/04 15:09:22.9205908 5004 2560 ProtocolTalker ServiceId = {7971F918-A847-4430-9279-4A52D1EFE18D}, Server URL = https://fe2.update.microsoft.com/v6/ClientWebService/client.asmx
  1069. 2019/11/04 15:09:22.9205936 5004 2560 ProtocolTalker OK to reuse existing configuration
  1070. 2019/11/04 15:09:22.9205968 5004 2560 ProtocolTalker Existing cookie is valid, just use it
  1071. 2019/11/04 15:09:22.9206073 5004 2560 IdleTimer WU operation (CAgentProtocolTalker::GetExtendedUpdateInfo_WithRecovery) started; operation # 46; does use network; is at background priority
  1072. 2019/11/04 15:09:23.0242038 5004 2560 IdleTimer WU operation (CAgentProtocolTalker::GetExtendedUpdateInfo_WithRecovery, operation # 46) stopped; does use network; is at background priority
  1073. 2019/11/04 15:09:23.0490457 5004 2560 Metadata Enforcement Mode: Unknown => Audit
  1074. 2019/11/04 15:09:23.0490475 5004 2560 Metadata TimestampToken Validity: 0 => 90 (days)
  1075. 2019/11/04 15:09:23.0490485 5004 2560 Metadata Using mode: Audit, validity: 90
  1076. 2019/11/04 15:09:23.0584758 5004 2560 ProtocolTalker SyncExtendedUpdateInfo - 0 bad out of 11 metadata signatures checked using Audit enforcement mode.
  1077. 2019/11/04 15:09:23.0623422 5004 2560 DownloadManager *FAILED* [80240008] Failed to lock the revision for the update B9271F09-68F6-4AF6-A188-340D1C9AD7CC.200 (SessionData = (null))
  1078. 2019/11/04 15:09:23.0623556 5004 2560 DownloadManager *FAILED* [80240008] Failed to lock the revision for the update 1971370B-AA59-4AD3-8230-2364FD01E334.200 (SessionData = (null))
  1079. 2019/11/04 15:09:23.0623672 5004 2560 DownloadManager *FAILED* [80240008] Failed to lock the revision for the update 552ED211-EFA6-44A1-B02B-FAF391E5A722.200 (SessionData = (null))
  1080. 2019/11/04 15:09:23.0623817 5004 2560 DownloadManager *FAILED* [80240008] Failed to lock the revision for the update CA3BB521-A8EA-4E26-A563-2AD6E3108B9A.200 (SessionData = (null))
  1081. 2019/11/04 15:09:23.0624131 5004 2560 DownloadManager *FAILED* [80240008] Failed to lock the revision for the update 81E92824-528F-4583-B074-406D9ED8701B.200 (SessionData = (null))
  1082. 2019/11/04 15:09:23.0624254 5004 2560 DownloadManager *FAILED* [80240008] Failed to lock the revision for the update 547D2F41-089B-448F-9265-79579EC92F80.200 (SessionData = (null))
  1083. 2019/11/04 15:09:23.0624434 5004 2560 DownloadManager *FAILED* [80240008] Failed to lock the revision for the update DDB74579-7A1F-4D1F-80C8-E8647055314E.200 (SessionData = (null))
  1084. 2019/11/04 15:09:23.0624632 5004 2560 DownloadManager *FAILED* [80240008] Failed to lock the revision for the update 5AF4FF91-E9A7-45B3-841F-AE886BB3C658.201 (SessionData = (null))
  1085. 2019/11/04 15:09:23.0624843 5004 2560 DownloadManager *FAILED* [80240008] Failed to lock the revision for the update BA0E8D95-DAC1-4211-A96E-DB1B32DEECE8.200 (SessionData = (null))
  1086. 2019/11/04 15:09:23.0624967 5004 2560 DownloadManager *FAILED* [80240008] Failed to lock the revision for the update 29A16CC3-ADC5-45CD-99B0-50398E334137.200 (SessionData = (null))
  1087. 2019/11/04 15:09:23.0625086 5004 2560 DownloadManager *FAILED* [80240008] Failed to lock the revision for the update 95B42BE3-50BA-4AD2-908B-AF3F10304827.201 (SessionData = (null))
  1088. 2019/11/04 15:09:24.6814965 5004 2560 DownloadManager Download Manager got out of scope notification for the service 7971F918-A847-4430-9279-4A52D1EFE18D.
  1089. 2019/11/04 15:09:24.7339526 5004 2560 DownloadManager *FAILED* [80240008] Failed to lock the revision for the update 3913A469-BC28-4701-9A2B-4950694A2FE0.200 (SessionData = (null))
  1090. 2019/11/04 15:09:24.7340943 5004 2560 Agent Update 5AF4FF91-E9A7-45B3-841F-AE886BB3C658.201 is pruned out due to potential supersedence
  1091. 2019/11/04 15:09:24.7340968 5004 2560 Agent Update 81E92824-528F-4583-B074-406D9ED8701B.200 is pruned out due to potential supersedence
  1092. 2019/11/04 15:09:24.7340996 5004 2560 Agent Update 95B42BE3-50BA-4AD2-908B-AF3F10304827.201 is pruned out due to potential supersedence
  1093. 2019/11/04 15:09:24.7341021 5004 2560 Agent Update 547D2F41-089B-448F-9265-79579EC92F80.200 is pruned out due to potential supersedence
  1094. 2019/11/04 15:09:24.7341045 5004 2560 Agent Update B9271F09-68F6-4AF6-A188-340D1C9AD7CC.200 is pruned out due to potential supersedence
  1095. 2019/11/04 15:09:24.7341074 5004 2560 Agent Update 29A16CC3-ADC5-45CD-99B0-50398E334137.200 is pruned out due to potential supersedence
  1096. 2019/11/04 15:09:24.7341232 5004 2560 Agent Update 1971370B-AA59-4AD3-8230-2364FD01E334.200 is pruned out due to potential supersedence
  1097. 2019/11/04 15:09:24.7341257 5004 2560 Agent Update BA0E8D95-DAC1-4211-A96E-DB1B32DEECE8.200 is pruned out due to potential supersedence
  1098. 2019/11/04 15:09:24.7341285 5004 2560 Agent Update 552ED211-EFA6-44A1-B02B-FAF391E5A722.200 is pruned out due to potential supersedence
  1099. 2019/11/04 15:09:24.7341310 5004 2560 Agent Update DDB74579-7A1F-4D1F-80C8-E8647055314E.200 is pruned out due to potential supersedence
  1100. 2019/11/04 15:09:24.7341373 5004 2560 Agent Added update CA3BB521-A8EA-4E26-A563-2AD6E3108B9A.200 to search result
  1101. 2019/11/04 15:09:24.7341419 5004 2560 Agent Added update 5BB32ECE-7C8C-4F07-ACE1-7BA1D36736A1.201 to search result
  1102. 2019/11/04 15:09:24.7341454 5004 2560 Agent Added update A6BE3D51-9C4D-4CB2-B774-EF0560AACC93.200 to search result
  1103. 2019/11/04 15:09:24.7341867 5004 2560 Agent Found 0 updates and 103 categories in search; evaluated appl. rules of 2045 out of 2544 deployed entities
  1104. 2019/11/04 15:09:24.8248573 5004 2560 Agent * END * Finding updates CallerId = UpdateOrchestrator Id = 4
  1105. 2019/11/04 15:09:24.8269275 5004 2560 IdleTimer WU operation (CSearchCall::Init ID 4, operation # 41) stopped; does use network; is at background priority
  1106. 2019/11/04 15:09:24.8273429 5004 3688 Agent Service 8B24B027-1DEE-BABB-9A95-3517DFB9C552 is in sequential scan list
  1107. 2019/11/04 15:09:24.8322154 5004 9944 Agent * END * Queueing Finding updates [CallerId = UpdateOrchestrator Id = 5]
  1108. 2019/11/04 15:09:24.8361904 5004 9944 Agent * START * Finding updates CallerId = UpdateOrchestrator Id = 5
  1109. 2019/11/04 15:09:24.8361925 5004 9944 Agent Online = Yes; Interactive = No; AllowCachedResults = No; Ignore download priority = No
  1110. 2019/11/04 15:09:24.8361954 5004 9944 Agent Criteria = IsInstalled=0 and DeploymentAction='Installation' or IsPresent=1 and DeploymentAction='Uninstallation' or IsInstalled=1 and DeploymentAction='Installation' and RebootRequired=1 or IsInstalled=0 and DeploymentAction='Uninstallation' and RebootRequired=1""
  1111. 2019/11/04 15:09:24.8361985 5004 9944 Agent ServiceID = {8B24B027-1DEE-BABB-9A95-3517DFB9C552} Third party service
  1112. 2019/11/04 15:09:24.8361992 5004 9944 Agent Search Scope = {Machine}
  1113. 2019/11/04 15:09:24.8362052 5004 9944 Agent Caller SID for Applicability: S-1-5-18
  1114. 2019/11/04 15:09:24.8362066 5004 9944 Agent ProcessDriverDeferrals is set
  1115. 2019/11/04 15:09:24.8375642 5004 1556 ComApi *RESUMED* Search ClientId = UpdateOrchestrator, ServiceId = 7971F918-A847-4430-9279-4A52D1EFE18D (cV = SUhRmAjXZkuYzPNW.0.1.0.0)
  1116. 2019/11/04 15:09:24.8379376 5004 1556 ComApi * END * Search ClientId = UpdateOrchestrator, Updates found = 0, ServiceId = 7971F918-A847-4430-9279-4A52D1EFE18D (cV = SUhRmAjXZkuYzPNW.0.1.0.0)
  1117. 2019/11/04 15:09:24.9059956 5004 9944 Misc Got 8B24B027-1DEE-BABB-9A95-3517DFB9C552 redir Client/Server URL: https://fe3.delivery.mp.microsoft.com/ClientWebService/client.asmx""
  1118. 2019/11/04 15:09:24.9381627 5004 9944 Misc Token Requested with 0 category IDs.
  1119. 2019/11/04 15:09:24.9658538 5004 9944 Misc Device tickets obtained as Local System
  1120. 2019/11/04 15:09:24.9665202 5004 9944 Misc Acquired new token from Server
  1121. 2019/11/04 15:09:24.9665953 5004 9944 Misc Got service 8B24B027-1DEE-BABB-9A95-3517DFB9C552 plugin Client/Server auth token of type 0x00000001
  1122. 2019/11/04 15:09:25.0218709 5004 9944 Driver Skipping printer driver 7 due to incomplete info or mismatched environment - HWID[microsoftmicrosoft_musd] Provider[Microsoft] MfgName[Microsoft] Name[Microsoft enhanced Point and Print compatibility driver] pEnvironment[Windows NT x86] LocalPrintServerEnv[Windows x64]
  1123. 2019/11/04 15:09:25.4136104 5004 9944 ProtocolTalker ServiceId = {8B24B027-1DEE-BABB-9A95-3517DFB9C552}, Server URL = https://fe3.delivery.mp.microsoft.com/ClientWebService/client.asmx
  1124. 2019/11/04 15:09:25.4151111 5004 9944 ProtocolTalker OK to reuse existing configuration
  1125. 2019/11/04 15:09:25.4151164 5004 9944 ProtocolTalker Existing cookie is valid, just use it
  1126. 2019/11/04 15:09:25.4182716 5004 9944 Agent Service supports deferral, but still sends down deferred update 8B105828-2E9A-408F-8619-C2630E7231AE.1 unexpectedly. Update is not deferred anymore.
  1127. 2019/11/04 15:09:25.5199738 5004 9944 IdleTimer WU operation (CAgentProtocolTalker::SyncUpdates_WithRecover) started; operation # 47; does use network; is at background priority
  1128. 2019/11/04 15:09:25.5199886 5004 9944 WebServices Auto proxy settings for this web service call.
  1129. 2019/11/04 15:09:25.8760721 5004 9944 IdleTimer WU operation (CAgentProtocolTalker::SyncUpdates_WithRecover, operation # 47) stopped; does use network; is at background priority
  1130. 2019/11/04 15:09:25.8765820 5004 9944 Agent Service supports deferral, but still sends down deferred update 8B105828-2E9A-408F-8619-C2630E7231AE.1 unexpectedly. Update is not deferred anymore.
  1131. 2019/11/04 15:09:25.9341182 5004 9944 IdleTimer WU operation (CAgentProtocolTalker::SyncUpdates_WithRecover) started; operation # 48; does use network; is at background priority
  1132. 2019/11/04 15:09:26.2882204 5004 9944 IdleTimer WU operation (CAgentProtocolTalker::SyncUpdates_WithRecover, operation # 48) stopped; does use network; is at background priority
  1133. 2019/11/04 15:09:26.2886625 5004 9944 ProtocolTalker SyncUpdates - 0 bad out of 0 metadata signatures checked using Audit enforcement mode.
  1134. 2019/11/04 15:09:26.7947374 5004 9944 ProtocolTalker SyncUpdates round trips: 2
  1135. 2019/11/04 15:09:26.8302509 5004 9944 Agent Service supports deferral, but still sends down deferred update 8B105828-2E9A-408F-8619-C2630E7231AE.1 unexpectedly. Update is not deferred anymore.
  1136. 2019/11/04 15:09:26.8310662 5004 9944 Agent Service supports deferral, but still sends down deferred update 8B105828-2E9A-408F-8619-C2630E7231AE.1 unexpectedly. Update is not deferred anymore.
  1137. 2019/11/04 15:09:26.8832193 5004 9944 DownloadManager Download Manager got out of scope notification for the service 8B24B027-1DEE-BABB-9A95-3517DFB9C552.
  1138. 2019/11/04 15:09:26.9728733 5004 9944 Agent Added update 8B105828-2E9A-408F-8619-C2630E7231AE.1 to search result
  1139. 2019/11/04 15:09:26.9728888 5004 9944 Agent Service supports deferral, but still sends down deferred update 8B105828-2E9A-408F-8619-C2630E7231AE.1 unexpectedly. Update is not deferred anymore.
  1140. 2019/11/04 15:09:26.9728931 5004 9944 Agent Skip FilterUnreadyOSUpgrades because support deferral, but not pause = {8B105828-2E9A-408F-8619-C2630E7231AE}.1
  1141. 2019/11/04 15:09:26.9728948 5004 9944 Agent Found 1 updates and 7 categories in search; evaluated appl. rules of 24 out of 53 deployed entities
  1142. 2019/11/04 15:09:27.0811811 5004 9944 Agent * END * Finding updates CallerId = UpdateOrchestrator Id = 5
  1143. 2019/11/04 15:09:27.0831773 5004 9944 IdleTimer WU operation (CSearchCall::Init ID 5, operation # 44) stopped; does use network; is at background priority
  1144. 2019/11/04 15:09:27.0875804 5004 9984 ComApi *RESUMED* Search ClientId = UpdateOrchestrator, ServiceId = 8B24B027-1DEE-BABB-9A95-3517DFB9C552 (cV = SUhRmAjXZkuYzPNW.0.1.0.0)
  1145. 2019/11/04 15:09:27.1469407 5004 9984 ComApi * END * Search ClientId = UpdateOrchestrator, Updates found = 1, ServiceId = 8B24B027-1DEE-BABB-9A95-3517DFB9C552 (cV = SUhRmAjXZkuYzPNW.0.1.0.0)
  1146. 2019/11/04 15:09:27.1472514 5004 1048 ComApi * END * All federated searches have completed. Jobs = 2, Succeeded = 2, ClientId = UpdateOrchestrator (cV = SUhRmAjXZkuYzPNW.0.1.0)
  1147. 2019/11/04 15:09:27.5467675 5004 2132 ComApi * START * Federated Download ClientId = UpdateOrchestrator (cV = nDOIK55aZEmpcq0p.1.0)
  1148. 2019/11/04 15:09:27.5469868 5004 4532 ComApi Federated Download: Starting download for 1 service(s) (cV = nDOIK55aZEmpcq0p.1.0)
  1149. 2019/11/04 15:09:27.5470749 5004 4532 ComApi * START * Download ClientId = UpdateOrchestrator
  1150. 2019/11/04 15:09:27.5470767 5004 4532 ComApi Flags: 0X9000; Download priority: 2; Network Cost Policy: 0
  1151. 2019/11/04 15:09:27.5470774 5004 4532 ComApi Updates in request: 1
  1152. 2019/11/04 15:09:27.5470848 5004 4532 ComApi ServiceID = {8B24B027-1DEE-BABB-9A95-3517DFB9C552} Third party service
  1153. 2019/11/04 15:09:27.5781349 5004 4532 DownloadManager Subscribing to heartbeat event.
  1154. 2019/11/04 15:09:27.5802735 5004 4532 ComApi *QUEUED* Download ClientId = UpdateOrchestrator
  1155. 2019/11/04 15:09:27.5802746 5004 7356 Agent Effective power state: AC; IsOnAC: Yes.
  1156. 2019/11/04 15:09:27.5802823 5004 7356 IdleTimer WU operation (DL.UpdateOrchestrator) started; operation # 65; does use network; is at background priority
  1157. 2019/11/04 15:09:27.5802855 5004 7356 Agent Obtained a network PDC reference for callID {DFCD826D-E6D1-4F18-B752-34653AD2E215} with No-Progress-Timeout set to 4294967295; ActivationID: 65.
  1158. 2019/11/04 15:09:27.5806688 5004 7356 DownloadManager * START * Begin Downloading Updates [CallerId = UpdateOrchestrator] [Call ID = DFCD826D-E6D1-4F18-B752-34653AD2E215]
  1159. 2019/11/04 15:09:27.5806758 5004 7356 DownloadManager Priority = 2, NetworkCostPolicy = 0, Interactive = 0, Download on Battery = 0, Bypass Regulation = 0, Owner is system = 1, Proxy session id = -1, ServiceId = 8B24B027-1DEE-BABB-9A95-3517DFB9C552.
  1160. 2019/11/04 15:09:27.5806769 5004 7356 DownloadManager Updates to download = 1
  1161. 2019/11/04 15:09:27.5806787 5004 7356 Agent Title = Feature update to Windows 10, version 1803 x64 2019-10B
  1162. 2019/11/04 15:09:27.5806998 5004 7356 Agent UpdateId = 8B105828-2E9A-408F-8619-C2630E7231AE.1
  1163. 2019/11/04 15:09:27.5807640 5004 7356 DownloadManager Regulation: {8B24B027-1DEE-BABB-9A95-3517DFB9C552} - Loaded sequence number 65535 for regulation category PerUpdate.
  1164. 2019/11/04 15:09:27.5807658 5004 7356 DownloadManager Regulation: {8B24B027-1DEE-BABB-9A95-3517DFB9C552} - Loaded sequence number 65535 for regulation category Low.
  1165. 2019/11/04 15:09:27.5807675 5004 7356 DownloadManager Regulation: {8B24B027-1DEE-BABB-9A95-3517DFB9C552} - Loaded sequence number 65535 for regulation category Normal.
  1166. 2019/11/04 15:09:27.5807693 5004 7356 DownloadManager Regulation: {8B24B027-1DEE-BABB-9A95-3517DFB9C552} - Loaded sequence number 65535 for regulation category High.
  1167. 2019/11/04 15:09:27.5807968 5004 7356 DownloadManager Regulation Refresh Svc: {8B24B027-1DEE-BABB-9A95-3517DFB9C552}
  1168. 2019/11/04 15:09:27.5810990 5004 7356 DownloadManager Contacting regulation server for 1 updates.
  1169. 2019/11/04 15:09:27.5811036 5004 7356 IdleTimer WU operation (Regulator Refresh) started; operation # 66; does use network; is at background priority
  1170. 2019/11/04 15:09:27.6001304 5004 7356 Misc Got 8B24B027-1DEE-BABB-9A95-3517DFB9C552 redir Regulation (Enhanced) URL: https://tsfe.trafficshaping.dsp.mp.microsoft.com/TrafficShaping/ContentRegulation.asmx""
  1171. 2019/11/04 15:09:27.6002397 5004 7356 DownloadManager Regulation (Enhanced) server path: https://tsfe.trafficshaping.dsp.mp.microsoft.com/TrafficShaping/ContentRegulation.asmx.
  1172. 2019/11/04 15:09:27.6190089 5004 7356 WebServices Auto proxy settings for this web service call.
  1173. 2019/11/04 15:09:27.8305387 5004 7356 IdleTimer WU operation (Regulator Refresh, operation # 66) stopped; does use network; is at background priority
  1174. 2019/11/04 15:09:27.8305425 5004 7356 DownloadManager Refresh Interval: 82
  1175. 2019/11/04 15:09:27.8305443 5004 7356 DownloadManager Global CDN property: (null)
  1176. 2019/11/04 15:09:27.8305461 5004 7356 DownloadManager Low: 10000
  1177. 2019/11/04 15:09:27.8305471 5004 7356 DownloadManager Normal: 10000
  1178. 2019/11/04 15:09:27.8305482 5004 7356 DownloadManager High: 10000
  1179. 2019/11/04 15:09:27.8305602 5004 7356 DownloadManager Per-Update: 8B105828-2E9A-408F-8619-C2630E7231AE CDN prefix 11
  1180. 2019/11/04 15:09:27.8305669 5004 7356 Agent Adding timer:
  1181. 2019/11/04 15:09:27.8305722 5004 7356 Agent Timer: 8B24B027-1DEE-BABB-9A95-3517DFB9C552, Expires 2019-11-04 22:31:27, not idle-only, network-only
  1182. 2019/11/04 15:09:27.8405198 5004 7356 DownloadManager Regulation call complete
  1183. 2019/11/04 15:09:27.8811583 5004 7356 DownloadManager Regulation: {8B24B027-1DEE-BABB-9A95-3517DFB9C552} - Generated sequence number 748 for regulation category Normal.
  1184. 2019/11/04 15:09:27.8812813 5004 7356 DownloadManager Regulation: {8B24B027-1DEE-BABB-9A95-3517DFB9C552} - Generated sequence number 3187 for regulation category PerUpdate.
  1185. 2019/11/04 15:09:28.1900609 5004 7356 DownloadManager Queueing update 8B105828-2E9A-408F-8619-C2630E7231AE.1 for download handler request generation.
  1186. 2019/11/04 15:09:28.8402349 5004 7356 DownloadManager Dynamic download data fetcher for ServiceId 8B24B027-1DEE-BABB-9A95-3517DFB9C552 does not exist.
  1187. 2019/11/04 15:09:28.8406496 5004 7356 Agent Effective power state: AC; IsOnAC: Yes.
  1188. 2019/11/04 15:09:28.8406739 5004 7356 IdleTimer WU operation (DL.UpdateOrchestrator, operation # 65) stopped; does use network; is at background priority
  1189. 2019/11/04 15:09:28.8406778 5004 7356 Agent Released network PDC reference for callId {DFCD826D-E6D1-4F18-B752-34653AD2E215}; ActivationID: 65
  1190. 2019/11/04 15:09:28.8406835 5004 7356 IdleTimer WU operation (DL.UpdateOrchestrator) started; operation # 67; does use network; is at background priority
  1191. 2019/11/04 15:09:28.8406873 5004 7356 Agent Obtained a network PDC reference for callID {DFCD826D-E6D1-4F18-B752-34653AD2E215} with No-Progress-Timeout set to 4294967295; ActivationID: 67.
  1192. 2019/11/04 15:09:28.8409991 5004 2264 Agent WU client calls back to download call {DFCD826D-E6D1-4F18-B752-34653AD2E215} with code Call progress and error 0
  1193. 2019/11/04 15:09:28.8429571 5004 7356 DownloadManager * END * Begin Downloading Updates CallerId = UpdateOrchestrator
  1194. 2019/11/04 15:09:28.8686524 5004 2144 DownloadManager Generating download request for update 8B105828-2E9A-408F-8619-C2630E7231AE.1.
  1195. 2019/11/04 15:09:28.8829429 5004 2144 DownloadManager Calling into handler 0xc to generate download request for update 8B105828-2E9A-408F-8619-C2630E7231AE.1.
  1196. 2019/11/04 15:09:29.0586221 5004 2236 Misc Validating signature for C:\WINDOWS\SoftwareDistribution\Download\2f4da76e4452e1cb904effc540ae65e1\DesktopDeployment.cab with dwProvFlags 0x00000080:
  1197. 2019/11/04 15:09:29.6745531 5004 2236 Misc Microsoft signed: Yes
  1198. 2019/11/04 15:09:29.7772219 5004 2236 Handler Using the update's service stack dll file 'C:\WINDOWS\SoftwareDistribution\Download\2f4da76e4452e1cb904effc540ae65e1\Metadata\UpdateAgent.dll'
  1199. 2019/11/04 15:09:29.9000473 5004 2144 Handler UUP GDR: Event Fired: TimeOut
  1200. 2019/11/04 15:09:29.9000603 5004 2144 DownloadManager GenerateDownloadRequest returned WU_E_OPERATIONINPROGRESS for update 8B105828-2E9A-408F-8619-C2630E7231AE.1.
  1201. 2019/11/04 15:09:58.4940921 5004 7356 DownloadManager Dynamic download data fetcher for ServiceId 8B24B027-1DEE-BABB-9A95-3517DFB9C552 does not exist.
  1202. 2019/11/04 15:09:59.4746741 5004 7356 DownloadManager Dynamic download data fetcher for ServiceId 8B24B027-1DEE-BABB-9A95-3517DFB9C552 does not exist.
  1203. 2019/11/04 15:10:00.4886388 5004 7356 DownloadManager Dynamic download data fetcher for ServiceId 8B24B027-1DEE-BABB-9A95-3517DFB9C552 does not exist.
  1204. 2019/11/04 15:10:01.5085596 5004 7356 DownloadManager Dynamic download data fetcher for ServiceId 8B24B027-1DEE-BABB-9A95-3517DFB9C552 does not exist.
  1205. 2019/11/04 15:10:02.5347732 5004 7356 DownloadManager Dynamic download data fetcher for ServiceId 8B24B027-1DEE-BABB-9A95-3517DFB9C552 does not exist.
  1206. 2019/11/04 15:10:03.5487668 5004 7356 DownloadManager Dynamic download data fetcher for ServiceId 8B24B027-1DEE-BABB-9A95-3517DFB9C552 does not exist.
  1207. 2019/11/04 15:10:04.5607826 5004 7356 DownloadManager Dynamic download data fetcher for ServiceId 8B24B027-1DEE-BABB-9A95-3517DFB9C552 does not exist.
  1208. 2019/11/04 15:10:05.5828755 5004 7356 DownloadManager Dynamic download data fetcher for ServiceId 8B24B027-1DEE-BABB-9A95-3517DFB9C552 does not exist.
  1209. 2019/11/04 15:10:05.6564741 5004 7356 DownloadManager Dynamic download data fetcher for ServiceId 8B24B027-1DEE-BABB-9A95-3517DFB9C552 does not exist.
  1210. 2019/11/04 15:10:06.6123638 5004 7356 DownloadManager Dynamic download data fetcher for ServiceId 8B24B027-1DEE-BABB-9A95-3517DFB9C552 does not exist.
  1211. 2019/11/04 15:10:07.6368583 5004 7356 DownloadManager Dynamic download data fetcher for ServiceId 8B24B027-1DEE-BABB-9A95-3517DFB9C552 does not exist.
  1212. 2019/11/04 15:10:08.6547159 5004 7356 DownloadManager Dynamic download data fetcher for ServiceId 8B24B027-1DEE-BABB-9A95-3517DFB9C552 does not exist.
  1213. 2019/11/04 15:10:08.7214096 5004 7356 DownloadManager Dynamic download data fetcher for ServiceId 8B24B027-1DEE-BABB-9A95-3517DFB9C552 does not exist.
  1214. 2019/11/04 15:10:09.6971474 5004 7356 DownloadManager Dynamic download data fetcher for ServiceId 8B24B027-1DEE-BABB-9A95-3517DFB9C552 does not exist.
  1215. 2019/11/04 15:10:10.6833298 5004 7356 DownloadManager Dynamic download data fetcher for ServiceId 8B24B027-1DEE-BABB-9A95-3517DFB9C552 does not exist.
  1216. 2019/11/04 15:10:11.7154789 5004 7356 DownloadManager Dynamic download data fetcher for ServiceId 8B24B027-1DEE-BABB-9A95-3517DFB9C552 does not exist.
  1217. 2019/11/04 15:10:12.7227809 5004 7356 DownloadManager Dynamic download data fetcher for ServiceId 8B24B027-1DEE-BABB-9A95-3517DFB9C552 does not exist.
  1218. 2019/11/04 15:10:13.7352386 5004 7356 DownloadManager Dynamic download data fetcher for ServiceId 8B24B027-1DEE-BABB-9A95-3517DFB9C552 does not exist.
  1219. 2019/11/04 15:10:14.7674572 5004 7356 DownloadManager Dynamic download data fetcher for ServiceId 8B24B027-1DEE-BABB-9A95-3517DFB9C552 does not exist.
  1220. 2019/11/04 15:10:15.7652110 5004 7356 DownloadManager Dynamic download data fetcher for ServiceId 8B24B027-1DEE-BABB-9A95-3517DFB9C552 does not exist.
  1221. 2019/11/04 15:10:16.7808045 5004 7356 DownloadManager Dynamic download data fetcher for ServiceId 8B24B027-1DEE-BABB-9A95-3517DFB9C552 does not exist.
  1222. 2019/11/04 15:10:17.7998638 5004 7356 DownloadManager Dynamic download data fetcher for ServiceId 8B24B027-1DEE-BABB-9A95-3517DFB9C552 does not exist.
  1223. 2019/11/04 15:10:18.8111842 5004 7356 DownloadManager Dynamic download data fetcher for ServiceId 8B24B027-1DEE-BABB-9A95-3517DFB9C552 does not exist.
  1224. 2019/11/04 15:10:19.8324164 5004 7356 DownloadManager Dynamic download data fetcher for ServiceId 8B24B027-1DEE-BABB-9A95-3517DFB9C552 does not exist.
  1225. 2019/11/04 15:10:20.8472651 5004 7356 DownloadManager Dynamic download data fetcher for ServiceId 8B24B027-1DEE-BABB-9A95-3517DFB9C552 does not exist.
  1226. 2019/11/04 15:10:21.8579938 5004 7356 DownloadManager Dynamic download data fetcher for ServiceId 8B24B027-1DEE-BABB-9A95-3517DFB9C552 does not exist.
  1227. 2019/11/04 15:10:22.8816308 5004 7356 DownloadManager Dynamic download data fetcher for ServiceId 8B24B027-1DEE-BABB-9A95-3517DFB9C552 does not exist.
  1228. 2019/11/04 15:10:23.8949386 5004 7356 DownloadManager Dynamic download data fetcher for ServiceId 8B24B027-1DEE-BABB-9A95-3517DFB9C552 does not exist.
  1229. 2019/11/04 15:10:24.9076331 5004 7356 DownloadManager Dynamic download data fetcher for ServiceId 8B24B027-1DEE-BABB-9A95-3517DFB9C552 does not exist.
  1230. 2019/11/04 15:10:25.9243109 5004 7356 DownloadManager Dynamic download data fetcher for ServiceId 8B24B027-1DEE-BABB-9A95-3517DFB9C552 does not exist.
  1231. 2019/11/04 15:10:26.9454037 5004 7356 DownloadManager Dynamic download data fetcher for ServiceId 8B24B027-1DEE-BABB-9A95-3517DFB9C552 does not exist.
  1232. 2019/11/04 15:10:27.9647719 5004 7356 DownloadManager Dynamic download data fetcher for ServiceId 8B24B027-1DEE-BABB-9A95-3517DFB9C552 does not exist.
  1233. 2019/11/04 15:10:28.9639013 5004 7356 DownloadManager Dynamic download data fetcher for ServiceId 8B24B027-1DEE-BABB-9A95-3517DFB9C552 does not exist.
  1234. 2019/11/04 15:10:29.9892291 5004 7356 DownloadManager Dynamic download data fetcher for ServiceId 8B24B027-1DEE-BABB-9A95-3517DFB9C552 does not exist.
  1235. 2019/11/04 15:10:31.0001712 5004 7356 DownloadManager Dynamic download data fetcher for ServiceId 8B24B027-1DEE-BABB-9A95-3517DFB9C552 does not exist.
  1236. 2019/11/04 15:10:32.0167530 5004 7356 DownloadManager Dynamic download data fetcher for ServiceId 8B24B027-1DEE-BABB-9A95-3517DFB9C552 does not exist.
  1237. 2019/11/04 15:10:33.0364347 5004 7356 DownloadManager Dynamic download data fetcher for ServiceId 8B24B027-1DEE-BABB-9A95-3517DFB9C552 does not exist.
  1238. 2019/11/04 15:10:34.0520359 5004 7356 DownloadManager Dynamic download data fetcher for ServiceId 8B24B027-1DEE-BABB-9A95-3517DFB9C552 does not exist.
  1239. 2019/11/04 15:10:35.0650189 5004 7356 DownloadManager Dynamic download data fetcher for ServiceId 8B24B027-1DEE-BABB-9A95-3517DFB9C552 does not exist.
  1240. 2019/11/04 15:10:36.0848170 5004 7356 DownloadManager Dynamic download data fetcher for ServiceId 8B24B027-1DEE-BABB-9A95-3517DFB9C552 does not exist.
  1241. 2019/11/04 15:10:37.1010811 5004 7356 DownloadManager Dynamic download data fetcher for ServiceId 8B24B027-1DEE-BABB-9A95-3517DFB9C552 does not exist.
  1242. 2019/11/04 15:10:38.1126438 5004 7356 DownloadManager Dynamic download data fetcher for ServiceId 8B24B027-1DEE-BABB-9A95-3517DFB9C552 does not exist.
  1243. 2019/11/04 15:10:39.1196150 5004 7356 DownloadManager Dynamic download data fetcher for ServiceId 8B24B027-1DEE-BABB-9A95-3517DFB9C552 does not exist.
  1244. 2019/11/04 15:10:40.1438112 5004 7356 DownloadManager Dynamic download data fetcher for ServiceId 8B24B027-1DEE-BABB-9A95-3517DFB9C552 does not exist.
  1245. 2019/11/04 15:10:41.1683382 5004 7356 DownloadManager Dynamic download data fetcher for ServiceId 8B24B027-1DEE-BABB-9A95-3517DFB9C552 does not exist.
  1246. 2019/11/04 15:10:42.1720270 5004 7356 DownloadManager Dynamic download data fetcher for ServiceId 8B24B027-1DEE-BABB-9A95-3517DFB9C552 does not exist.
  1247. 2019/11/04 15:10:43.1911900 5004 7356 DownloadManager Dynamic download data fetcher for ServiceId 8B24B027-1DEE-BABB-9A95-3517DFB9C552 does not exist.
  1248. 2019/11/04 15:10:44.1994204 5004 7356 DownloadManager Dynamic download data fetcher for ServiceId 8B24B027-1DEE-BABB-9A95-3517DFB9C552 does not exist.
  1249. 2019/11/04 15:10:45.2164948 5004 7356 DownloadManager Dynamic download data fetcher for ServiceId 8B24B027-1DEE-BABB-9A95-3517DFB9C552 does not exist.
  1250. 2019/11/04 15:10:46.2299729 5004 7356 DownloadManager Dynamic download data fetcher for ServiceId 8B24B027-1DEE-BABB-9A95-3517DFB9C552 does not exist.
  1251. 2019/11/04 15:10:47.2588967 5004 7356 DownloadManager Dynamic download data fetcher for ServiceId 8B24B027-1DEE-BABB-9A95-3517DFB9C552 does not exist.
  1252. 2019/11/04 15:10:48.2660302 5004 7356 DownloadManager Dynamic download data fetcher for ServiceId 8B24B027-1DEE-BABB-9A95-3517DFB9C552 does not exist.
  1253. 2019/11/04 15:10:49.2825605 5004 7356 DownloadManager Dynamic download data fetcher for ServiceId 8B24B027-1DEE-BABB-9A95-3517DFB9C552 does not exist.
  1254. 2019/11/04 15:10:50.2949702 5004 7356 DownloadManager Dynamic download data fetcher for ServiceId 8B24B027-1DEE-BABB-9A95-3517DFB9C552 does not exist.
  1255. 2019/11/04 15:10:51.3173261 5004 7356 DownloadManager Dynamic download data fetcher for ServiceId 8B24B027-1DEE-BABB-9A95-3517DFB9C552 does not exist.
  1256. 2019/11/04 15:10:52.3272343 5004 7356 DownloadManager Dynamic download data fetcher for ServiceId 8B24B027-1DEE-BABB-9A95-3517DFB9C552 does not exist.
  1257. 2019/11/04 15:10:53.3370921 5004 7356 DownloadManager Dynamic download data fetcher for ServiceId 8B24B027-1DEE-BABB-9A95-3517DFB9C552 does not exist.
  1258. 2019/11/04 15:10:54.3528029 5004 7356 DownloadManager Dynamic download data fetcher for ServiceId 8B24B027-1DEE-BABB-9A95-3517DFB9C552 does not exist.
  1259. 2019/11/04 15:10:55.3757678 5004 7356 DownloadManager Dynamic download data fetcher for ServiceId 8B24B027-1DEE-BABB-9A95-3517DFB9C552 does not exist.
  1260. 2019/11/04 15:10:56.3836301 5004 7356 DownloadManager Dynamic download data fetcher for ServiceId 8B24B027-1DEE-BABB-9A95-3517DFB9C552 does not exist.
  1261. 2019/11/04 15:10:57.4026020 5004 7356 DownloadManager Dynamic download data fetcher for ServiceId 8B24B027-1DEE-BABB-9A95-3517DFB9C552 does not exist.
  1262. 2019/11/04 15:10:58.4192572 5004 7356 DownloadManager Dynamic download data fetcher for ServiceId 8B24B027-1DEE-BABB-9A95-3517DFB9C552 does not exist.
  1263. 2019/11/04 15:10:59.4355414 5004 7356 DownloadManager Dynamic download data fetcher for ServiceId 8B24B027-1DEE-BABB-9A95-3517DFB9C552 does not exist.
  1264. 2019/11/04 15:11:00.4482818 5004 7356 DownloadManager Dynamic download data fetcher for ServiceId 8B24B027-1DEE-BABB-9A95-3517DFB9C552 does not exist.
  1265. 2019/11/04 15:11:01.4756587 5004 7356 DownloadManager Dynamic download data fetcher for ServiceId 8B24B027-1DEE-BABB-9A95-3517DFB9C552 does not exist.
  1266. 2019/11/04 15:11:02.5099814 5004 7356 DownloadManager Dynamic download data fetcher for ServiceId 8B24B027-1DEE-BABB-9A95-3517DFB9C552 does not exist.
  1267. 2019/11/04 15:11:03.4905758 5004 7356 DownloadManager Dynamic download data fetcher for ServiceId 8B24B027-1DEE-BABB-9A95-3517DFB9C552 does not exist.
  1268. 2019/11/04 15:11:04.5036568 5004 7356 DownloadManager Dynamic download data fetcher for ServiceId 8B24B027-1DEE-BABB-9A95-3517DFB9C552 does not exist.
  1269. 2019/11/04 15:11:05.5372048 5004 7356 DownloadManager Dynamic download data fetcher for ServiceId 8B24B027-1DEE-BABB-9A95-3517DFB9C552 does not exist.
  1270. 2019/11/04 15:11:06.5329791 5004 7356 DownloadManager Dynamic download data fetcher for ServiceId 8B24B027-1DEE-BABB-9A95-3517DFB9C552 does not exist.
  1271. 2019/11/04 15:11:07.5500288 5004 7356 DownloadManager Dynamic download data fetcher for ServiceId 8B24B027-1DEE-BABB-9A95-3517DFB9C552 does not exist.
  1272. 2019/11/04 15:11:08.5644375 5004 7356 DownloadManager Dynamic download data fetcher for ServiceId 8B24B027-1DEE-BABB-9A95-3517DFB9C552 does not exist.
  1273. 2019/11/04 15:11:09.5847066 5004 7356 DownloadManager Dynamic download data fetcher for ServiceId 8B24B027-1DEE-BABB-9A95-3517DFB9C552 does not exist.
  1274. 2019/11/04 15:11:10.5797185 5004 7356 DownloadManager Dynamic download data fetcher for ServiceId 8B24B027-1DEE-BABB-9A95-3517DFB9C552 does not exist.
  1275. 2019/11/04 15:11:11.5943591 5004 7356 DownloadManager Dynamic download data fetcher for ServiceId 8B24B027-1DEE-BABB-9A95-3517DFB9C552 does not exist.
  1276. 2019/11/04 15:11:12.6089642 5004 7356 DownloadManager Dynamic download data fetcher for ServiceId 8B24B027-1DEE-BABB-9A95-3517DFB9C552 does not exist.
  1277. 2019/11/04 15:11:13.6257093 5004 7356 DownloadManager Dynamic download data fetcher for ServiceId 8B24B027-1DEE-BABB-9A95-3517DFB9C552 does not exist.
  1278. 2019/11/04 15:11:14.6388919 5004 7356 DownloadManager Dynamic download data fetcher for ServiceId 8B24B027-1DEE-BABB-9A95-3517DFB9C552 does not exist.
  1279. 2019/11/04 15:11:15.6615310 5004 7356 DownloadManager Dynamic download data fetcher for ServiceId 8B24B027-1DEE-BABB-9A95-3517DFB9C552 does not exist.
  1280. 2019/11/04 15:11:16.6745954 5004 7356 DownloadManager Dynamic download data fetcher for ServiceId 8B24B027-1DEE-BABB-9A95-3517DFB9C552 does not exist.
  1281. 2019/11/04 15:11:17.6920511 5004 7356 DownloadManager Dynamic download data fetcher for ServiceId 8B24B027-1DEE-BABB-9A95-3517DFB9C552 does not exist.
  1282. 2019/11/04 15:11:18.7019444 5004 7356 DownloadManager Dynamic download data fetcher for ServiceId 8B24B027-1DEE-BABB-9A95-3517DFB9C552 does not exist.
  1283. 2019/11/04 15:11:19.7239950 5004 7356 DownloadManager Dynamic download data fetcher for ServiceId 8B24B027-1DEE-BABB-9A95-3517DFB9C552 does not exist.
  1284. 2019/11/04 15:11:20.7412133 5004 7356 DownloadManager Dynamic download data fetcher for ServiceId 8B24B027-1DEE-BABB-9A95-3517DFB9C552 does not exist.
  1285. 2019/11/04 15:11:21.7514318 5004 7356 DownloadManager Dynamic download data fetcher for ServiceId 8B24B027-1DEE-BABB-9A95-3517DFB9C552 does not exist.
  1286. 2019/11/04 15:11:22.7658387 5004 7356 DownloadManager Dynamic download data fetcher for ServiceId 8B24B027-1DEE-BABB-9A95-3517DFB9C552 does not exist.
  1287. 2019/11/04 15:11:23.7816342 5004 7356 DownloadManager Dynamic download data fetcher for ServiceId 8B24B027-1DEE-BABB-9A95-3517DFB9C552 does not exist.
  1288. 2019/11/04 15:11:24.8001900 5004 7356 DownloadManager Dynamic download data fetcher for ServiceId 8B24B027-1DEE-BABB-9A95-3517DFB9C552 does not exist.
  1289. 2019/11/04 15:11:25.8120749 5004 7356 DownloadManager Dynamic download data fetcher for ServiceId 8B24B027-1DEE-BABB-9A95-3517DFB9C552 does not exist.
  1290. 2019/11/04 15:11:26.8280517 5004 7356 DownloadManager Dynamic download data fetcher for ServiceId 8B24B027-1DEE-BABB-9A95-3517DFB9C552 does not exist.
  1291. 2019/11/04 15:11:27.8461120 5004 7356 DownloadManager Dynamic download data fetcher for ServiceId 8B24B027-1DEE-BABB-9A95-3517DFB9C552 does not exist.
  1292. 2019/11/04 15:11:28.8592371 5004 7356 DownloadManager Dynamic download data fetcher for ServiceId 8B24B027-1DEE-BABB-9A95-3517DFB9C552 does not exist.
  1293. 2019/11/04 15:11:29.8593595 5004 7356 DownloadManager Dynamic download data fetcher for ServiceId 8B24B027-1DEE-BABB-9A95-3517DFB9C552 does not exist.
  1294. 2019/11/04 15:11:30.8735721 5004 7356 DownloadManager Dynamic download data fetcher for ServiceId 8B24B027-1DEE-BABB-9A95-3517DFB9C552 does not exist.
  1295. 2019/11/04 15:11:31.8911624 5004 7356 DownloadManager Dynamic download data fetcher for ServiceId 8B24B027-1DEE-BABB-9A95-3517DFB9C552 does not exist.
  1296. 2019/11/04 15:11:32.9073027 5004 7356 DownloadManager Dynamic download data fetcher for ServiceId 8B24B027-1DEE-BABB-9A95-3517DFB9C552 does not exist.
  1297. 2019/11/04 15:11:33.9224628 5004 7356 DownloadManager Dynamic download data fetcher for ServiceId 8B24B027-1DEE-BABB-9A95-3517DFB9C552 does not exist.
  1298. 2019/11/04 15:11:34.9398825 5004 7356 DownloadManager Dynamic download data fetcher for ServiceId 8B24B027-1DEE-BABB-9A95-3517DFB9C552 does not exist.
  1299. 2019/11/04 15:11:35.9553059 5004 7356 DownloadManager Dynamic download data fetcher for ServiceId 8B24B027-1DEE-BABB-9A95-3517DFB9C552 does not exist.
  1300. 2019/11/04 15:11:36.9687590 5004 7356 DownloadManager Dynamic download data fetcher for ServiceId 8B24B027-1DEE-BABB-9A95-3517DFB9C552 does not exist.
  1301. 2019/11/04 15:11:37.9986553 5004 7356 DownloadManager Dynamic download data fetcher for ServiceId 8B24B027-1DEE-BABB-9A95-3517DFB9C552 does not exist.
  1302. 2019/11/04 15:11:39.0032802 5004 7356 DownloadManager Dynamic download data fetcher for ServiceId 8B24B027-1DEE-BABB-9A95-3517DFB9C552 does not exist.
  1303. 2019/11/04 15:11:40.0153567 5004 7356 DownloadManager Dynamic download data fetcher for ServiceId 8B24B027-1DEE-BABB-9A95-3517DFB9C552 does not exist.
  1304. 2019/11/04 15:11:41.0538247 5004 7356 DownloadManager Dynamic download data fetcher for ServiceId 8B24B027-1DEE-BABB-9A95-3517DFB9C552 does not exist.
  1305. 2019/11/04 15:11:42.0478592 5004 7356 DownloadManager Dynamic download data fetcher for ServiceId 8B24B027-1DEE-BABB-9A95-3517DFB9C552 does not exist.
  1306. 2019/11/04 15:11:43.0474075 5004 7356 DownloadManager Dynamic download data fetcher for ServiceId 8B24B027-1DEE-BABB-9A95-3517DFB9C552 does not exist.
  1307. 2019/11/04 15:11:44.0650736 5004 7356 DownloadManager Dynamic download data fetcher for ServiceId 8B24B027-1DEE-BABB-9A95-3517DFB9C552 does not exist.
  1308. 2019/11/04 15:11:45.2621295 5004 7356 DownloadManager Dynamic download data fetcher for ServiceId 8B24B027-1DEE-BABB-9A95-3517DFB9C552 does not exist.
  1309. 2019/11/04 15:11:46.2667312 5004 7356 DownloadManager Dynamic download data fetcher for ServiceId 8B24B027-1DEE-BABB-9A95-3517DFB9C552 does not exist.
  1310. 2019/11/04 15:11:47.2964596 5004 7356 DownloadManager Dynamic download data fetcher for ServiceId 8B24B027-1DEE-BABB-9A95-3517DFB9C552 does not exist.
  1311. 2019/11/04 15:11:48.2999103 5004 7356 DownloadManager Dynamic download data fetcher for ServiceId 8B24B027-1DEE-BABB-9A95-3517DFB9C552 does not exist.
  1312. 2019/11/04 15:11:49.3270548 5004 7356 DownloadManager Dynamic download data fetcher for ServiceId 8B24B027-1DEE-BABB-9A95-3517DFB9C552 does not exist.
  1313. 2019/11/04 15:11:50.3287051 5004 7356 DownloadManager Dynamic download data fetcher for ServiceId 8B24B027-1DEE-BABB-9A95-3517DFB9C552 does not exist.
  1314. 2019/11/04 15:11:51.3501269 5004 7356 DownloadManager Dynamic download data fetcher for ServiceId 8B24B027-1DEE-BABB-9A95-3517DFB9C552 does not exist.
  1315. 2019/11/04 15:11:52.3698615 5004 7356 DownloadManager Dynamic download data fetcher for ServiceId 8B24B027-1DEE-BABB-9A95-3517DFB9C552 does not exist.
  1316. 2019/11/04 15:11:53.3821685 5004 7356 DownloadManager Dynamic download data fetcher for ServiceId 8B24B027-1DEE-BABB-9A95-3517DFB9C552 does not exist.
  1317. 2019/11/04 15:11:54.4017222 5004 7356 DownloadManager Dynamic download data fetcher for ServiceId 8B24B027-1DEE-BABB-9A95-3517DFB9C552 does not exist.
  1318. 2019/11/04 15:11:55.4144186 5004 7356 DownloadManager Dynamic download data fetcher for ServiceId 8B24B027-1DEE-BABB-9A95-3517DFB9C552 does not exist.
  1319. 2019/11/04 15:11:56.4290977 5004 7356 DownloadManager Dynamic download data fetcher for ServiceId 8B24B027-1DEE-BABB-9A95-3517DFB9C552 does not exist.
  1320. 2019/11/04 15:11:57.4440391 5004 7356 DownloadManager Dynamic download data fetcher for ServiceId 8B24B027-1DEE-BABB-9A95-3517DFB9C552 does not exist.
  1321. 2019/11/04 15:11:58.4605938 5004 7356 DownloadManager Dynamic download data fetcher for ServiceId 8B24B027-1DEE-BABB-9A95-3517DFB9C552 does not exist.
  1322. 2019/11/04 15:11:59.4762338 5004 7356 DownloadManager Dynamic download data fetcher for ServiceId 8B24B027-1DEE-BABB-9A95-3517DFB9C552 does not exist.
  1323. 2019/11/04 15:12:00.4925561 5004 7356 DownloadManager Dynamic download data fetcher for ServiceId 8B24B027-1DEE-BABB-9A95-3517DFB9C552 does not exist.
  1324. 2019/11/04 15:12:01.5016945 5004 7356 DownloadManager Dynamic download data fetcher for ServiceId 8B24B027-1DEE-BABB-9A95-3517DFB9C552 does not exist.
  1325. 2019/11/04 15:12:02.5174836 5004 7356 DownloadManager Dynamic download data fetcher for ServiceId 8B24B027-1DEE-BABB-9A95-3517DFB9C552 does not exist.
  1326. 2019/11/04 15:12:03.5303320 5004 7356 DownloadManager Dynamic download data fetcher for ServiceId 8B24B027-1DEE-BABB-9A95-3517DFB9C552 does not exist.
  1327. 2019/11/04 15:12:04.5478260 5004 7356 DownloadManager Dynamic download data fetcher for ServiceId 8B24B027-1DEE-BABB-9A95-3517DFB9C552 does not exist.
  1328. 2019/11/04 15:12:05.5728283 5004 7356 DownloadManager Dynamic download data fetcher for ServiceId 8B24B027-1DEE-BABB-9A95-3517DFB9C552 does not exist.
  1329. 2019/11/04 15:12:06.5809756 5004 7356 DownloadManager Dynamic download data fetcher for ServiceId 8B24B027-1DEE-BABB-9A95-3517DFB9C552 does not exist.
  1330. 2019/11/04 15:12:07.6159905 5004 7356 DownloadManager Dynamic download data fetcher for ServiceId 8B24B027-1DEE-BABB-9A95-3517DFB9C552 does not exist.
  1331. 2019/11/04 15:12:08.6125577 5004 7356 DownloadManager Dynamic download data fetcher for ServiceId 8B24B027-1DEE-BABB-9A95-3517DFB9C552 does not exist.
  1332. 2019/11/04 15:12:09.6350776 5004 7356 DownloadManager Dynamic download data fetcher for ServiceId 8B24B027-1DEE-BABB-9A95-3517DFB9C552 does not exist.
  1333. 2019/11/04 15:12:10.6447369 5004 7356 DownloadManager Dynamic download data fetcher for ServiceId 8B24B027-1DEE-BABB-9A95-3517DFB9C552 does not exist.
  1334. 2019/11/04 15:12:11.6556602 5004 7356 DownloadManager Dynamic download data fetcher for ServiceId 8B24B027-1DEE-BABB-9A95-3517DFB9C552 does not exist.
  1335. 2019/11/04 15:12:12.6773501 5004 7356 DownloadManager Dynamic download data fetcher for ServiceId 8B24B027-1DEE-BABB-9A95-3517DFB9C552 does not exist.
  1336. 2019/11/04 15:12:13.6949668 5004 7356 DownloadManager Dynamic download data fetcher for ServiceId 8B24B027-1DEE-BABB-9A95-3517DFB9C552 does not exist.
  1337. 2019/11/04 15:12:14.7120222 5004 7356 DownloadManager Dynamic download data fetcher for ServiceId 8B24B027-1DEE-BABB-9A95-3517DFB9C552 does not exist.
  1338. 2019/11/04 15:12:15.7250973 5004 7356 DownloadManager Dynamic download data fetcher for ServiceId 8B24B027-1DEE-BABB-9A95-3517DFB9C552 does not exist.
  1339. 2019/11/04 15:12:16.7718861 5004 7356 DownloadManager Dynamic download data fetcher for ServiceId 8B24B027-1DEE-BABB-9A95-3517DFB9C552 does not exist.
  1340. 2019/11/04 15:12:17.7530595 5004 7356 DownloadManager Dynamic download data fetcher for ServiceId 8B24B027-1DEE-BABB-9A95-3517DFB9C552 does not exist.
  1341. 2019/11/04 15:12:18.7739112 5004 7356 DownloadManager Dynamic download data fetcher for ServiceId 8B24B027-1DEE-BABB-9A95-3517DFB9C552 does not exist.
  1342. 2019/11/04 15:12:19.7880691 5004 7356 DownloadManager Dynamic download data fetcher for ServiceId 8B24B027-1DEE-BABB-9A95-3517DFB9C552 does not exist.
  1343. 2019/11/04 15:12:20.8008039 5004 7356 DownloadManager Dynamic download data fetcher for ServiceId 8B24B027-1DEE-BABB-9A95-3517DFB9C552 does not exist.
  1344. 2019/11/04 15:12:21.8166540 5004 7356 DownloadManager Dynamic download data fetcher for ServiceId 8B24B027-1DEE-BABB-9A95-3517DFB9C552 does not exist.
  1345. 2019/11/04 15:12:22.8284244 5004 7356 DownloadManager Dynamic download data fetcher for ServiceId 8B24B027-1DEE-BABB-9A95-3517DFB9C552 does not exist.
  1346. 2019/11/04 15:12:23.8553033 5004 7356 DownloadManager Dynamic download data fetcher for ServiceId 8B24B027-1DEE-BABB-9A95-3517DFB9C552 does not exist.
  1347. 2019/11/04 15:12:24.3276003 5004 7356 DownloadManager Dynamic download data fetcher for ServiceId 8B24B027-1DEE-BABB-9A95-3517DFB9C552 does not exist.
  1348. 2019/11/04 15:12:25.3245329 5004 7356 DownloadManager Dynamic download data fetcher for ServiceId 8B24B027-1DEE-BABB-9A95-3517DFB9C552 does not exist.
  1349. 2019/11/04 15:12:26.3296035 5004 7356 DownloadManager Dynamic download data fetcher for ServiceId 8B24B027-1DEE-BABB-9A95-3517DFB9C552 does not exist.
  1350. 2019/11/04 15:12:27.3500472 5004 7356 DownloadManager Dynamic download data fetcher for ServiceId 8B24B027-1DEE-BABB-9A95-3517DFB9C552 does not exist.
  1351. 2019/11/04 15:12:28.3717575 5004 7356 DownloadManager Dynamic download data fetcher for ServiceId 8B24B027-1DEE-BABB-9A95-3517DFB9C552 does not exist.
  1352. 2019/11/04 15:12:29.3754854 5004 7356 DownloadManager Dynamic download data fetcher for ServiceId 8B24B027-1DEE-BABB-9A95-3517DFB9C552 does not exist.
  1353. 2019/11/04 15:12:30.3977242 5004 7356 DownloadManager Dynamic download data fetcher for ServiceId 8B24B027-1DEE-BABB-9A95-3517DFB9C552 does not exist.
  1354. 2019/11/04 15:12:31.4177173 5004 7356 DownloadManager Dynamic download data fetcher for ServiceId 8B24B027-1DEE-BABB-9A95-3517DFB9C552 does not exist.
  1355. 2019/11/04 15:12:32.4261487 5004 7356 DownloadManager Dynamic download data fetcher for ServiceId 8B24B027-1DEE-BABB-9A95-3517DFB9C552 does not exist.
  1356. 2019/11/04 15:12:33.4516475 5004 7356 DownloadManager Dynamic download data fetcher for ServiceId 8B24B027-1DEE-BABB-9A95-3517DFB9C552 does not exist.
  1357. 2019/11/04 15:12:34.4643061 5004 7356 DownloadManager Dynamic download data fetcher for ServiceId 8B24B027-1DEE-BABB-9A95-3517DFB9C552 does not exist.
  1358. 2019/11/04 15:12:35.4775025 5004 7356 DownloadManager Dynamic download data fetcher for ServiceId 8B24B027-1DEE-BABB-9A95-3517DFB9C552 does not exist.
  1359. 2019/11/04 15:12:36.4891889 5004 7356 DownloadManager Dynamic download data fetcher for ServiceId 8B24B027-1DEE-BABB-9A95-3517DFB9C552 does not exist.
  1360. 2019/11/04 15:12:37.5082091 5004 7356 DownloadManager Dynamic download data fetcher for ServiceId 8B24B027-1DEE-BABB-9A95-3517DFB9C552 does not exist.
  1361. 2019/11/04 15:12:38.5235233 5004 7356 DownloadManager Dynamic download data fetcher for ServiceId 8B24B027-1DEE-BABB-9A95-3517DFB9C552 does not exist.
  1362. 2019/11/04 15:12:39.5477735 5004 7356 DownloadManager Dynamic download data fetcher for ServiceId 8B24B027-1DEE-BABB-9A95-3517DFB9C552 does not exist.
  1363. 2019/11/04 15:12:40.5510923 5004 7356 DownloadManager Dynamic download data fetcher for ServiceId 8B24B027-1DEE-BABB-9A95-3517DFB9C552 does not exist.
  1364. 2019/11/04 15:12:41.5714813 5004 7356 DownloadManager Dynamic download data fetcher for ServiceId 8B24B027-1DEE-BABB-9A95-3517DFB9C552 does not exist.
  1365. 2019/11/04 15:12:42.5806695 5004 7356 DownloadManager Dynamic download data fetcher for ServiceId 8B24B027-1DEE-BABB-9A95-3517DFB9C552 does not exist.
  1366. 2019/11/04 15:12:43.5932935 5004 7356 DownloadManager Dynamic download data fetcher for ServiceId 8B24B027-1DEE-BABB-9A95-3517DFB9C552 does not exist.
  1367. 2019/11/04 15:12:44.6087562 5004 7356 DownloadManager Dynamic download data fetcher for ServiceId 8B24B027-1DEE-BABB-9A95-3517DFB9C552 does not exist.
  1368. 2019/11/04 15:12:45.6259427 5004 7356 DownloadManager Dynamic download data fetcher for ServiceId 8B24B027-1DEE-BABB-9A95-3517DFB9C552 does not exist.
  1369. 2019/11/04 15:12:46.6542935 5004 7356 DownloadManager Dynamic download data fetcher for ServiceId 8B24B027-1DEE-BABB-9A95-3517DFB9C552 does not exist.
  1370. 2019/11/04 15:12:47.6570594 5004 7356 DownloadManager Dynamic download data fetcher for ServiceId 8B24B027-1DEE-BABB-9A95-3517DFB9C552 does not exist.
  1371. 2019/11/04 15:12:48.6731109 5004 7356 DownloadManager Dynamic download data fetcher for ServiceId 8B24B027-1DEE-BABB-9A95-3517DFB9C552 does not exist.
  1372. 2019/11/04 15:12:49.6867297 5004 7356 DownloadManager Dynamic download data fetcher for ServiceId 8B24B027-1DEE-BABB-9A95-3517DFB9C552 does not exist.
  1373. 2019/11/04 15:12:50.7033676 5004 7356 DownloadManager Dynamic download data fetcher for ServiceId 8B24B027-1DEE-BABB-9A95-3517DFB9C552 does not exist.
  1374. 2019/11/04 15:12:51.7195820 5004 7356 DownloadManager Dynamic download data fetcher for ServiceId 8B24B027-1DEE-BABB-9A95-3517DFB9C552 does not exist.
  1375. 2019/11/04 15:12:52.7444027 5004 7356 DownloadManager Dynamic download data fetcher for ServiceId 8B24B027-1DEE-BABB-9A95-3517DFB9C552 does not exist.
  1376. 2019/11/04 15:12:53.7554054 5004 7356 DownloadManager Dynamic download data fetcher for ServiceId 8B24B027-1DEE-BABB-9A95-3517DFB9C552 does not exist.
  1377. 2019/11/04 15:12:54.7652223 5004 7356 DownloadManager Dynamic download data fetcher for ServiceId 8B24B027-1DEE-BABB-9A95-3517DFB9C552 does not exist.
  1378. 2019/11/04 15:12:55.7818771 5004 7356 DownloadManager Dynamic download data fetcher for ServiceId 8B24B027-1DEE-BABB-9A95-3517DFB9C552 does not exist.
  1379. 2019/11/04 15:12:56.7970443 5004 7356 DownloadManager Dynamic download data fetcher for ServiceId 8B24B027-1DEE-BABB-9A95-3517DFB9C552 does not exist.
  1380. 2019/11/04 15:12:57.8142650 5004 7356 DownloadManager Dynamic download data fetcher for ServiceId 8B24B027-1DEE-BABB-9A95-3517DFB9C552 does not exist.
  1381. 2019/11/04 15:12:58.8318486 5004 7356 DownloadManager Dynamic download data fetcher for ServiceId 8B24B027-1DEE-BABB-9A95-3517DFB9C552 does not exist.
  1382. 2019/11/04 15:12:59.8476611 5004 7356 DownloadManager Dynamic download data fetcher for ServiceId 8B24B027-1DEE-BABB-9A95-3517DFB9C552 does not exist.
  1383. 2019/11/04 15:13:00.8592992 5004 7356 DownloadManager Dynamic download data fetcher for ServiceId 8B24B027-1DEE-BABB-9A95-3517DFB9C552 does not exist.
  1384. 2019/11/04 15:13:01.8770097 5004 7356 DownloadManager Dynamic download data fetcher for ServiceId 8B24B027-1DEE-BABB-9A95-3517DFB9C552 does not exist.
  1385. 2019/11/04 15:13:02.8918828 5004 7356 DownloadManager Dynamic download data fetcher for ServiceId 8B24B027-1DEE-BABB-9A95-3517DFB9C552 does not exist.
  1386. 2019/11/04 15:13:03.9065220 5004 7356 DownloadManager Dynamic download data fetcher for ServiceId 8B24B027-1DEE-BABB-9A95-3517DFB9C552 does not exist.
  1387. 2019/11/04 15:13:04.9207269 5004 7356 DownloadManager Dynamic download data fetcher for ServiceId 8B24B027-1DEE-BABB-9A95-3517DFB9C552 does not exist.
  1388. 2019/11/04 15:13:05.9374029 5004 7356 DownloadManager Dynamic download data fetcher for ServiceId 8B24B027-1DEE-BABB-9A95-3517DFB9C552 does not exist.
  1389. 2019/11/04 15:13:06.9609831 5004 7356 DownloadManager Dynamic download data fetcher for ServiceId 8B24B027-1DEE-BABB-9A95-3517DFB9C552 does not exist.
  1390. 2019/11/04 15:13:07.9692287 5004 7356 DownloadManager Dynamic download data fetcher for ServiceId 8B24B027-1DEE-BABB-9A95-3517DFB9C552 does not exist.
  1391. 2019/11/04 15:13:08.9840146 5004 7356 DownloadManager Dynamic download data fetcher for ServiceId 8B24B027-1DEE-BABB-9A95-3517DFB9C552 does not exist.
  1392. 2019/11/04 15:13:09.9999864 5004 7356 DownloadManager Dynamic download data fetcher for ServiceId 8B24B027-1DEE-BABB-9A95-3517DFB9C552 does not exist.
  1393. 2019/11/04 15:13:11.0208413 5004 7356 DownloadManager Dynamic download data fetcher for ServiceId 8B24B027-1DEE-BABB-9A95-3517DFB9C552 does not exist.
  1394. 2019/11/04 15:13:12.0342679 5004 7356 DownloadManager Dynamic download data fetcher for ServiceId 8B24B027-1DEE-BABB-9A95-3517DFB9C552 does not exist.
  1395. 2019/11/04 15:13:13.0533787 5004 7356 DownloadManager Dynamic download data fetcher for ServiceId 8B24B027-1DEE-BABB-9A95-3517DFB9C552 does not exist.
  1396. 2019/11/04 15:13:14.0610788 5004 7356 DownloadManager Dynamic download data fetcher for ServiceId 8B24B027-1DEE-BABB-9A95-3517DFB9C552 does not exist.
  1397. 2019/11/04 15:13:15.0806378 5004 7356 DownloadManager Dynamic download data fetcher for ServiceId 8B24B027-1DEE-BABB-9A95-3517DFB9C552 does not exist.
  1398. 2019/11/04 15:13:16.0979262 5004 7356 DownloadManager Dynamic download data fetcher for ServiceId 8B24B027-1DEE-BABB-9A95-3517DFB9C552 does not exist.
  1399. 2019/11/04 15:13:17.1126265 5004 7356 DownloadManager Dynamic download data fetcher for ServiceId 8B24B027-1DEE-BABB-9A95-3517DFB9C552 does not exist.
  1400. 2019/11/04 15:13:18.1276762 5004 7356 DownloadManager Dynamic download data fetcher for ServiceId 8B24B027-1DEE-BABB-9A95-3517DFB9C552 does not exist.
  1401. 2019/11/04 15:13:19.1434050 5004 7356 DownloadManager Dynamic download data fetcher for ServiceId 8B24B027-1DEE-BABB-9A95-3517DFB9C552 does not exist.
  1402. 2019/11/04 15:13:20.1592682 5004 7356 DownloadManager Dynamic download data fetcher for ServiceId 8B24B027-1DEE-BABB-9A95-3517DFB9C552 does not exist.
  1403. 2019/11/04 15:13:21.1619284 5004 7356 DownloadManager Dynamic download data fetcher for ServiceId 8B24B027-1DEE-BABB-9A95-3517DFB9C552 does not exist.
  1404. 2019/11/04 15:13:22.1731885 5004 7356 DownloadManager Dynamic download data fetcher for ServiceId 8B24B027-1DEE-BABB-9A95-3517DFB9C552 does not exist.
  1405. 2019/11/04 15:13:23.1877548 5004 7356 DownloadManager Dynamic download data fetcher for ServiceId 8B24B027-1DEE-BABB-9A95-3517DFB9C552 does not exist.
  1406. 2019/11/04 15:13:24.2061956 5004 7356 DownloadManager Dynamic download data fetcher for ServiceId 8B24B027-1DEE-BABB-9A95-3517DFB9C552 does not exist.
  1407. 2019/11/04 15:13:25.2204942 5004 7356 DownloadManager Dynamic download data fetcher for ServiceId 8B24B027-1DEE-BABB-9A95-3517DFB9C552 does not exist.
  1408. 2019/11/04 15:13:26.2370087 5004 7356 DownloadManager Dynamic download data fetcher for ServiceId 8B24B027-1DEE-BABB-9A95-3517DFB9C552 does not exist.
  1409. 2019/11/04 15:13:27.2546984 5004 7356 DownloadManager Dynamic download data fetcher for ServiceId 8B24B027-1DEE-BABB-9A95-3517DFB9C552 does not exist.
  1410. 2019/11/04 15:13:28.2677756 5004 7356 DownloadManager Dynamic download data fetcher for ServiceId 8B24B027-1DEE-BABB-9A95-3517DFB9C552 does not exist.
  1411. 2019/11/04 15:13:29.2870148 5004 7356 DownloadManager Dynamic download data fetcher for ServiceId 8B24B027-1DEE-BABB-9A95-3517DFB9C552 does not exist.
  1412. 2019/11/04 15:13:30.3006099 5004 7356 DownloadManager Dynamic download data fetcher for ServiceId 8B24B027-1DEE-BABB-9A95-3517DFB9C552 does not exist.
  1413. 2019/11/04 15:13:31.3193699 5004 7356 DownloadManager Dynamic download data fetcher for ServiceId 8B24B027-1DEE-BABB-9A95-3517DFB9C552 does not exist.
  1414. 2019/11/04 15:13:32.3349721 5004 7356 DownloadManager Dynamic download data fetcher for ServiceId 8B24B027-1DEE-BABB-9A95-3517DFB9C552 does not exist.
  1415. 2019/11/04 15:13:33.3421020 5004 7356 DownloadManager Dynamic download data fetcher for ServiceId 8B24B027-1DEE-BABB-9A95-3517DFB9C552 does not exist.
  1416. 2019/11/04 15:13:34.3611882 5004 7356 DownloadManager Dynamic download data fetcher for ServiceId 8B24B027-1DEE-BABB-9A95-3517DFB9C552 does not exist.
  1417. 2019/11/04 15:13:35.3928990 5004 7356 DownloadManager Dynamic download data fetcher for ServiceId 8B24B027-1DEE-BABB-9A95-3517DFB9C552 does not exist.
  1418. 2019/11/04 15:13:36.3885379 5004 7356 DownloadManager Dynamic download data fetcher for ServiceId 8B24B027-1DEE-BABB-9A95-3517DFB9C552 does not exist.
  1419. 2019/11/04 15:13:37.3909610 5004 7356 DownloadManager Dynamic download data fetcher for ServiceId 8B24B027-1DEE-BABB-9A95-3517DFB9C552 does not exist.
  1420. 2019/11/04 15:13:38.4065513 5004 7356 DownloadManager Dynamic download data fetcher for ServiceId 8B24B027-1DEE-BABB-9A95-3517DFB9C552 does not exist.
  1421. 2019/11/04 15:13:39.4306622 5004 7356 DownloadManager Dynamic download data fetcher for ServiceId 8B24B027-1DEE-BABB-9A95-3517DFB9C552 does not exist.
  1422. 2019/11/04 15:13:40.4402792 5004 7356 DownloadManager Dynamic download data fetcher for ServiceId 8B24B027-1DEE-BABB-9A95-3517DFB9C552 does not exist.
  1423. 2019/11/04 15:13:41.4552932 5004 7356 DownloadManager Dynamic download data fetcher for ServiceId 8B24B027-1DEE-BABB-9A95-3517DFB9C552 does not exist.
  1424. 2019/11/04 15:13:42.4717319 5004 7356 DownloadManager Dynamic download data fetcher for ServiceId 8B24B027-1DEE-BABB-9A95-3517DFB9C552 does not exist.
  1425. 2019/11/04 15:13:43.4872770 5004 7356 DownloadManager Dynamic download data fetcher for ServiceId 8B24B027-1DEE-BABB-9A95-3517DFB9C552 does not exist.
  1426. 2019/11/04 15:13:44.5058201 5004 7356 DownloadManager Dynamic download data fetcher for ServiceId 8B24B027-1DEE-BABB-9A95-3517DFB9C552 does not exist.
  1427. 2019/11/04 15:13:45.5190292 5004 7356 DownloadManager Dynamic download data fetcher for ServiceId 8B24B027-1DEE-BABB-9A95-3517DFB9C552 does not exist.
  1428. 2019/11/04 15:13:46.5366350 5004 7356 DownloadManager Dynamic download data fetcher for ServiceId 8B24B027-1DEE-BABB-9A95-3517DFB9C552 does not exist.
  1429. 2019/11/04 15:13:47.5628334 5004 7356 DownloadManager Dynamic download data fetcher for ServiceId 8B24B027-1DEE-BABB-9A95-3517DFB9C552 does not exist.
  1430. 2019/11/04 15:13:47.8517267 5004 7356 DownloadManager Dynamic download data fetcher for ServiceId 8B24B027-1DEE-BABB-9A95-3517DFB9C552 does not exist.
  1431. 2019/11/04 15:13:48.8418612 5004 7356 DownloadManager Dynamic download data fetcher for ServiceId 8B24B027-1DEE-BABB-9A95-3517DFB9C552 does not exist.
  1432. 2019/11/04 15:13:49.8518868 5004 7356 DownloadManager Dynamic download data fetcher for ServiceId 8B24B027-1DEE-BABB-9A95-3517DFB9C552 does not exist.
  1433. 2019/11/04 15:13:50.8612608 5004 7356 DownloadManager Dynamic download data fetcher for ServiceId 8B24B027-1DEE-BABB-9A95-3517DFB9C552 does not exist.
  1434. 2019/11/04 15:13:51.8752650 5004 7356 DownloadManager Dynamic download data fetcher for ServiceId 8B24B027-1DEE-BABB-9A95-3517DFB9C552 does not exist.
  1435. 2019/11/04 15:13:52.8898263 5004 7356 DownloadManager Dynamic download data fetcher for ServiceId 8B24B027-1DEE-BABB-9A95-3517DFB9C552 does not exist.
  1436. 2019/11/04 15:13:53.9094054 5004 7356 DownloadManager Dynamic download data fetcher for ServiceId 8B24B027-1DEE-BABB-9A95-3517DFB9C552 does not exist.
  1437. 2019/11/04 15:13:53.9766939 5004 7356 DownloadManager Dynamic download data fetcher for ServiceId 8B24B027-1DEE-BABB-9A95-3517DFB9C552 does not exist.
  1438. 2019/11/04 15:13:54.9420733 5004 7356 DownloadManager Dynamic download data fetcher for ServiceId 8B24B027-1DEE-BABB-9A95-3517DFB9C552 does not exist.
  1439. 2019/11/04 15:13:55.9619387 5004 7356 DownloadManager Dynamic download data fetcher for ServiceId 8B24B027-1DEE-BABB-9A95-3517DFB9C552 does not exist.
  1440. 2019/11/04 15:13:56.9712252 5004 7356 DownloadManager Dynamic download data fetcher for ServiceId 8B24B027-1DEE-BABB-9A95-3517DFB9C552 does not exist.
  1441. 2019/11/04 15:13:57.9860263 5004 7356 DownloadManager Dynamic download data fetcher for ServiceId 8B24B027-1DEE-BABB-9A95-3517DFB9C552 does not exist.
  1442. 2019/11/04 15:13:58.9998609 5004 7356 DownloadManager Dynamic download data fetcher for ServiceId 8B24B027-1DEE-BABB-9A95-3517DFB9C552 does not exist.
  1443. 2019/11/04 15:14:00.0480432 5004 7356 DownloadManager Dynamic download data fetcher for ServiceId 8B24B027-1DEE-BABB-9A95-3517DFB9C552 does not exist.
  1444. 2019/11/04 15:14:00.1013198 5004 7356 DownloadManager Dynamic download data fetcher for ServiceId 8B24B027-1DEE-BABB-9A95-3517DFB9C552 does not exist.
  1445. 2019/11/04 15:14:01.0845098 5004 7356 DownloadManager Dynamic download data fetcher for ServiceId 8B24B027-1DEE-BABB-9A95-3517DFB9C552 does not exist.
  1446. 2019/11/04 15:14:02.0986657 5004 7356 DownloadManager Dynamic download data fetcher for ServiceId 8B24B027-1DEE-BABB-9A95-3517DFB9C552 does not exist.
  1447. 2019/11/04 15:14:03.1284043 5004 7356 DownloadManager Dynamic download data fetcher for ServiceId 8B24B027-1DEE-BABB-9A95-3517DFB9C552 does not exist.
  1448. 2019/11/04 15:14:03.1850512 5004 7356 DownloadManager Dynamic download data fetcher for ServiceId 8B24B027-1DEE-BABB-9A95-3517DFB9C552 does not exist.
  1449. 2019/11/04 15:14:04.1638858 5004 7356 DownloadManager Dynamic download data fetcher for ServiceId 8B24B027-1DEE-BABB-9A95-3517DFB9C552 does not exist.
  1450. 2019/11/04 15:14:05.1903550 5004 7356 DownloadManager Dynamic download data fetcher for ServiceId 8B24B027-1DEE-BABB-9A95-3517DFB9C552 does not exist.
  1451. 2019/11/04 15:14:06.1926833 5004 7356 DownloadManager Dynamic download data fetcher for ServiceId 8B24B027-1DEE-BABB-9A95-3517DFB9C552 does not exist.
  1452. 2019/11/04 15:14:06.2628714 5004 7356 DownloadManager Dynamic download data fetcher for ServiceId 8B24B027-1DEE-BABB-9A95-3517DFB9C552 does not exist.
  1453. 2019/11/04 15:14:07.2438999 5004 7356 DownloadManager Dynamic download data fetcher for ServiceId 8B24B027-1DEE-BABB-9A95-3517DFB9C552 does not exist.
  1454. 2019/11/04 15:14:08.2590011 5004 7356 DownloadManager Dynamic download data fetcher for ServiceId 8B24B027-1DEE-BABB-9A95-3517DFB9C552 does not exist.
  1455. 2019/11/04 15:14:08.3274081 5004 7356 DownloadManager Dynamic download data fetcher for ServiceId 8B24B027-1DEE-BABB-9A95-3517DFB9C552 does not exist.
  1456. 2019/11/04 15:14:09.2988874 5004 7356 DownloadManager Dynamic download data fetcher for ServiceId 8B24B027-1DEE-BABB-9A95-3517DFB9C552 does not exist.
  1457. 2019/11/04 15:14:10.3108538 5004 7356 DownloadManager Dynamic download data fetcher for ServiceId 8B24B027-1DEE-BABB-9A95-3517DFB9C552 does not exist.
  1458. 2019/11/04 15:14:10.3817482 5004 7356 DownloadManager Dynamic download data fetcher for ServiceId 8B24B027-1DEE-BABB-9A95-3517DFB9C552 does not exist.
  1459. 2019/11/04 15:14:11.3537536 5004 7356 DownloadManager Dynamic download data fetcher for ServiceId 8B24B027-1DEE-BABB-9A95-3517DFB9C552 does not exist.
  1460. 2019/11/04 15:14:12.3583214 5004 7356 DownloadManager Dynamic download data fetcher for ServiceId 8B24B027-1DEE-BABB-9A95-3517DFB9C552 does not exist.
  1461. 2019/11/04 15:14:12.4214057 5004 7356 DownloadManager Dynamic download data fetcher for ServiceId 8B24B027-1DEE-BABB-9A95-3517DFB9C552 does not exist.
  1462. 2019/11/04 15:14:13.3868559 5004 7356 DownloadManager Dynamic download data fetcher for ServiceId 8B24B027-1DEE-BABB-9A95-3517DFB9C552 does not exist.
  1463. 2019/11/04 15:14:14.4181425 5004 7356 DownloadManager Dynamic download data fetcher for ServiceId 8B24B027-1DEE-BABB-9A95-3517DFB9C552 does not exist.
  1464. 2019/11/04 15:14:15.4389473 5004 7356 DownloadManager Dynamic download data fetcher for ServiceId 8B24B027-1DEE-BABB-9A95-3517DFB9C552 does not exist.
  1465. 2019/11/04 15:14:15.5002054 5004 7356 DownloadManager Dynamic download data fetcher for ServiceId 8B24B027-1DEE-BABB-9A95-3517DFB9C552 does not exist.
  1466. 2019/11/04 15:14:16.4697382 5004 7356 DownloadManager Dynamic download data fetcher for ServiceId 8B24B027-1DEE-BABB-9A95-3517DFB9C552 does not exist.
  1467. 2019/11/04 15:14:17.4960054 5004 7356 DownloadManager Dynamic download data fetcher for ServiceId 8B24B027-1DEE-BABB-9A95-3517DFB9C552 does not exist.
  1468. 2019/11/04 15:14:18.4921280 5004 7356 DownloadManager Dynamic download data fetcher for ServiceId 8B24B027-1DEE-BABB-9A95-3517DFB9C552 does not exist.
  1469. 2019/11/04 15:14:18.5460848 5004 7356 DownloadManager Dynamic download data fetcher for ServiceId 8B24B027-1DEE-BABB-9A95-3517DFB9C552 does not exist.
  1470. 2019/11/04 15:14:19.5316229 5004 7356 DownloadManager Dynamic download data fetcher for ServiceId 8B24B027-1DEE-BABB-9A95-3517DFB9C552 does not exist.
  1471. 2019/11/04 15:14:20.5330080 5004 7356 DownloadManager Dynamic download data fetcher for ServiceId 8B24B027-1DEE-BABB-9A95-3517DFB9C552 does not exist.
  1472. 2019/11/04 15:14:21.5553473 5004 7356 DownloadManager Dynamic download data fetcher for ServiceId 8B24B027-1DEE-BABB-9A95-3517DFB9C552 does not exist.
  1473. 2019/11/04 15:14:21.6085404 5004 7356 DownloadManager Dynamic download data fetcher for ServiceId 8B24B027-1DEE-BABB-9A95-3517DFB9C552 does not exist.
  1474. 2019/11/04 15:14:22.5847443 5004 7356 DownloadManager Dynamic download data fetcher for ServiceId 8B24B027-1DEE-BABB-9A95-3517DFB9C552 does not exist.
  1475. 2019/11/04 15:14:23.6048686 5004 7356 DownloadManager Dynamic download data fetcher for ServiceId 8B24B027-1DEE-BABB-9A95-3517DFB9C552 does not exist.
  1476. 2019/11/04 15:14:23.6612767 5004 7356 DownloadManager Dynamic download data fetcher for ServiceId 8B24B027-1DEE-BABB-9A95-3517DFB9C552 does not exist.
  1477. 2019/11/04 15:14:24.6294470 5004 7356 DownloadManager Dynamic download data fetcher for ServiceId 8B24B027-1DEE-BABB-9A95-3517DFB9C552 does not exist.
  1478. 2019/11/04 15:14:25.6512236 5004 7356 DownloadManager Dynamic download data fetcher for ServiceId 8B24B027-1DEE-BABB-9A95-3517DFB9C552 does not exist.
  1479. 2019/11/04 15:14:26.6956393 5004 7356 DownloadManager Dynamic download data fetcher for ServiceId 8B24B027-1DEE-BABB-9A95-3517DFB9C552 does not exist.
  1480. 2019/11/04 15:14:26.7551216 5004 7356 DownloadManager Dynamic download data fetcher for ServiceId 8B24B027-1DEE-BABB-9A95-3517DFB9C552 does not exist.
  1481. 2019/11/04 15:14:27.7243808 5004 7356 DownloadManager Dynamic download data fetcher for ServiceId 8B24B027-1DEE-BABB-9A95-3517DFB9C552 does not exist.
  1482. 2019/11/04 15:14:28.7383409 5004 7356 DownloadManager Dynamic download data fetcher for ServiceId 8B24B027-1DEE-BABB-9A95-3517DFB9C552 does not exist.
  1483. 2019/11/04 15:14:28.8006046 5004 7356 DownloadManager Dynamic download data fetcher for ServiceId 8B24B027-1DEE-BABB-9A95-3517DFB9C552 does not exist.
  1484. 2019/11/04 15:14:29.8029220 5004 7356 DownloadManager Dynamic download data fetcher for ServiceId 8B24B027-1DEE-BABB-9A95-3517DFB9C552 does not exist.
  1485. 2019/11/04 15:14:30.8091634 5004 7356 DownloadManager Dynamic download data fetcher for ServiceId 8B24B027-1DEE-BABB-9A95-3517DFB9C552 does not exist.
  1486. 2019/11/04 15:14:30.8703386 5004 7356 DownloadManager Dynamic download data fetcher for ServiceId 8B24B027-1DEE-BABB-9A95-3517DFB9C552 does not exist.
  1487. 2019/11/04 15:14:31.8389990 5004 7356 DownloadManager Dynamic download data fetcher for ServiceId 8B24B027-1DEE-BABB-9A95-3517DFB9C552 does not exist.
  1488. 2019/11/04 15:14:32.8465679 5004 7356 DownloadManager Dynamic download data fetcher for ServiceId 8B24B027-1DEE-BABB-9A95-3517DFB9C552 does not exist.
  1489. 2019/11/04 15:14:33.8603627 5004 7356 DownloadManager Dynamic download data fetcher for ServiceId 8B24B027-1DEE-BABB-9A95-3517DFB9C552 does not exist.
  1490. 2019/11/04 15:14:34.8927019 5004 7356 DownloadManager Dynamic download data fetcher for ServiceId 8B24B027-1DEE-BABB-9A95-3517DFB9C552 does not exist.
  1491. 2019/11/04 15:14:34.9516045 5004 7356 DownloadManager Dynamic download data fetcher for ServiceId 8B24B027-1DEE-BABB-9A95-3517DFB9C552 does not exist.
  1492. 2019/11/04 15:14:35.9164592 5004 7356 DownloadManager Dynamic download data fetcher for ServiceId 8B24B027-1DEE-BABB-9A95-3517DFB9C552 does not exist.
  1493. 2019/11/04 15:14:36.9195685 5004 7356 DownloadManager Dynamic download data fetcher for ServiceId 8B24B027-1DEE-BABB-9A95-3517DFB9C552 does not exist.
  1494. 2019/11/04 15:14:37.9702192 5004 7356 DownloadManager Dynamic download data fetcher for ServiceId 8B24B027-1DEE-BABB-9A95-3517DFB9C552 does not exist.
  1495. 2019/11/04 15:14:38.0309476 5004 7356 DownloadManager Dynamic download data fetcher for ServiceId 8B24B027-1DEE-BABB-9A95-3517DFB9C552 does not exist.
  1496. 2019/11/04 15:14:39.0091481 5004 7356 DownloadManager Dynamic download data fetcher for ServiceId 8B24B027-1DEE-BABB-9A95-3517DFB9C552 does not exist.
  1497. 2019/11/04 15:14:40.0363501 5004 7356 DownloadManager Dynamic download data fetcher for ServiceId 8B24B027-1DEE-BABB-9A95-3517DFB9C552 does not exist.
  1498. 2019/11/04 15:14:41.0424800 5004 7356 DownloadManager Dynamic download data fetcher for ServiceId 8B24B027-1DEE-BABB-9A95-3517DFB9C552 does not exist.
  1499. 2019/11/04 15:14:41.1021612 5004 7356 DownloadManager Dynamic download data fetcher for ServiceId 8B24B027-1DEE-BABB-9A95-3517DFB9C552 does not exist.
  1500. 2019/11/04 15:14:42.0925178 5004 7356 DownloadManager Dynamic download data fetcher for ServiceId 8B24B027-1DEE-BABB-9A95-3517DFB9C552 does not exist.
  1501. 2019/11/04 15:14:43.1042712 5004 7356 DownloadManager Dynamic download data fetcher for ServiceId 8B24B027-1DEE-BABB-9A95-3517DFB9C552 does not exist.
  1502. 2019/11/04 15:14:44.1171869 5004 7356 DownloadManager Dynamic download data fetcher for ServiceId 8B24B027-1DEE-BABB-9A95-3517DFB9C552 does not exist.
  1503. 2019/11/04 15:14:44.1797433 5004 7356 DownloadManager Dynamic download data fetcher for ServiceId 8B24B027-1DEE-BABB-9A95-3517DFB9C552 does not exist.
  1504. 2019/11/04 15:14:45.1459978 5004 7356 DownloadManager Dynamic download data fetcher for ServiceId 8B24B027-1DEE-BABB-9A95-3517DFB9C552 does not exist.
  1505. 2019/11/04 15:14:46.1626720 5004 7356 DownloadManager Dynamic download data fetcher for ServiceId 8B24B027-1DEE-BABB-9A95-3517DFB9C552 does not exist.
  1506. 2019/11/04 15:14:47.1724318 5004 7356 DownloadManager Dynamic download data fetcher for ServiceId 8B24B027-1DEE-BABB-9A95-3517DFB9C552 does not exist.
  1507. 2019/11/04 15:14:48.1988269 5004 7356 DownloadManager Dynamic download data fetcher for ServiceId 8B24B027-1DEE-BABB-9A95-3517DFB9C552 does not exist.
  1508. 2019/11/04 15:14:48.2600625 5004 7356 DownloadManager Dynamic download data fetcher for ServiceId 8B24B027-1DEE-BABB-9A95-3517DFB9C552 does not exist.
  1509. 2019/11/04 15:14:49.2381596 5004 7356 DownloadManager Dynamic download data fetcher for ServiceId 8B24B027-1DEE-BABB-9A95-3517DFB9C552 does not exist.
  1510. 2019/11/04 15:14:50.2539982 5004 7356 DownloadManager Dynamic download data fetcher for ServiceId 8B24B027-1DEE-BABB-9A95-3517DFB9C552 does not exist.
  1511. 2019/11/04 15:14:51.2683384 5004 7356 DownloadManager Dynamic download data fetcher for ServiceId 8B24B027-1DEE-BABB-9A95-3517DFB9C552 does not exist.
  1512. 2019/11/04 15:14:52.2900522 5004 7356 DownloadManager Dynamic download data fetcher for ServiceId 8B24B027-1DEE-BABB-9A95-3517DFB9C552 does not exist.
  1513. 2019/11/04 15:14:52.3607336 5004 7356 DownloadManager Dynamic download data fetcher for ServiceId 8B24B027-1DEE-BABB-9A95-3517DFB9C552 does not exist.
  1514. 2019/11/04 15:14:53.3261465 5004 7356 DownloadManager Dynamic download data fetcher for ServiceId 8B24B027-1DEE-BABB-9A95-3517DFB9C552 does not exist.
  1515. 2019/11/04 15:14:54.3527521 5004 7356 DownloadManager Dynamic download data fetcher for ServiceId 8B24B027-1DEE-BABB-9A95-3517DFB9C552 does not exist.
  1516. 2019/11/04 15:14:54.4119432 5004 7356 DownloadManager Dynamic download data fetcher for ServiceId 8B24B027-1DEE-BABB-9A95-3517DFB9C552 does not exist.
  1517. 2019/11/04 15:14:55.3852472 5004 7356 DownloadManager Dynamic download data fetcher for ServiceId 8B24B027-1DEE-BABB-9A95-3517DFB9C552 does not exist.
  1518. 2019/11/04 15:14:56.3937841 5004 7356 DownloadManager Dynamic download data fetcher for ServiceId 8B24B027-1DEE-BABB-9A95-3517DFB9C552 does not exist.
  1519. 2019/11/04 15:14:57.4175935 5004 7356 DownloadManager Dynamic download data fetcher for ServiceId 8B24B027-1DEE-BABB-9A95-3517DFB9C552 does not exist.
  1520. 2019/11/04 15:14:58.4227185 5004 7356 DownloadManager Dynamic download data fetcher for ServiceId 8B24B027-1DEE-BABB-9A95-3517DFB9C552 does not exist.
  1521. 2019/11/04 15:14:59.4395489 5004 7356 DownloadManager Dynamic download data fetcher for ServiceId 8B24B027-1DEE-BABB-9A95-3517DFB9C552 does not exist.
  1522. 2019/11/04 15:15:00.4512166 5004 7356 DownloadManager Dynamic download data fetcher for ServiceId 8B24B027-1DEE-BABB-9A95-3517DFB9C552 does not exist.
  1523. 2019/11/04 15:15:01.4685640 5004 7356 DownloadManager Dynamic download data fetcher for ServiceId 8B24B027-1DEE-BABB-9A95-3517DFB9C552 does not exist.
  1524. 2019/11/04 15:15:02.4837019 5004 7356 DownloadManager Dynamic download data fetcher for ServiceId 8B24B027-1DEE-BABB-9A95-3517DFB9C552 does not exist.
  1525. 2019/11/04 15:15:03.5010538 5004 7356 DownloadManager Dynamic download data fetcher for ServiceId 8B24B027-1DEE-BABB-9A95-3517DFB9C552 does not exist.
  1526. 2019/11/04 15:15:04.5153189 5004 7356 DownloadManager Dynamic download data fetcher for ServiceId 8B24B027-1DEE-BABB-9A95-3517DFB9C552 does not exist.
  1527. 2019/11/04 15:15:05.5333715 5004 7356 DownloadManager Dynamic download data fetcher for ServiceId 8B24B027-1DEE-BABB-9A95-3517DFB9C552 does not exist.
  1528. 2019/11/04 15:15:06.5464413 5004 7356 DownloadManager Dynamic download data fetcher for ServiceId 8B24B027-1DEE-BABB-9A95-3517DFB9C552 does not exist.
  1529. 2019/11/04 15:15:07.5621557 5004 7356 DownloadManager Dynamic download data fetcher for ServiceId 8B24B027-1DEE-BABB-9A95-3517DFB9C552 does not exist.
  1530. 2019/11/04 15:15:08.5820983 5004 7356 DownloadManager Dynamic download data fetcher for ServiceId 8B24B027-1DEE-BABB-9A95-3517DFB9C552 does not exist.
  1531. 2019/11/04 15:15:09.5969791 5004 7356 DownloadManager Dynamic download data fetcher for ServiceId 8B24B027-1DEE-BABB-9A95-3517DFB9C552 does not exist.
  1532. 2019/11/04 15:15:10.6092008 5004 7356 DownloadManager Dynamic download data fetcher for ServiceId 8B24B027-1DEE-BABB-9A95-3517DFB9C552 does not exist.
  1533. 2019/11/04 15:15:11.6254656 5004 7356 DownloadManager Dynamic download data fetcher for ServiceId 8B24B027-1DEE-BABB-9A95-3517DFB9C552 does not exist.
  1534. 2019/11/04 15:15:12.6413542 5004 7356 DownloadManager Dynamic download data fetcher for ServiceId 8B24B027-1DEE-BABB-9A95-3517DFB9C552 does not exist.
  1535. 2019/11/04 15:15:13.6593120 5004 7356 DownloadManager Dynamic download data fetcher for ServiceId 8B24B027-1DEE-BABB-9A95-3517DFB9C552 does not exist.
  1536. 2019/11/04 15:15:14.7052612 5004 7356 DownloadManager Dynamic download data fetcher for ServiceId 8B24B027-1DEE-BABB-9A95-3517DFB9C552 does not exist.
  1537. 2019/11/04 15:15:14.7862521 5004 7356 DownloadManager Dynamic download data fetcher for ServiceId 8B24B027-1DEE-BABB-9A95-3517DFB9C552 does not exist.
  1538. 2019/11/04 15:15:15.7868124 5004 7356 DownloadManager Dynamic download data fetcher for ServiceId 8B24B027-1DEE-BABB-9A95-3517DFB9C552 does not exist.
  1539. 2019/11/04 15:15:16.8036213 5004 7356 DownloadManager Dynamic download data fetcher for ServiceId 8B24B027-1DEE-BABB-9A95-3517DFB9C552 does not exist.
  1540. 2019/11/04 15:15:17.8176710 5004 7356 DownloadManager Dynamic download data fetcher for ServiceId 8B24B027-1DEE-BABB-9A95-3517DFB9C552 does not exist.
  1541. 2019/11/04 15:15:18.8348409 5004 7356 DownloadManager Dynamic download data fetcher for ServiceId 8B24B027-1DEE-BABB-9A95-3517DFB9C552 does not exist.
  1542. 2019/11/04 15:15:18.9009091 5004 7356 DownloadManager Dynamic download data fetcher for ServiceId 8B24B027-1DEE-BABB-9A95-3517DFB9C552 does not exist.
  1543. 2019/11/04 15:15:19.8831707 5004 7356 DownloadManager Dynamic download data fetcher for ServiceId 8B24B027-1DEE-BABB-9A95-3517DFB9C552 does not exist.
  1544. 2019/11/04 15:15:20.8901677 5004 7356 DownloadManager Dynamic download data fetcher for ServiceId 8B24B027-1DEE-BABB-9A95-3517DFB9C552 does not exist.
  1545. 2019/11/04 15:17:40.0826776 5004 1040 DataStore Service 1AB761C1-CE4A-4F88-82B0-D5C805DC0F96 added
  1546. 2019/11/04 15:17:40.0827669 5004 1040 Agent AddTargetedServiceMapping: 1AB761C1-CE4A-4F88-82B0-D5C805DC0F96 -> 7971F918-A847-4430-9279-4A52D1EFE18D
  1547. 2019/11/04 15:17:40.1198583 3044 6516 ComApi * START * Federated Search ClientId = Dynamic Update (cV: FRHrT5Ei9UmEgkBo.1.0)
  1548. 2019/11/04 15:17:40.1213650 5004 1040 IdleTimer WU operation (SR.Dynamic Update ID 7) started; operation # 86; does use network; is not at background priority
  1549. 2019/11/04 15:17:40.1221940 5004 1324 Agent Processing auto/pending service registrations and recovery.
  1550. 2019/11/04 15:17:40.2017526 5004 1324 IdleTimer WU operation (SR.Dynamic Update ID 7, operation # 86) stopped; does use network; is not at background priority
  1551. 2019/11/04 15:17:40.2133202 3044 6376 ComApi Federated Search: Starting search against 2 service(s) (cV = FRHrT5Ei9UmEgkBo.1.0)
  1552. 2019/11/04 15:17:40.2134098 3044 6376 ComApi * START * Search ClientId = Dynamic Update, ServiceId = 7971F918-A847-4430-9279-4A52D1EFE18D (cV = FRHrT5Ei9UmEgkBo.1.0.0)
  1553. 2019/11/04 15:17:40.2143259 5004 1040 IdleTimer WU operation (CSearchCall::Init ID 8) started; operation # 89; does use network; is not at background priority
  1554. 2019/11/04 15:17:40.2383127 5004 1040 Agent * START * Queueing Finding updates [CallerId = Dynamic Update Id = 8]
  1555. 2019/11/04 15:17:40.2383166 5004 1040 Agent Removing service 7971F918-A847-4430-9279-4A52D1EFE18D from sequential scan list
  1556. 2019/11/04 15:17:40.2383201 5004 1040 Agent Service 7971F918-A847-4430-9279-4A52D1EFE18D is not in sequential scan list
  1557. 2019/11/04 15:17:40.2383240 5004 1040 Agent Added service 7971F918-A847-4430-9279-4A52D1EFE18D to sequential scan list
  1558. 2019/11/04 15:17:40.2384989 3044 6376 ComApi * START * Search ClientId = Dynamic Update, ServiceId = 8B24B027-1DEE-BABB-9A95-3517DFB9C552 (cV = FRHrT5Ei9UmEgkBo.1.0.0)
  1559. 2019/11/04 15:17:40.2385384 5004 3688 Agent Service 7971F918-A847-4430-9279-4A52D1EFE18D is in sequential scan list
  1560. 2019/11/04 15:17:40.2392870 5004 1040 IdleTimer WU operation (CSearchCall::Init ID 9) started; operation # 92; does use network; is not at background priority
  1561. 2019/11/04 15:17:40.2452631 5004 6380 Agent * END * Queueing Finding updates [CallerId = Dynamic Update Id = 8]
  1562. 2019/11/04 15:17:40.2530754 5004 6380 Agent * START * Finding updates CallerId = Dynamic Update Id = 8
  1563. 2019/11/04 15:17:40.2530778 5004 6380 Agent Online = Yes; Interactive = Yes; AllowCachedResults = No; Ignore download priority = No
  1564. 2019/11/04 15:17:40.2530792 5004 6380 Agent Criteria = ( CategoryIDs contains 'e4b04398-adbd-4b69-93b9-477322331cd3' )""
  1565. 2019/11/04 15:17:40.2530821 5004 6380 Agent ServiceID = {7971F918-A847-4430-9279-4A52D1EFE18D} Third party service
  1566. 2019/11/04 15:17:40.2530828 5004 6380 Agent Search Scope = {Machine}
  1567. 2019/11/04 15:17:40.2530859 5004 6380 Agent Caller SID for Applicability: S-1-5-18
  1568. 2019/11/04 15:17:40.2729848 5004 1040 Agent * START * Queueing Finding updates [CallerId = Dynamic Update Id = 9]
  1569. 2019/11/04 15:17:40.2729891 5004 1040 Agent Removing service 8B24B027-1DEE-BABB-9A95-3517DFB9C552 from sequential scan list
  1570. 2019/11/04 15:17:40.2729926 5004 1040 Agent Service 8B24B027-1DEE-BABB-9A95-3517DFB9C552 is not in sequential scan list
  1571. 2019/11/04 15:17:40.2729965 5004 1040 Agent Added service 8B24B027-1DEE-BABB-9A95-3517DFB9C552 to sequential scan list
  1572. 2019/11/04 15:17:40.3272516 5004 6380 Misc Got 7971F918-A847-4430-9279-4A52D1EFE18D redir Client/Server URL: https://fe2.update.microsoft.com/v6/ClientWebService/client.asmx""
  1573. 2019/11/04 15:17:40.3840184 5004 6380 ProtocolTalker ServiceId = {7971F918-A847-4430-9279-4A52D1EFE18D}, Server URL = https://fe2.update.microsoft.com/v6/ClientWebService/client.asmx
  1574. 2019/11/04 15:17:40.3840215 5004 6380 ProtocolTalker OK to reuse existing configuration
  1575. 2019/11/04 15:17:40.3840244 5004 6380 ProtocolTalker Existing cookie is valid, just use it
  1576. 2019/11/04 15:17:40.3840353 5004 6380 IdleTimer WU operation (CAgentProtocolTalker::StartCategoryScan_WithRecovery) started; operation # 93; does use network; is at background priority
  1577. 2019/11/04 15:17:40.3840448 5004 6380 WebServices Auto proxy settings for this web service call.
  1578. 2019/11/04 15:17:40.5208758 5004 7356 DownloadManager Dynamic download data fetcher for ServiceId 8B24B027-1DEE-BABB-9A95-3517DFB9C552 does not exist.
  1579. 2019/11/04 15:17:40.5923736 5004 6380 IdleTimer WU operation (CAgentProtocolTalker::StartCategoryScan_WithRecovery, operation # 93) stopped; does use network; is at background priority
  1580. 2019/11/04 15:17:40.6105489 5004 6380 ProtocolTalker ServiceId = {7971F918-A847-4430-9279-4A52D1EFE18D}, Server URL = https://fe2.update.microsoft.com/v6/ClientWebService/client.asmx
  1581. 2019/11/04 15:17:40.6105714 5004 6380 ProtocolTalker OK to reuse existing configuration
  1582. 2019/11/04 15:17:40.6105771 5004 6380 ProtocolTalker Existing cookie is valid, just use it
  1583. 2019/11/04 15:17:40.6157337 5004 6380 IdleTimer WU operation (CAgentProtocolTalker::SyncUpdates_WithRecover) started; operation # 94; does use network; is at background priority
  1584. 2019/11/04 15:17:40.7046677 5004 6380 IdleTimer WU operation (CAgentProtocolTalker::SyncUpdates_WithRecover, operation # 94) stopped; does use network; is at background priority
  1585. 2019/11/04 15:17:40.7307212 5004 6380 Metadata Enforcement Mode: Unknown => Audit
  1586. 2019/11/04 15:17:40.7307233 5004 6380 Metadata TimestampToken Validity: 0 => 90 (days)
  1587. 2019/11/04 15:17:40.7307251 5004 6380 Metadata Using mode: Audit, validity: 90
  1588. 2019/11/04 15:17:40.7422669 5004 6380 ProtocolTalker SyncUpdates - 0 bad out of 55 metadata signatures checked using Audit enforcement mode.
  1589. 2019/11/04 15:17:40.7734820 5004 6380 IdleTimer WU operation (CAgentProtocolTalker::SyncUpdates_WithRecover) started; operation # 95; does use network; is at background priority
  1590. 2019/11/04 15:17:40.8291772 5004 6380 IdleTimer WU operation (CAgentProtocolTalker::SyncUpdates_WithRecover, operation # 95) stopped; does use network; is at background priority
  1591. 2019/11/04 15:17:40.8773239 5004 6380 Metadata Enforcement Mode: Unknown => Audit
  1592. 2019/11/04 15:17:40.8773264 5004 6380 Metadata TimestampToken Validity: 0 => 90 (days)
  1593. 2019/11/04 15:17:40.8773285 5004 6380 Metadata Using mode: Audit, validity: 90
  1594. 2019/11/04 15:17:40.8947792 5004 6380 ProtocolTalker SyncUpdates - 0 bad out of 93 metadata signatures checked using Audit enforcement mode.
  1595. 2019/11/04 15:17:40.9349557 5004 6380 IdleTimer WU operation (CAgentProtocolTalker::SyncUpdates_WithRecover) started; operation # 96; does use network; is at background priority
  1596. 2019/11/04 15:17:40.9850700 5004 6380 IdleTimer WU operation (CAgentProtocolTalker::SyncUpdates_WithRecover, operation # 96) stopped; does use network; is at background priority
  1597. 2019/11/04 15:17:40.9871861 5004 6380 ProtocolTalker Skipping driver sync because it's not supported.
  1598. 2019/11/04 15:17:40.9871885 5004 6380 ProtocolTalker SyncUpdates round trips: 3
  1599. 2019/11/04 15:17:41.0046173 5004 6380 ProtocolTalker ServiceId = {7971F918-A847-4430-9279-4A52D1EFE18D}, Server URL = https://fe2.update.microsoft.com/v6/ClientWebService/client.asmx
  1600. 2019/11/04 15:17:41.0046195 5004 6380 ProtocolTalker OK to reuse existing configuration
  1601. 2019/11/04 15:17:41.0046226 5004 6380 ProtocolTalker Existing cookie is valid, just use it
  1602. 2019/11/04 15:17:41.0046336 5004 6380 IdleTimer WU operation (CAgentProtocolTalker::GetExtendedUpdateInfo_WithRecovery) started; operation # 97; does use network; is at background priority
  1603. 2019/11/04 15:17:41.0514442 5004 6380 IdleTimer WU operation (CAgentProtocolTalker::GetExtendedUpdateInfo_WithRecovery, operation # 97) stopped; does use network; is at background priority
  1604. 2019/11/04 15:17:41.0971635 5004 6380 Metadata Enforcement Mode: Unknown => Audit
  1605. 2019/11/04 15:17:41.0971653 5004 6380 Metadata TimestampToken Validity: 0 => 90 (days)
  1606. 2019/11/04 15:17:41.0971667 5004 6380 Metadata Using mode: Audit, validity: 90
  1607. 2019/11/04 15:17:41.1016284 5004 6380 ProtocolTalker SyncExtendedUpdateInfo - 0 bad out of 161 metadata signatures checked using Audit enforcement mode.
  1608. 2019/11/04 15:17:41.1112901 5004 6380 DownloadManager *FAILED* [80240008] Failed to lock the revision for the update 17340910-3D57-475F-8CCE-4A7FBE1018E1.200 (SessionData = (null))
  1609. 2019/11/04 15:17:41.1113042 5004 6380 DownloadManager *FAILED* [80240008] Failed to lock the revision for the update 94FC6C1D-20DA-4BD7-B3FB-2A345385F0F8.202 (SessionData = (null))
  1610. 2019/11/04 15:17:41.1113158 5004 6380 DownloadManager *FAILED* [80240008] Failed to lock the revision for the update 95BDD51E-6041-4345-B156-D2FB3B5C7390.202 (SessionData = (null))
  1611. 2019/11/04 15:17:41.1113296 5004 6380 DownloadManager *FAILED* [80240008] Failed to lock the revision for the update 749D7637-DF9A-4F5E-96B0-507832841064.200 (SessionData = (null))
  1612. 2019/11/04 15:17:41.1113408 5004 6380 DownloadManager *FAILED* [80240008] Failed to lock the revision for the update 288A6647-CD90-42E5-BC23-1C2FA6AFA950.200 (SessionData = (null))
  1613. 2019/11/04 15:17:41.1113514 5004 6380 DownloadManager *FAILED* [80240008] Failed to lock the revision for the update F7D3E251-FEA1-4866-81F6-66F31B77FD9A.202 (SessionData = (null))
  1614. 2019/11/04 15:17:41.1113624 5004 6380 DownloadManager *FAILED* [80240008] Failed to lock the revision for the update BB7A7A5E-AFE6-4FAD-9E4D-30BE8D1CBE10.200 (SessionData = (null))
  1615. 2019/11/04 15:17:41.1113726 5004 6380 DownloadManager *FAILED* [80240008] Failed to lock the revision for the update 94BAD96D-2FEE-4758-B9DC-D4DD78095370.201 (SessionData = (null))
  1616. 2019/11/04 15:17:41.1113832 5004 6380 DownloadManager *FAILED* [80240008] Failed to lock the revision for the update 656BA87A-7396-44E8-BEE9-8DC30D02A819.201 (SessionData = (null))
  1617. 2019/11/04 15:17:41.1113941 5004 6380 DownloadManager *FAILED* [80240008] Failed to lock the revision for the update 3E42E97E-13F4-461B-9FCB-43E3DDFAD9E7.200 (SessionData = (null))
  1618. 2019/11/04 15:17:41.1114050 5004 6380 DownloadManager *FAILED* [80240008] Failed to lock the revision for the update B775B780-5D40-47E6-995E-06F7BB0A9189.200 (SessionData = (null))
  1619. 2019/11/04 15:17:41.1114163 5004 6380 DownloadManager *FAILED* [80240008] Failed to lock the revision for the update AAB27A85-9EF4-4F3B-8E69-D5ED0729196E.200 (SessionData = (null))
  1620. 2019/11/04 15:17:41.1114286 5004 6380 DownloadManager *FAILED* [80240008] Failed to lock the revision for the update 6BEBDE86-1A36-434B-B838-9A59EE71F70F.200 (SessionData = (null))
  1621. 2019/11/04 15:17:41.1114413 5004 6380 DownloadManager *FAILED* [80240008] Failed to lock the revision for the update 98F23C8F-9F47-4EB9-A0D0-BDE54C8ED5AE.200 (SessionData = (null))
  1622. 2019/11/04 15:17:41.1114530 5004 6380 DownloadManager *FAILED* [80240008] Failed to lock the revision for the update 11BEA592-A77C-4390-BD9F-C407E3A4878B.200 (SessionData = (null))
  1623. 2019/11/04 15:17:41.1114639 5004 6380 DownloadManager *FAILED* [80240008] Failed to lock the revision for the update 3661A695-93FC-46E6-A139-61C0BA82E5AD.202 (SessionData = (null))
  1624. 2019/11/04 15:17:41.1114770 5004 6380 DownloadManager *FAILED* [80240008] Failed to lock the revision for the update E7628A98-C5BE-4015-B59E-2CA0F4068D74.202 (SessionData = (null))
  1625. 2019/11/04 15:17:41.1114904 5004 6380 DownloadManager *FAILED* [80240008] Failed to lock the revision for the update 7AE181C1-6EE2-494B-9E51-55688A32CEC0.200 (SessionData = (null))
  1626. 2019/11/04 15:17:41.1115038 5004 6380 DownloadManager *FAILED* [80240008] Failed to lock the revision for the update 5E93B4C5-7587-4D96-8DC9-83B7F752206B.202 (SessionData = (null))
  1627. 2019/11/04 15:17:41.1115168 5004 6380 DownloadManager *FAILED* [80240008] Failed to lock the revision for the update F6B7FDC5-3304-4ECC-A48D-3856CD987158.202 (SessionData = (null))
  1628. 2019/11/04 15:17:41.1115295 5004 6380 DownloadManager *FAILED* [80240008] Failed to lock the revision for the update FE081CD7-B1E3-4823-B0D9-23E77DF6AFDA.202 (SessionData = (null))
  1629. 2019/11/04 15:17:41.1115408 5004 6380 DownloadManager *FAILED* [80240008] Failed to lock the revision for the update 71C1BBD7-9FFD-4BF7-9999-AB8F6984408D.200 (SessionData = (null))
  1630. 2019/11/04 15:17:41.1115521 5004 6380 DownloadManager *FAILED* [80240008] Failed to lock the revision for the update 5455E1DA-97F5-46DF-8D83-2221B9258F4F.202 (SessionData = (null))
  1631. 2019/11/04 15:17:41.1115640 5004 6380 DownloadManager *FAILED* [80240008] Failed to lock the revision for the update 079AA3DF-2408-44B9-B423-8446484F6F3F.201 (SessionData = (null))
  1632. 2019/11/04 15:17:41.1115767 5004 6380 DownloadManager *FAILED* [80240008] Failed to lock the revision for the update 457AADE0-F9C5-4A1F-B38D-81AEFD50794A.201 (SessionData = (null))
  1633. 2019/11/04 15:17:41.1115898 5004 6380 DownloadManager *FAILED* [80240008] Failed to lock the revision for the update 510085E4-47F3-411A-B1BD-53BA495C9679.200 (SessionData = (null))
  1634. 2019/11/04 15:17:41.1116011 5004 6380 DownloadManager *FAILED* [80240008] Failed to lock the revision for the update 118457E5-1756-4E73-A8DA-7E4535B2A2EA.200 (SessionData = (null))
  1635. 2019/11/04 15:17:41.1116117 5004 6380 DownloadManager *FAILED* [80240008] Failed to lock the revision for the update 80D73FF3-2265-4730-9486-174F2A0B17A8.200 (SessionData = (null))
  1636. 2019/11/04 15:17:41.1116240 5004 6380 DownloadManager *FAILED* [80240008] Failed to lock the revision for the update 317784F6-8FA6-47C3-84A7-C3B9DCB0B57E.200 (SessionData = (null))
  1637. 2019/11/04 15:17:41.1116360 5004 6380 DownloadManager *FAILED* [80240008] Failed to lock the revision for the update 3A1CA8FB-2266-47F8-B18C-C29EA015163F.200 (SessionData = (null))
  1638. 2019/11/04 15:17:41.1116487 5004 6380 DownloadManager *FAILED* [80240008] Failed to lock the revision for the update 22061EFE-FA9E-4880-AF85-01C1B20FF47B.200 (SessionData = (null))
  1639. 2019/11/04 15:17:41.1116600 5004 6380 DownloadManager *FAILED* [80240008] Failed to lock the revision for the update 3C33C3FE-578F-44BF-9AF9-AED6BA536A43.202 (SessionData = (null))
  1640. 2019/11/04 15:17:41.1185952 5004 6380 DownloadManager *FAILED* [80240008] Failed to lock the revision for the update 94FC6C1D-20DA-4BD7-B3FB-2A345385F0F8.202 (SessionData = (null))
  1641. 2019/11/04 15:17:41.1186093 5004 6380 DownloadManager *FAILED* [80240008] Failed to lock the revision for the update 95BDD51E-6041-4345-B156-D2FB3B5C7390.202 (SessionData = (null))
  1642. 2019/11/04 15:17:41.1186206 5004 6380 DownloadManager *FAILED* [80240008] Failed to lock the revision for the update 749D7637-DF9A-4F5E-96B0-507832841064.200 (SessionData = (null))
  1643. 2019/11/04 15:17:41.1186312 5004 6380 DownloadManager *FAILED* [80240008] Failed to lock the revision for the update 288A6647-CD90-42E5-BC23-1C2FA6AFA950.200 (SessionData = (null))
  1644. 2019/11/04 15:17:41.1186414 5004 6380 DownloadManager *FAILED* [80240008] Failed to lock the revision for the update F7D3E251-FEA1-4866-81F6-66F31B77FD9A.202 (SessionData = (null))
  1645. 2019/11/04 15:17:41.1186520 5004 6380 DownloadManager *FAILED* [80240008] Failed to lock the revision for the update BB7A7A5E-AFE6-4FAD-9E4D-30BE8D1CBE10.200 (SessionData = (null))
  1646. 2019/11/04 15:17:41.1186626 5004 6380 DownloadManager *FAILED* [80240008] Failed to lock the revision for the update 94BAD96D-2FEE-4758-B9DC-D4DD78095370.201 (SessionData = (null))
  1647. 2019/11/04 15:17:41.1186756 5004 6380 DownloadManager *FAILED* [80240008] Failed to lock the revision for the update 656BA87A-7396-44E8-BEE9-8DC30D02A819.201 (SessionData = (null))
  1648. 2019/11/04 15:17:41.1186866 5004 6380 DownloadManager *FAILED* [80240008] Failed to lock the revision for the update 3E42E97E-13F4-461B-9FCB-43E3DDFAD9E7.200 (SessionData = (null))
  1649. 2019/11/04 15:17:41.1186968 5004 6380 DownloadManager *FAILED* [80240008] Failed to lock the revision for the update B775B780-5D40-47E6-995E-06F7BB0A9189.200 (SessionData = (null))
  1650. 2019/11/04 15:17:41.1187074 5004 6380 DownloadManager *FAILED* [80240008] Failed to lock the revision for the update AAB27A85-9EF4-4F3B-8E69-D5ED0729196E.200 (SessionData = (null))
  1651. 2019/11/04 15:17:41.1187179 5004 6380 DownloadManager *FAILED* [80240008] Failed to lock the revision for the update 6BEBDE86-1A36-434B-B838-9A59EE71F70F.200 (SessionData = (null))
  1652. 2019/11/04 15:17:41.1187289 5004 6380 DownloadManager *FAILED* [80240008] Failed to lock the revision for the update 98F23C8F-9F47-4EB9-A0D0-BDE54C8ED5AE.200 (SessionData = (null))
  1653. 2019/11/04 15:17:41.1187405 5004 6380 DownloadManager *FAILED* [80240008] Failed to lock the revision for the update 11BEA592-A77C-4390-BD9F-C407E3A4878B.200 (SessionData = (null))
  1654. 2019/11/04 15:17:41.1187522 5004 6380 DownloadManager *FAILED* [80240008] Failed to lock the revision for the update 3661A695-93FC-46E6-A139-61C0BA82E5AD.202 (SessionData = (null))
  1655. 2019/11/04 15:17:41.1187871 5004 6380 DownloadManager *FAILED* [80240008] Failed to lock the revision for the update E7628A98-C5BE-4015-B59E-2CA0F4068D74.202 (SessionData = (null))
  1656. 2019/11/04 15:17:41.1188209 5004 6380 DownloadManager *FAILED* [80240008] Failed to lock the revision for the update D47E77BD-A4DC-4615-ACD4-69C35BDDFE39.200 (SessionData = (null))
  1657. 2019/11/04 15:17:41.1188639 5004 6380 DownloadManager *FAILED* [80240008] Failed to lock the revision for the update 7AE181C1-6EE2-494B-9E51-55688A32CEC0.200 (SessionData = (null))
  1658. 2019/11/04 15:17:41.1189115 5004 6380 DownloadManager *FAILED* [80240008] Failed to lock the revision for the update F6B7FDC5-3304-4ECC-A48D-3856CD987158.202 (SessionData = (null))
  1659. 2019/11/04 15:17:41.1189419 5004 6380 DownloadManager *FAILED* [80240008] Failed to lock the revision for the update 359DB8D3-A6FC-4125-A4A5-E6BAC6C67892.200 (SessionData = (null))
  1660. 2019/11/04 15:17:41.1189732 5004 6380 DownloadManager *FAILED* [80240008] Failed to lock the revision for the update FE081CD7-B1E3-4823-B0D9-23E77DF6AFDA.202 (SessionData = (null))
  1661. 2019/11/04 15:17:41.1190007 5004 6380 DownloadManager *FAILED* [80240008] Failed to lock the revision for the update 71C1BBD7-9FFD-4BF7-9999-AB8F6984408D.200 (SessionData = (null))
  1662. 2019/11/04 15:17:41.1190402 5004 6380 DownloadManager *FAILED* [80240008] Failed to lock the revision for the update 079AA3DF-2408-44B9-B423-8446484F6F3F.201 (SessionData = (null))
  1663. 2019/11/04 15:17:41.1190656 5004 6380 DownloadManager *FAILED* [80240008] Failed to lock the revision for the update 457AADE0-F9C5-4A1F-B38D-81AEFD50794A.201 (SessionData = (null))
  1664. 2019/11/04 15:17:41.1191094 5004 6380 DownloadManager *FAILED* [80240008] Failed to lock the revision for the update 510085E4-47F3-411A-B1BD-53BA495C9679.200 (SessionData = (null))
  1665. 2019/11/04 15:17:41.1191323 5004 6380 DownloadManager *FAILED* [80240008] Failed to lock the revision for the update 118457E5-1756-4E73-A8DA-7E4535B2A2EA.200 (SessionData = (null))
  1666. 2019/11/04 15:17:41.1191612 5004 6380 DownloadManager *FAILED* [80240008] Failed to lock the revision for the update 80D73FF3-2265-4730-9486-174F2A0B17A8.200 (SessionData = (null))
  1667. 2019/11/04 15:17:41.1191795 5004 6380 DownloadManager *FAILED* [80240008] Failed to lock the revision for the update 317784F6-8FA6-47C3-84A7-C3B9DCB0B57E.200 (SessionData = (null))
  1668. 2019/11/04 15:17:41.1191972 5004 6380 DownloadManager *FAILED* [80240008] Failed to lock the revision for the update 22061EFE-FA9E-4880-AF85-01C1B20FF47B.200 (SessionData = (null))
  1669. 2019/11/04 15:17:41.1192141 5004 6380 DownloadManager *FAILED* [80240008] Failed to lock the revision for the update 3C33C3FE-578F-44BF-9AF9-AED6BA536A43.202 (SessionData = (null))
  1670. 2019/11/04 15:17:41.1246320 5004 6380 DownloadManager *FAILED* [80240008] Failed to lock the revision for the update 17340910-3D57-475F-8CCE-4A7FBE1018E1.200 (SessionData = (null))
  1671. 2019/11/04 15:17:41.1246581 5004 6380 DownloadManager *FAILED* [80240008] Failed to lock the revision for the update 5E93B4C5-7587-4D96-8DC9-83B7F752206B.202 (SessionData = (null))
  1672. 2019/11/04 15:17:41.1246694 5004 6380 DownloadManager *FAILED* [80240008] Failed to lock the revision for the update 5455E1DA-97F5-46DF-8D83-2221B9258F4F.202 (SessionData = (null))
  1673. 2019/11/04 15:17:41.1246800 5004 6380 DownloadManager *FAILED* [80240008] Failed to lock the revision for the update 3A1CA8FB-2266-47F8-B18C-C29EA015163F.200 (SessionData = (null))
  1674. 2019/11/04 15:17:41.1382392 5004 6380 Agent Update 359DB8D3-A6FC-4125-A4A5-E6BAC6C67892.200 is pruned out due to potential supersedence
  1675. 2019/11/04 15:17:41.1382448 5004 6380 Agent Update F6B7FDC5-3304-4ECC-A48D-3856CD987158.202 is pruned out due to potential supersedence
  1676. 2019/11/04 15:17:41.1382477 5004 6380 Agent Update BB7A7A5E-AFE6-4FAD-9E4D-30BE8D1CBE10.200 is pruned out due to potential supersedence
  1677. 2019/11/04 15:17:41.1382501 5004 6380 Agent Update AAB27A85-9EF4-4F3B-8E69-D5ED0729196E.200 is pruned out due to potential supersedence
  1678. 2019/11/04 15:17:41.1382526 5004 6380 Agent Update 749D7637-DF9A-4F5E-96B0-507832841064.200 is pruned out due to potential supersedence
  1679. 2019/11/04 15:17:41.1382551 5004 6380 Agent Update 7AE181C1-6EE2-494B-9E51-55688A32CEC0.200 is pruned out due to potential supersedence
  1680. 2019/11/04 15:17:41.1382575 5004 6380 Agent Update 3661A695-93FC-46E6-A139-61C0BA82E5AD.202 is pruned out due to potential supersedence
  1681. 2019/11/04 15:17:41.1382600 5004 6380 Agent Update 288A6647-CD90-42E5-BC23-1C2FA6AFA950.200 is pruned out due to potential supersedence
  1682. 2019/11/04 15:17:41.1382625 5004 6380 Agent Update 079AA3DF-2408-44B9-B423-8446484F6F3F.201 is pruned out due to potential supersedence
  1683. 2019/11/04 15:17:41.1382649 5004 6380 Agent Update 3E42E97E-13F4-461B-9FCB-43E3DDFAD9E7.200 is pruned out due to potential supersedence
  1684. 2019/11/04 15:17:41.1382674 5004 6380 Agent Update 94FC6C1D-20DA-4BD7-B3FB-2A345385F0F8.202 is pruned out due to potential supersedence
  1685. 2019/11/04 15:17:41.1382699 5004 6380 Agent Update 94BAD96D-2FEE-4758-B9DC-D4DD78095370.201 is pruned out due to potential supersedence
  1686. 2019/11/04 15:17:41.1382720 5004 6380 Agent Update 95BDD51E-6041-4345-B156-D2FB3B5C7390.202 is pruned out due to potential supersedence
  1687. 2019/11/04 15:17:41.1382752 5004 6380 Agent Update 22061EFE-FA9E-4880-AF85-01C1B20FF47B.200 is pruned out due to potential supersedence
  1688. 2019/11/04 15:17:41.1382776 5004 6380 Agent Update 317784F6-8FA6-47C3-84A7-C3B9DCB0B57E.200 is pruned out due to potential supersedence
  1689. 2019/11/04 15:17:41.1382804 5004 6380 Agent Update 5455E1DA-97F5-46DF-8D83-2221B9258F4F.202 is pruned out due to potential supersedence
  1690. 2019/11/04 15:17:41.1382882 5004 6380 Agent Added update 17340910-3D57-475F-8CCE-4A7FBE1018E1.200 to search result
  1691. 2019/11/04 15:17:41.1383009 5004 6380 Agent Found 1 updates and 4 categories in search; evaluated appl. rules of 110 out of 127 deployed entities
  1692. 2019/11/04 15:17:41.1507970 5004 6380 Agent * END * Finding updates CallerId = Dynamic Update Id = 8
  1693. 2019/11/04 15:17:41.1548404 5004 6380 IdleTimer WU operation (CSearchCall::Init ID 8, operation # 89) stopped; does use network; is not at background priority
  1694. 2019/11/04 15:17:41.1553817 5004 3688 Agent Service 8B24B027-1DEE-BABB-9A95-3517DFB9C552 is in sequential scan list
  1695. 2019/11/04 15:17:41.1593532 5004 4512 Agent * END * Queueing Finding updates [CallerId = Dynamic Update Id = 9]
  1696. 2019/11/04 15:17:41.1629065 5004 4512 Agent * START * Finding updates CallerId = Dynamic Update Id = 9
  1697. 2019/11/04 15:17:41.1629086 5004 4512 Agent Online = Yes; Interactive = Yes; AllowCachedResults = No; Ignore download priority = No
  1698. 2019/11/04 15:17:41.1629097 5004 4512 Agent Criteria = ( CategoryIDs contains 'e4b04398-adbd-4b69-93b9-477322331cd3' )""
  1699. 2019/11/04 15:17:41.1629125 5004 4512 Agent ServiceID = {8B24B027-1DEE-BABB-9A95-3517DFB9C552} Third party service
  1700. 2019/11/04 15:17:41.1629132 5004 4512 Agent Search Scope = {Machine}
  1701. 2019/11/04 15:17:41.1629157 5004 4512 Agent Caller SID for Applicability: S-1-5-18
  1702. 2019/11/04 15:17:41.1657084 3044 7796 ComApi *RESUMED* Search ClientId = Dynamic Update, ServiceId = 7971F918-A847-4430-9279-4A52D1EFE18D (cV = FRHrT5Ei9UmEgkBo.1.0.0)
  1703. 2019/11/04 15:17:41.1687935 3044 7796 ComApi * END * Search ClientId = Dynamic Update, Updates found = 1, ServiceId = 7971F918-A847-4430-9279-4A52D1EFE18D (cV = FRHrT5Ei9UmEgkBo.1.0.0)
  1704. 2019/11/04 15:17:41.2300741 5004 4512 Misc Got 8B24B027-1DEE-BABB-9A95-3517DFB9C552 redir Client/Server URL: https://fe3.delivery.mp.microsoft.com/ClientWebService/client.asmx""
  1705. 2019/11/04 15:17:41.2309042 5004 4512 Misc Token Requested with 0 category IDs.
  1706. 2019/11/04 15:17:41.2331229 5004 4512 Misc Device tickets obtained as Local System
  1707. 2019/11/04 15:17:41.2331941 5004 4512 Misc Acquired new token from Server
  1708. 2019/11/04 15:17:41.2332544 5004 4512 Misc Got service 8B24B027-1DEE-BABB-9A95-3517DFB9C552 plugin Client/Server auth token of type 0x00000001
  1709. 2019/11/04 15:17:41.2889210 5004 4512 Driver Skipping printer driver 7 due to incomplete info or mismatched environment - HWID[microsoftmicrosoft_musd] Provider[Microsoft] MfgName[Microsoft] Name[Microsoft enhanced Point and Print compatibility driver] pEnvironment[Windows NT x86] LocalPrintServerEnv[Windows x64]
  1710. 2019/11/04 15:17:41.5615375 5004 7356 DownloadManager Dynamic download data fetcher for ServiceId 8B24B027-1DEE-BABB-9A95-3517DFB9C552 does not exist.
  1711. 2019/11/04 15:17:41.6761388 5004 4512 ProtocolTalker ServiceId = {8B24B027-1DEE-BABB-9A95-3517DFB9C552}, Server URL = https://fe3.delivery.mp.microsoft.com/ClientWebService/client.asmx
  1712. 2019/11/04 15:17:41.6761399 5004 4512 ProtocolTalker OK to reuse existing configuration
  1713. 2019/11/04 15:17:41.6761427 5004 4512 ProtocolTalker Existing cookie is valid, just use it
  1714. 2019/11/04 15:17:41.6761526 5004 4512 IdleTimer WU operation (CAgentProtocolTalker::StartCategoryScan_WithRecovery) started; operation # 99; does use network; is at background priority
  1715. 2019/11/04 15:17:41.6761582 5004 4512 WebServices Auto proxy settings for this web service call.
  1716. 2019/11/04 15:17:41.8359298 5004 4512 IdleTimer WU operation (CAgentProtocolTalker::StartCategoryScan_WithRecovery, operation # 99) stopped; does use network; is at background priority
  1717. 2019/11/04 15:17:41.8681178 5004 4512 ProtocolTalker ServiceId = {8B24B027-1DEE-BABB-9A95-3517DFB9C552}, Server URL = https://fe3.delivery.mp.microsoft.com/ClientWebService/client.asmx
  1718. 2019/11/04 15:17:41.8682613 5004 4512 ProtocolTalker OK to reuse existing configuration
  1719. 2019/11/04 15:17:41.8682638 5004 4512 ProtocolTalker Existing cookie is valid, just use it
  1720. 2019/11/04 15:17:41.8684524 5004 4512 ProtocolTalker ProductAttributes: (null) | CallerAttributes: E:Interactive=1&Id=Dynamic%20Update& | CurrentVersionOnly: No
  1721. 2019/11/04 15:17:41.8685568 5004 4512 Agent Service supports deferral, but still sends down deferred update 8B105828-2E9A-408F-8619-C2630E7231AE.1 unexpectedly. Update is not deferred anymore.
  1722. 2019/11/04 15:17:41.8955430 5004 4512 IdleTimer WU operation (CAgentProtocolTalker::SyncUpdates_WithRecover) started; operation # 100; does use network; is at background priority
  1723. 2019/11/04 15:17:41.9294129 5004 4512 IdleTimer WU operation (CAgentProtocolTalker::SyncUpdates_WithRecover, operation # 100) stopped; does use network; is at background priority
  1724. 2019/11/04 15:17:41.9299235 5004 4512 Agent Service supports deferral, but still sends down deferred update 8B105828-2E9A-408F-8619-C2630E7231AE.1 unexpectedly. Update is not deferred anymore.
  1725. 2019/11/04 15:17:41.9659261 5004 4512 IdleTimer WU operation (CAgentProtocolTalker::SyncUpdates_WithRecover) started; operation # 101; does use network; is at background priority
  1726. 2019/11/04 15:17:42.3598394 5004 4512 IdleTimer WU operation (CAgentProtocolTalker::SyncUpdates_WithRecover, operation # 101) stopped; does use network; is at background priority
  1727. 2019/11/04 15:17:42.3602967 5004 4512 ProtocolTalker SyncUpdates round trips: 2
  1728. 2019/11/04 15:17:42.3693541 5004 4512 Agent Service supports deferral, but still sends down deferred update 8B105828-2E9A-408F-8619-C2630E7231AE.1 unexpectedly. Update is not deferred anymore.
  1729. 2019/11/04 15:17:42.3697934 5004 4512 Agent Service supports deferral, but still sends down deferred update 8B105828-2E9A-408F-8619-C2630E7231AE.1 unexpectedly. Update is not deferred anymore.
  1730. 2019/11/04 15:17:42.4241783 5004 4512 Agent Found 0 updates and 0 categories in search; evaluated appl. rules of 19 out of 53 deployed entities
  1731. 2019/11/04 15:17:42.4359913 5004 4512 Agent * END * Finding updates CallerId = Dynamic Update Id = 9
  1732. 2019/11/04 15:17:42.4376846 5004 4512 IdleTimer WU operation (CSearchCall::Init ID 9, operation # 92) stopped; does use network; is not at background priority
  1733. 2019/11/04 15:17:42.4471093 3044 7796 ComApi *RESUMED* Search ClientId = Dynamic Update, ServiceId = 8B24B027-1DEE-BABB-9A95-3517DFB9C552 (cV = FRHrT5Ei9UmEgkBo.1.0.0)
  1734. 2019/11/04 15:17:42.4475942 3044 7796 ComApi * END * Search ClientId = Dynamic Update, Updates found = 0, ServiceId = 8B24B027-1DEE-BABB-9A95-3517DFB9C552 (cV = FRHrT5Ei9UmEgkBo.1.0.0)
  1735. 2019/11/04 15:17:42.4479563 3044 6376 ComApi * END * All federated searches have completed. Jobs = 2, Succeeded = 2, ClientId = Dynamic Update (cV = FRHrT5Ei9UmEgkBo.1.0)
  1736. 2019/11/04 15:17:42.4994748 3044 6516 ComApi * START * Federated Download ClientId = Dynamic Update (cV = FRHrT5Ei9UmEgkBo.2.0)
  1737. 2019/11/04 15:17:42.4997287 3044 4516 ComApi Federated Download: Starting download for 1 service(s) (cV = FRHrT5Ei9UmEgkBo.2.0)
  1738. 2019/11/04 15:17:42.4998281 3044 4516 ComApi * START * Download ClientId = Dynamic Update
  1739. 2019/11/04 15:17:42.4998323 3044 4516 ComApi Flags: 0X10012; Download priority: 3; Network Cost Policy: 4
  1740. 2019/11/04 15:17:42.4998334 3044 4516 ComApi Updates in request: 1
  1741. 2019/11/04 15:17:42.4998422 3044 4516 ComApi ServiceID = {7971F918-A847-4430-9279-4A52D1EFE18D} Third party service
  1742. 2019/11/04 15:17:42.5187665 5004 7356 DownloadManager Dynamic download data fetcher for ServiceId 8B24B027-1DEE-BABB-9A95-3517DFB9C552 does not exist.
  1743. 2019/11/04 15:17:42.5237574 3044 4516 ComApi *QUEUED* Download ClientId = Dynamic Update
  1744. 2019/11/04 15:17:42.5237687 5004 7356 Agent Effective power state: AC; IsOnAC: Yes.
  1745. 2019/11/04 15:17:42.5237793 5004 7356 IdleTimer WU operation (DL.Dynamic Update) started; operation # 112; does use network; is not at background priority
  1746. 2019/11/04 15:17:42.5237835 5004 7356 Agent Obtained a network PDC reference for callID {E5F787C8-C061-40AB-B0C1-0F25C4209C15} with No-Progress-Timeout set to 4294967295; ActivationID: 112.
  1747. 2019/11/04 15:17:42.5273682 5004 7356 DownloadManager * START * Begin Downloading Updates [CallerId = Dynamic Update] [Call ID = E5F787C8-C061-40AB-B0C1-0F25C4209C15]
  1748. 2019/11/04 15:17:42.5273735 5004 7356 DownloadManager Priority = 3, NetworkCostPolicy = 4, Interactive = 1, Download on Battery = 0, Bypass Regulation = 1, Owner is system = 1, Proxy session id = -1, ServiceId = 7971F918-A847-4430-9279-4A52D1EFE18D.
  1749. 2019/11/04 15:17:42.5273746 5004 7356 DownloadManager Updates to download = 1
  1750. 2019/11/04 15:17:42.5273767 5004 7356 Agent Title = 2019-10 Dynamic Update for Windows 10 Version 1803 for x64-based Systems (KB4519765)
  1751. 2019/11/04 15:17:42.5273798 5004 7356 Agent UpdateId = 17340910-3D57-475F-8CCE-4A7FBE1018E1.200
  1752. 2019/11/04 15:17:42.5273834 5004 7356 Agent Bundles 1 updates:
  1753. 2019/11/04 15:17:42.5273869 5004 7356 Agent 3A1CA8FB-2266-47F8-B18C-C29EA015163F.200
  1754. 2019/11/04 15:17:42.5274222 5004 7356 DownloadManager No locked revisions found for update 17340910-3D57-475F-8CCE-4A7FBE1018E1.200 (SessionData = (null)); locking the user-specified revision.
  1755. 2019/11/04 15:17:42.5322333 5004 7356 DownloadManager No locked revisions found for update 3A1CA8FB-2266-47F8-B18C-C29EA015163F.200 (SessionData = (null)); locking the user-specified revision.
  1756. 2019/11/04 15:17:42.5369220 5004 7356 DownloadManager Regulation: {7971F918-A847-4430-9279-4A52D1EFE18D} - Loaded sequence number 65535 for regulation category PerUpdate.
  1757. 2019/11/04 15:17:42.5369241 5004 7356 DownloadManager Regulation: {7971F918-A847-4430-9279-4A52D1EFE18D} - Loaded sequence number 65535 for regulation category Low.
  1758. 2019/11/04 15:17:42.5369259 5004 7356 DownloadManager Regulation: {7971F918-A847-4430-9279-4A52D1EFE18D} - Loaded sequence number 65535 for regulation category Normal.
  1759. 2019/11/04 15:17:42.5369277 5004 7356 DownloadManager Regulation: {7971F918-A847-4430-9279-4A52D1EFE18D} - Loaded sequence number 65535 for regulation category High.
  1760. 2019/11/04 15:17:43.0335461 5004 7356 DownloadManager DO [File I/O] job initialized: JobId = {8E8F65C3-5944-40CA-843C-B83063EBA550}
  1761. 2019/11/04 15:17:43.0409087 5004 7356 DownloadManager Downloading from http://download.windowsupdate.com/d/msdownload/update/software/crup/2019/09/windows10.0-kb4519765-x64_30eeb4f0d7a4edef08a2fb964647e1f02a6dcbe9.cab to C:\WINDOWS\SoftwareDistribution\Download\7aa223f99491c3f7e65e6658a45c38c8\30eeb4f0d7a4edef08a2fb964647e1f02a6dcbe9 (full file)
  1762. 2019/11/04 15:17:43.0409768 5004 7356 DownloadManager Created download job 8E8F65C3-5944-40CA-843C-B83063EBA550; memory stream: No.
  1763. 2019/11/04 15:17:43.0458454 5004 7356 DownloadManager New download job {8E8F65C3-5944-40CA-843C-B83063EBA550} for UpdateId 3A1CA8FB-2266-47F8-B18C-C29EA015163F.200
  1764. 2019/11/04 15:17:43.0591024 5004 7356 DownloadManager Download job 8E8F65C3-5944-40CA-843C-B83063EBA550 resumed.
  1765. 2019/11/04 15:17:43.4300448 5004 7356 DownloadManager Dynamic download data fetcher for ServiceId 7971F918-A847-4430-9279-4A52D1EFE18D does not exist.
  1766. 2019/11/04 15:17:43.4304041 5004 7356 Agent Effective power state: AC; IsOnAC: Yes.
  1767. 2019/11/04 15:17:43.4304101 5004 7356 IdleTimer WU operation (DL.Dynamic Update, operation # 112) stopped; does use network; is not at background priority
  1768. 2019/11/04 15:17:43.4304133 5004 7356 Agent Released network PDC reference for callId {E5F787C8-C061-40AB-B0C1-0F25C4209C15}; ActivationID: 112
  1769. 2019/11/04 15:17:43.4304189 5004 7356 IdleTimer WU operation (DL.Dynamic Update) started; operation # 113; does use network; is not at background priority
  1770. 2019/11/04 15:17:43.4304224 5004 7356 Agent Obtained a network PDC reference for callID {E5F787C8-C061-40AB-B0C1-0F25C4209C15} with No-Progress-Timeout set to 4294967295; ActivationID: 113.
  1771. 2019/11/04 15:17:43.4306823 5004 2264 Agent WU client calls back to download call {E5F787C8-C061-40AB-B0C1-0F25C4209C15} with code Call progress and error 0
  1772. 2019/11/04 15:17:43.4324817 5004 7356 DownloadManager * END * Begin Downloading Updates CallerId = Dynamic Update
  1773. 2019/11/04 15:17:43.4475745 5004 7356 DownloadManager Download job 8E8F65C3-5944-40CA-843C-B83063EBA550 resumed.
  1774. 2019/11/04 15:17:43.4546832 5004 2144 DownloadManager Generating download request for update 8B105828-2E9A-408F-8619-C2630E7231AE.1.
  1775. 2019/11/04 15:17:43.4731917 5004 2144 DownloadManager Calling into handler 0xc to generate download request for update 8B105828-2E9A-408F-8619-C2630E7231AE.1.
  1776. 2019/11/04 15:17:43.4732027 5004 2144 Handler UUP GDR: Event Fired: TimeOut
  1777. 2019/11/04 15:17:43.4732090 5004 2144 DownloadManager GenerateDownloadRequest returned WU_E_OPERATIONINPROGRESS for update 8B105828-2E9A-408F-8619-C2630E7231AE.1.
  1778. 2019/11/04 15:17:43.5339202 5004 7356 DownloadManager Dynamic download data fetcher for ServiceId 8B24B027-1DEE-BABB-9A95-3517DFB9C552 does not exist.
  1779. 2019/11/04 15:17:44.0752656 5004 1040 DownloadManager Dynamic download data fetcher for ServiceId 7971F918-A847-4430-9279-4A52D1EFE18D does not exist.
  1780. 2019/11/04 15:17:44.6447467 5004 7356 DownloadManager Dynamic download data fetcher for ServiceId 8B24B027-1DEE-BABB-9A95-3517DFB9C552 does not exist.
  1781. 2019/11/04 15:17:44.6450539 5004 9996 DownloadManager DO [File I/O] job {8E8F65C3-5944-40CA-843C-B83063EBA550} completed successfully, updateId = 3A1CA8FB-2266-47F8-B18C-C29EA015163F.200
  1782. 2019/11/04 15:17:44.6456681 5004 9996 DownloadManager Dynamic download data fetcher for ServiceId 7971F918-A847-4430-9279-4A52D1EFE18D does not exist.
  1783. 2019/11/04 15:17:44.6522797 5004 9996 DownloadManager Setting DO job 8E8F65C3-5944-40CA-843C-B83063EBA550 as the last job for update 3A1CA8FB-2266-47F8-B18C-C29EA015163F.200
  1784. 2019/11/04 15:17:44.7109002 5004 9996 Misc Validating signature for C:\WINDOWS\SoftwareDistribution\Download\7aa223f99491c3f7e65e6658a45c38c8\30eeb4f0d7a4edef08a2fb964647e1f02a6dcbe9 with dwProvFlags 0x00000080:
  1785. 2019/11/04 15:17:44.9325544 5004 9996 Misc Microsoft signed: Yes
  1786. 2019/11/04 15:17:45.0228117 5004 7356 DownloadManager Dynamic download data fetcher for ServiceId 8B24B027-1DEE-BABB-9A95-3517DFB9C552 does not exist.
  1787. 2019/11/04 15:17:45.1002965 5004 7356 DownloadManager All files for update 3A1CA8FB-2266-47F8-B18C-C29EA015163F.200 were already downloaded and are valid.
  1788. 2019/11/04 15:17:45.1218763 5004 7356 DownloadManager * END * Download Call Complete Call 10 for caller Dynamic Update has completed; signaling completion.
  1789. 2019/11/04 15:17:45.1403933 5004 7356 DownloadManager Dynamic download data fetcher for ServiceId 7971F918-A847-4430-9279-4A52D1EFE18D does not exist.
  1790. 2019/11/04 15:17:45.1452679 5004 7356 Agent Effective power state: AC; IsOnAC: Yes.
  1791. 2019/11/04 15:17:45.1452873 5004 7356 IdleTimer WU operation (DL.Dynamic Update, operation # 113) stopped; does use network; is not at background priority
  1792. 2019/11/04 15:17:45.1452905 5004 7356 Agent Released network PDC reference for callId {E5F787C8-C061-40AB-B0C1-0F25C4209C15}; ActivationID: 113
  1793. 2019/11/04 15:17:45.1456974 3044 7796 ComApi *RESUMED* Download ClientId = Dynamic Update
  1794. 2019/11/04 15:17:45.1457006 3044 7796 ComApi Download call complete (succeeded = 1, succeeded with errors = 0, failed = 0, cancelled = 0, unaccounted = 0)
  1795. 2019/11/04 15:17:45.1457045 3044 7796 ComApi * END * Download ClientId = Dynamic Update
  1796. 2019/11/04 15:17:45.1457503 5004 2264 Agent WU client calls back to download call {E5F787C8-C061-40AB-B0C1-0F25C4209C15} with code Call complete and error 0
  1797. 2019/11/04 15:17:45.1461780 3044 4516 ComApi Download call complete (succeeded = 1, succeeded with errors = 0, failed = 0, cancelled = 0, unaccounted = 0)
  1798. 2019/11/04 15:17:45.1461988 3044 4516 ComApi * END * All federated downloads have completed. ClientId = Dynamic Update (cV = FRHrT5Ei9UmEgkBo.2.0)
  1799. 2019/11/04 15:17:45.1559392 5004 7356 DownloadManager Dynamic download data fetcher for ServiceId 8B24B027-1DEE-BABB-9A95-3517DFB9C552 does not exist.
  1800. 2019/11/04 15:17:45.2295600 5004 2144 DownloadManager Generating download request for update 8B105828-2E9A-408F-8619-C2630E7231AE.1.
  1801. 2019/11/04 15:17:45.2451404 5004 2144 DownloadManager Calling into handler 0xc to generate download request for update 8B105828-2E9A-408F-8619-C2630E7231AE.1.
  1802. 2019/11/04 15:17:45.2451471 5004 2144 Handler UUP GDR: Event Fired: TimeOut
  1803. 2019/11/04 15:17:45.2451538 5004 2144 DownloadManager GenerateDownloadRequest returned WU_E_OPERATIONINPROGRESS for update 8B105828-2E9A-408F-8619-C2630E7231AE.1.
  1804. 2019/11/04 15:17:45.7622261 5004 7356 DownloadManager Dynamic download data fetcher for ServiceId 8B24B027-1DEE-BABB-9A95-3517DFB9C552 does not exist.
  1805. 2019/11/04 15:17:45.7899990 5004 1040 DownloadManager ExtractUpdateFiles
  1806. 2019/11/04 15:17:45.7907811 5004 1040 DownloadManager ExtractUpdateFiles
  1807. 2019/11/04 15:17:46.7757144 5004 7356 DownloadManager Dynamic download data fetcher for ServiceId 8B24B027-1DEE-BABB-9A95-3517DFB9C552 does not exist.
  1808. 2019/11/04 15:17:47.2611982 5004 1556 DownloadManager ExtractUpdateFiles
  1809. 2019/11/04 15:17:47.2618665 5004 1556 DownloadManager ExtractUpdateFiles
  1810. 2019/11/04 15:17:47.4121463 5004 1556 DataStore Service 1AB761C1-CE4A-4F88-82B0-D5C805DC0F96 removed
  1811. 2019/11/04 15:17:47.4121741 5004 1556 Agent RemoveTargetedServiceMapping: 1AB761C1-CE4A-4F88-82B0-D5C805DC0F96 -> 7971F918-A847-4430-9279-4A52D1EFE18D
  1812. 2019/11/04 15:17:47.7660224 5004 7356 DownloadManager Dynamic download data fetcher for ServiceId 8B24B027-1DEE-BABB-9A95-3517DFB9C552 does not exist.
  1813. 2019/11/04 15:17:53.6650314 5004 7356 DownloadManager Dynamic download data fetcher for ServiceId 8B24B027-1DEE-BABB-9A95-3517DFB9C552 does not exist.
  1814. 2019/11/04 15:17:54.6927214 5004 7356 DownloadManager Dynamic download data fetcher for ServiceId 8B24B027-1DEE-BABB-9A95-3517DFB9C552 does not exist.
  1815. 2019/11/04 15:17:55.6565372 5004 7356 DownloadManager Dynamic download data fetcher for ServiceId 8B24B027-1DEE-BABB-9A95-3517DFB9C552 does not exist.
  1816. 2019/11/04 15:17:56.7163489 5004 7356 DownloadManager Dynamic download data fetcher for ServiceId 8B24B027-1DEE-BABB-9A95-3517DFB9C552 does not exist.
  1817. 2019/11/04 15:17:57.6888835 5004 7356 DownloadManager Dynamic download data fetcher for ServiceId 8B24B027-1DEE-BABB-9A95-3517DFB9C552 does not exist.
  1818. 2019/11/04 15:17:58.7179028 5004 7356 DownloadManager Dynamic download data fetcher for ServiceId 8B24B027-1DEE-BABB-9A95-3517DFB9C552 does not exist.
  1819. 2019/11/04 15:17:59.7108632 5004 7356 DownloadManager Dynamic download data fetcher for ServiceId 8B24B027-1DEE-BABB-9A95-3517DFB9C552 does not exist.
  1820. 2019/11/04 15:18:00.6403972 5004 7356 DownloadManager Dynamic download data fetcher for ServiceId 8B24B027-1DEE-BABB-9A95-3517DFB9C552 does not exist.
  1821. 2019/11/04 15:18:01.1189672 5004 7356 DownloadManager Dynamic download data fetcher for ServiceId 8B24B027-1DEE-BABB-9A95-3517DFB9C552 does not exist.
  1822. 2019/11/04 15:18:01.8269310 5004 7356 DownloadManager Dynamic download data fetcher for ServiceId 8B24B027-1DEE-BABB-9A95-3517DFB9C552 does not exist.
  1823. 2019/11/04 15:18:01.8925905 5004 7356 DownloadManager Dynamic download data fetcher for ServiceId 8B24B027-1DEE-BABB-9A95-3517DFB9C552 does not exist.
  1824. 2019/11/04 15:18:24.0712825 5004 2236 DownloadManager Subscribing to GDR Retry due to async handler trigger.
  1825. 2019/11/04 15:18:24.1331037 5004 7356 DownloadManager Dynamic download data fetcher for ServiceId 8B24B027-1DEE-BABB-9A95-3517DFB9C552 does not exist.
  1826. 2019/11/04 15:18:24.1527607 5004 2144 DownloadManager Generating download request for update 8B105828-2E9A-408F-8619-C2630E7231AE.1.
  1827. 2019/11/04 15:18:24.1662744 5004 2144 DownloadManager Calling into handler 0xc to generate download request for update 8B105828-2E9A-408F-8619-C2630E7231AE.1.
  1828. 2019/11/04 15:18:24.1662800 5004 2144 Handler UUP GDR: Completed
  1829. 2019/11/04 15:18:24.3009876 5004 7356 DownloadManager All files for update 8B105828-2E9A-408F-8619-C2630E7231AE.1 were already downloaded and are valid.
  1830. 2019/11/04 15:18:24.4206616 5004 7356 DownloadManager * END * Download Call Complete Call 6 for caller UpdateOrchestrator has completed; signaling completion.
  1831. 2019/11/04 15:18:24.4515167 5004 7356 DownloadManager Dynamic download data fetcher for ServiceId 8B24B027-1DEE-BABB-9A95-3517DFB9C552 does not exist.
  1832. 2019/11/04 15:18:24.4984666 5004 7356 Agent Effective power state: AC; IsOnAC: Yes.
  1833. 2019/11/04 15:18:24.4984864 5004 7356 IdleTimer WU operation (DL.UpdateOrchestrator, operation # 67) stopped; does use network; is at background priority
  1834. 2019/11/04 15:18:24.4984977 5004 7356 Agent Released network PDC reference for callId {DFCD826D-E6D1-4F18-B752-34653AD2E215}; ActivationID: 67
  1835. 2019/11/04 15:18:24.4989279 5004 2264 ComApi *RESUMED* Download ClientId = UpdateOrchestrator
  1836. 2019/11/04 15:18:24.4989335 5004 2264 ComApi Download call complete (succeeded = 1, succeeded with errors = 0, failed = 0, cancelled = 0, unaccounted = 0)
  1837. 2019/11/04 15:18:24.4989423 5004 2264 ComApi * END * Download ClientId = UpdateOrchestrator
  1838. 2019/11/04 15:18:24.4989483 5004 2264 Agent WU client calls back to download call {DFCD826D-E6D1-4F18-B752-34653AD2E215} with code Call complete and error 0
  1839. 2019/11/04 15:18:24.4996176 5004 4532 ComApi Download call complete (succeeded = 1, succeeded with errors = 0, failed = 0, cancelled = 0, unaccounted = 0)
  1840. 2019/11/04 15:18:24.4996296 5004 4532 ComApi * END * All federated downloads have completed. ClientId = UpdateOrchestrator (cV = nDOIK55aZEmpcq0p.1.0)
  1841. 2019/11/04 15:21:40.9952405 5004 7356 Misc Got WSUS Client/Server URL: http://CES-MSP-WSUS-1.yourserver.com:8530/ClientWebService/client.asmx""
  1842. 2019/11/04 15:21:42.1495194 5004 7356 ProtocolTalker OK to reuse existing configuration
  1843. 2019/11/04 15:21:42.1495229 5004 7356 ProtocolTalker Existing cookie is valid, just use it
  1844. 2019/11/04 15:21:42.1495286 5004 7356 ProtocolTalker PTInfo: Server requested registration
  1845. 2019/11/04 15:21:42.1667744 5004 7356 Misc Got WSUS Reporting URL: http://CES-MSP-WSUS-1.yourserver.com:8530/ReportingWebService/ReportingWebService.asmx""
  1846. 2019/11/04 15:21:42.1677571 5004 7356 IdleTimer WU operation (CLegacyEventUploader::HandleEvents) started; operation # 131; does use network; is at background priority
  1847. 2019/11/04 15:21:42.1844299 5004 7356 WebServices Auto proxy settings for this web service call.
  1848. 2019/11/04 15:21:42.2387757 5004 7356 IdleTimer WU operation (CLegacyEventUploader::HandleEvents, operation # 131) stopped; does use network; is at background priority
  1849. 2019/11/04 15:22:20.6208086 5004 7356 DownloadManager Received power state change notification: Old: AC; New: DC(considered as AC).
  1850. 2019/11/04 15:22:20.6208139 5004 7356 DownloadManager Power state changed from AC to DC(considered as AC).
  1851. 2019/11/04 15:22:21.2891195 5004 5500 Shared UpdateNetworkState Ipv4, cNetworkInterfaces = 3.
  1852. 2019/11/04 15:22:21.2936965 5004 5500 Shared UpdateNetworkState Ipv6, cNetworkInterfaces = 3.
  1853. 2019/11/04 15:23:03.5201219 5004 7356 DownloadManager Received power state change notification: Old: DC(considered as AC); New: AC.
  1854. 2019/11/04 15:23:03.5201237 5004 7356 DownloadManager Power state changed from DC(considered as AC) to AC.
  1855. 2019/11/04 15:23:07.0504170 5004 5500 Shared UpdateNetworkState Ipv4, cNetworkInterfaces = 4.
  1856. 2019/11/04 15:23:08.2983250 5004 5500 Shared UpdateNetworkState Ipv6, cNetworkInterfaces = 4.
  1857. 2019/11/04 15:24:52.2386145 5004 5500 Shared UpdateNetworkState Ipv6, cNetworkInterfaces = 3.
  1858. 2019/11/04 15:29:12.0053124 20380 11984 AppAU * START *
  1859. 2019/11/04 15:29:12.0054439 20380 11984 AppAU Flight settings ring provisioned default, range-checked minimum search interval: 20 hours
  1860. 2019/11/04 15:29:12.0054509 20380 11984 AppAU Skipping app au: duration since last check is too short (25023 < 72000)
  1861. 2019/11/04 15:29:12.0054918 20380 11984 AppAU * START * Check for Failed Tasks to Retry
  1862. 2019/11/04 15:29:12.1125337 20380 11984 AppAU * END * Check for Failed Tasks to Retry, exit code = 0x00000000
  1863. 2019/11/04 15:29:12.1139139 20380 11984 AppAU * END *, exit code = 0x00000000
  1864. 2019/11/04 15:34:34.5632012 5004 1556 Agent Earliest future timer found:
  1865. 2019/11/04 15:34:34.5632312 5004 1556 Agent Timer: 29A863E7-8609-4D1E-B7CD-5668F857F1DB, Expires 2019-11-05 15:23:02, not idle-only, not network-only
  1866. 2019/11/04 15:34:35.5647040 5004 5500 Misc CSusClientGlobal::DoServicePreShutdown
  1867. 2019/11/04 15:34:35.5647442 5004 5500 IdleTimer Idle timer disabled in preparation for service shutdown
  1868. 2019/11/04 15:34:35.5647509 5004 5500 Misc WUTaskManager uninit
  1869. 2019/11/04 15:34:35.5647728 5004 5500 Agent Earliest future timer found:
  1870. 2019/11/04 15:34:35.5647954 5004 5500 Agent Timer: 8B24B027-1DEE-BABB-9A95-3517DFB9C552, Expires 2019-11-04 22:31:27, not idle-only, network-only
  1871. 2019/11/04 15:34:35.5678656 5004 5500 Misc CreateSessionStateChangeTrigger, TYPE:2, Enable:No
  1872. 2019/11/04 15:34:35.5678716 5004 5500 Misc CreateSessionStateChangeTrigger, TYPE:4, Enable:No
  1873. 2019/11/04 15:34:35.5919522 5004 5500 Misc Agent uninit
  1874. 2019/11/04 15:34:35.5930185 5004 5500 Agent Sending shutdown notification to client
  1875. 2019/11/04 15:34:35.5933852 5004 5500 Agent Sending shutdown notification to client
  1876. 2019/11/04 15:34:35.5934131 5004 5500 Agent Sending shutdown notification to client
  1877. 2019/11/04 15:34:35.5941194 5004 5500 Agent Sending shutdown notification to client
  1878. 2019/11/04 15:34:35.5973984 5004 5500 Misc Reporter uninit
  1879. 2019/11/04 15:34:35.5981311 5004 5500 Misc network cost manager uninit
  1880. 2019/11/04 15:34:35.5981625 5004 5500 Misc Eventer uninit
  1881. 2019/11/04 15:34:35.5983109 5004 5500 Misc ServiceManager uninit
  1882. 2019/11/04 15:34:35.5984608 5004 5500 Misc PersistentTimeoutScheduler uninit
  1883. 2019/11/04 15:34:35.5984626 5004 5500 Misc datastore uninit
  1884. 2019/11/04 15:34:35.7034960 5004 5500 Misc setting cache uninit
  1885. 2019/11/04 15:34:35.7035012 5004 5500 Misc security checker uninit
  1886. 2019/11/04 15:34:35.7035051 5004 5500 Misc Test Hook uninit
  1887. 2019/11/04 15:34:35.7035058 5004 5500 Misc IdleTimer uninit
  1888. 2019/11/04 15:34:35.7050930 5004 5500 Shared * END * Service exit Exit code = 0x240001
  1889. 2019/11/04 15:39:12.3385266 5004 20516 IdleTimer Non-AoAc machine. Aoac operations will be ignored.
  1890. 2019/11/04 15:39:12.3386874 5004 20516 Agent WU client version 10.0.16299.1419
  1891. 2019/11/04 15:39:12.3391243 5004 20516 Agent SleepStudyTracker: Machine is non-AOAC. Sleep study tracker disabled.
  1892. 2019/11/04 15:39:12.3393451 5004 20516 Agent Base directory: C:\WINDOWS\SoftwareDistribution
  1893. 2019/11/04 15:39:12.3407245 5004 20516 Agent Datastore directory: C:\WINDOWS\SoftwareDistribution\DataStore\DataStore.edb
  1894. 2019/11/04 15:39:12.3428025 5004 20516 DataStore JetEnableMultiInstance succeeded - applicable param count: 5, applied param count: 5
  1895. 2019/11/04 15:39:12.4088741 5004 20516 Shared UpdateNetworkState Ipv6, cNetworkInterfaces = 3.
  1896. 2019/11/04 15:39:12.4088981 5004 20516 Shared UpdateNetworkState Ipv4, cNetworkInterfaces = 4.
  1897. 2019/11/04 15:39:12.4094524 5004 20516 Shared Network state: Connected
  1898. 2019/11/04 15:39:12.5246172 5004 20516 Misc *FAILED* [8024000C] LoadHistoryEventFromRegistry completed
  1899. 2019/11/04 15:39:12.5247914 5004 20516 Shared UpdateNetworkState Ipv6, cNetworkInterfaces = 3.
  1900. 2019/11/04 15:39:12.5248055 5004 20516 Shared UpdateNetworkState Ipv4, cNetworkInterfaces = 4.
  1901. 2019/11/04 15:39:12.5248179 5004 20516 Shared Power status changed
  1902. 2019/11/04 15:39:12.5281698 5004 20516 Agent Initializing global settings cache
  1903. 2019/11/04 15:39:12.5281723 5004 20516 Agent WSUS server: http://CES-MSP-WSUS-1.yourserver.com:8530
  1904. 2019/11/04 15:39:12.5281734 5004 20516 Agent WSUS status server: http://CES-MSP-WSUS-1.yourserver.com:8530
  1905. 2019/11/04 15:39:12.5281779 5004 20516 Agent Alternate Download Server: (null)
  1906. 2019/11/04 15:39:12.5281801 5004 20516 Agent Fill Empty Content Urls: No
  1907. 2019/11/04 15:39:12.5281818 5004 20516 Agent Target group: NAM Workstations
  1908. 2019/11/04 15:39:12.5281832 5004 20516 Agent Windows Update access disabled: No
  1909. 2019/11/04 15:39:12.5281850 5004 20516 Agent Do not connect to Windows Update Internet locations: No
  1910. 2019/11/04 15:39:12.5290517 5004 20516 Agent Timer: 8B24B027-1DEE-BABB-9A95-3517DFB9C552, Expires 2019-11-04 22:31:27, not idle-only, network-only
  1911. 2019/11/04 15:39:12.5290567 5004 20516 Agent Timer: 29A863E7-8609-4D1E-B7CD-5668F857F1DB, Expires 2019-11-05 15:23:02, not idle-only, not network-only
  1912. 2019/11/04 15:39:12.5355646 5004 20516 Agent Initializing Windows Update Agent
  1913. 2019/11/04 15:39:12.5357151 5004 20516 Agent CPersistentTimeoutScheduler | GetTimer, returned hr = 0x00000000
  1914. 2019/11/04 15:39:12.5382050 5004 1556 IdleTimer WU operation (SR.<<PROCESS>>: taskhostw.exe ID 1) started; operation # 3; does use network; is not at background priority
  1915. 2019/11/04 15:39:12.5622203 5004 20600 DownloadManager PurgeExpiredFiles::Found 0 expired files to delete.
  1916. 2019/11/04 15:39:12.5622711 5004 20600 DownloadManager PurgeExpiredUpdates::Found 3 non expired updates.
  1917. 2019/11/04 15:39:12.5931011 5004 20600 DownloadManager PurgeExpiredUpdates::Found 0 expired updates.
  1918. 2019/11/04 15:39:12.5959450 5004 20600 DownloadManager Received power state change notification: Old: <unknown>; New: AC.
  1919. 2019/11/04 15:39:12.5959478 5004 20600 DownloadManager Power state changed from <unknown> to AC.
  1920. 2019/11/04 15:39:12.6401646 5004 20612 IdleTimer WU operation (SR.<<PROCESS>>: taskhostw.exe ID 1, operation # 3) stopped; does use network; is not at background priority
  1921. 2019/11/04 15:39:12.6416812 19764 20644 ComApi Federated Search: Starting search against 2 service(s) (cV = XxYy/slaREuavsrZ.1.0)
  1922. 2019/11/04 15:39:12.6418417 19764 20644 ComApi * START * Search ClientId = <<PROCESS>>: taskhostw.exe, ServiceId = 7971F918-A847-4430-9279-4A52D1EFE18D (cV = XxYy/slaREuavsrZ.1.0.0)
  1923. 2019/11/04 15:39:12.6438145 5004 1556 IdleTimer WU operation (CSearchCall::Init ID 2) started; operation # 6; does not use network; is not at background priority
  1924. 2019/11/04 15:39:12.6568593 5004 1556 Reporter OS Product Type = 0x00000004
  1925. 2019/11/04 15:39:12.6771668 5004 1556 Agent * START * Queueing Finding updates [CallerId = <<PROCESS>>: taskhostw.exe Id = 2]
  1926. 2019/11/04 15:39:12.6771743 5004 1556 Agent Service 7971F918-A847-4430-9279-4A52D1EFE18D is not in sequential scan list
  1927. 2019/11/04 15:39:12.6771788 5004 1556 Agent Added service 7971F918-A847-4430-9279-4A52D1EFE18D to sequential scan list
  1928. 2019/11/04 15:39:12.6775914 19764 20644 ComApi * START * Search ClientId = <<PROCESS>>: taskhostw.exe, ServiceId = 8B24B027-1DEE-BABB-9A95-3517DFB9C552 (cV = XxYy/slaREuavsrZ.1.0.0)
  1929. 2019/11/04 15:39:12.6776164 5004 20652 Agent Service 7971F918-A847-4430-9279-4A52D1EFE18D is in sequential scan list
  1930. 2019/11/04 15:39:12.6796225 5004 1556 IdleTimer WU operation (CSearchCall::Init ID 3) started; operation # 9; does not use network; is not at background priority
  1931. 2019/11/04 15:39:12.6856988 5004 20656 Agent * END * Queueing Finding updates [CallerId = <<PROCESS>>: taskhostw.exe Id = 2]
  1932. 2019/11/04 15:39:12.6953213 5004 20656 Agent * START * Finding updates CallerId = <<PROCESS>>: taskhostw.exe Id = 2
  1933. 2019/11/04 15:39:12.6953242 5004 20656 Agent Online = No; Interactive = Yes; AllowCachedResults = No; Ignore download priority = No
  1934. 2019/11/04 15:39:12.6953263 5004 20656 Agent Criteria = IsInstalled=0 and Type='Software' and IsHidden=0 and IsAssigned=1 and CategoryIDs contains 'e6cf1350-c01b-414d-a61f-263d14d133b4'""
  1935. 2019/11/04 15:39:12.6953291 5004 20656 Agent ServiceID = {7971F918-A847-4430-9279-4A52D1EFE18D} Third party service
  1936. 2019/11/04 15:39:12.6953298 5004 20656 Agent Search Scope = {Machine}
  1937. 2019/11/04 15:39:12.6953344 5004 20656 Agent Caller SID for Applicability: S-1-5-21-1426190293-2581963236-2303502020-96581
  1938. 2019/11/04 15:39:12.7173962 5004 1556 Agent * START * Queueing Finding updates [CallerId = <<PROCESS>>: taskhostw.exe Id = 3]
  1939. 2019/11/04 15:39:12.7174040 5004 1556 Agent Service 8B24B027-1DEE-BABB-9A95-3517DFB9C552 is not in sequential scan list
  1940. 2019/11/04 15:39:12.7174075 5004 1556 Agent Added service 8B24B027-1DEE-BABB-9A95-3517DFB9C552 to sequential scan list
  1941. 2019/11/04 15:39:13.4231865 5004 20656 Agent Found 0 updates and 1 categories in search; evaluated appl. rules of 120 out of 193 deployed entities
  1942. 2019/11/04 15:39:13.4284433 5004 20656 Agent * END * Finding updates CallerId = <<PROCESS>>: taskhostw.exe Id = 2
  1943. 2019/11/04 15:39:13.4310619 5004 20656 IdleTimer WU operation (CSearchCall::Init ID 2, operation # 6) stopped; does not use network; is not at background priority
  1944. 2019/11/04 15:39:13.4314011 5004 20652 Agent Service 8B24B027-1DEE-BABB-9A95-3517DFB9C552 is in sequential scan list
  1945. 2019/11/04 15:39:13.4316102 19764 16232 ComApi *RESUMED* Search ClientId = <<PROCESS>>: taskhostw.exe, ServiceId = 7971F918-A847-4430-9279-4A52D1EFE18D (cV = XxYy/slaREuavsrZ.1.0.0)
  1946. 2019/11/04 15:39:13.4333733 19764 16232 ComApi * END * Search ClientId = <<PROCESS>>: taskhostw.exe, Updates found = 0, ServiceId = 7971F918-A847-4430-9279-4A52D1EFE18D (cV = XxYy/slaREuavsrZ.1.0.0)
  1947. 2019/11/04 15:39:13.4372781 5004 20832 Agent * END * Queueing Finding updates [CallerId = <<PROCESS>>: taskhostw.exe Id = 3]
  1948. 2019/11/04 15:39:13.4416051 5004 20832 Agent * START * Finding updates CallerId = <<PROCESS>>: taskhostw.exe Id = 3
  1949. 2019/11/04 15:39:13.4416072 5004 20832 Agent Online = No; Interactive = Yes; AllowCachedResults = No; Ignore download priority = No
  1950. 2019/11/04 15:39:13.4416093 5004 20832 Agent Criteria = IsInstalled=0 and Type='Software' and IsHidden=0 and IsAssigned=1 and CategoryIDs contains 'e6cf1350-c01b-414d-a61f-263d14d133b4'""
  1951. 2019/11/04 15:39:13.4416122 5004 20832 Agent ServiceID = {8B24B027-1DEE-BABB-9A95-3517DFB9C552} Third party service
  1952. 2019/11/04 15:39:13.4416132 5004 20832 Agent Search Scope = {Machine}
  1953. 2019/11/04 15:39:13.4416175 5004 20832 Agent Caller SID for Applicability: S-1-5-21-1426190293-2581963236-2303502020-96581
  1954. 2019/11/04 15:39:13.5371856 5004 20832 Agent Found 0 updates and 0 categories in search; evaluated appl. rules of 0 out of 1 deployed entities
  1955. 2019/11/04 15:39:13.5418930 5004 20832 Agent * END * Finding updates CallerId = <<PROCESS>>: taskhostw.exe Id = 3
  1956. 2019/11/04 15:39:13.5435545 5004 20832 IdleTimer WU operation (CSearchCall::Init ID 3, operation # 9) stopped; does not use network; is not at background priority
  1957. 2019/11/04 15:39:13.5446307 19764 16232 ComApi *RESUMED* Search ClientId = <<PROCESS>>: taskhostw.exe, ServiceId = 8B24B027-1DEE-BABB-9A95-3517DFB9C552 (cV = XxYy/slaREuavsrZ.1.0.0)
  1958. 2019/11/04 15:39:13.5452284 19764 16232 ComApi * END * Search ClientId = <<PROCESS>>: taskhostw.exe, Updates found = 0, ServiceId = 8B24B027-1DEE-BABB-9A95-3517DFB9C552 (cV = XxYy/slaREuavsrZ.1.0.0)
  1959. 2019/11/04 15:39:13.5454615 19764 20644 ComApi * END * All federated searches have completed. Jobs = 2, Succeeded = 2, ClientId = <<PROCESS>>: taskhostw.exe (cV = XxYy/slaREuavsrZ.1.0)
  1960. 2019/11/04 15:49:13.5537434 5004 1556 Agent Earliest future timer found:
  1961. 2019/11/04 15:49:13.5537691 5004 1556 Agent Timer: 29A863E7-8609-4D1E-B7CD-5668F857F1DB, Expires 2019-11-05 15:23:02, not idle-only, not network-only
  1962. 2019/11/04 15:49:14.5551094 5004 20516 Misc CSusClientGlobal::DoServicePreShutdown
  1963. 2019/11/04 15:49:14.5551726 5004 20516 IdleTimer Idle timer disabled in preparation for service shutdown
  1964. 2019/11/04 15:49:14.5551800 5004 20516 Misc WUTaskManager uninit
  1965. 2019/11/04 15:49:14.5551835 5004 20516 Agent Earliest future timer found:
  1966. 2019/11/04 15:49:14.5551941 5004 20516 Agent Timer: 8B24B027-1DEE-BABB-9A95-3517DFB9C552, Expires 2019-11-04 22:31:27, not idle-only, network-only
  1967. 2019/11/04 15:49:14.5597291 5004 20516 Misc CreateSessionStateChangeTrigger, TYPE:2, Enable:No
  1968. 2019/11/04 15:49:14.5597379 5004 20516 Misc CreateSessionStateChangeTrigger, TYPE:4, Enable:No
  1969. 2019/11/04 15:49:14.5635582 5004 20516 Misc Agent uninit
  1970. 2019/11/04 15:49:14.5654651 5004 20516 Misc Reporter uninit
  1971. 2019/11/04 15:49:14.5671400 5004 20516 Misc network cost manager uninit
  1972. 2019/11/04 15:49:14.5671721 5004 20516 Misc Eventer uninit
  1973. 2019/11/04 15:49:14.5673904 5004 20516 Misc ServiceManager uninit
  1974. 2019/11/04 15:49:14.5675135 5004 20516 Misc PersistentTimeoutScheduler uninit
  1975. 2019/11/04 15:49:14.5675152 5004 20516 Misc datastore uninit
  1976. 2019/11/04 15:49:15.5842688 5004 20516 Misc setting cache uninit
  1977. 2019/11/04 15:49:15.5842723 5004 20516 Misc security checker uninit
  1978. 2019/11/04 15:49:15.5842772 5004 20516 Misc Test Hook uninit
  1979. 2019/11/04 15:49:15.5842786 5004 20516 Misc IdleTimer uninit
  1980. 2019/11/04 15:49:15.5856796 5004 20516 Shared * END * Service exit Exit code = 0x240001
  1981. 2019/11/04 15:52:36.7811265 5004 15808 IdleTimer Non-AoAc machine. Aoac operations will be ignored.
  1982. 2019/11/04 15:52:36.7813043 5004 15808 Agent WU client version 10.0.16299.1419
  1983. 2019/11/04 15:52:36.7815571 5004 15808 Agent SleepStudyTracker: Machine is non-AOAC. Sleep study tracker disabled.
  1984. 2019/11/04 15:52:36.7817225 5004 15808 Agent Base directory: C:\WINDOWS\SoftwareDistribution
  1985. 2019/11/04 15:52:36.7824012 5004 15808 Agent Datastore directory: C:\WINDOWS\SoftwareDistribution\DataStore\DataStore.edb
  1986. 2019/11/04 15:52:36.7835092 5004 15808 DataStore JetEnableMultiInstance succeeded - applicable param count: 5, applied param count: 5
  1987. 2019/11/04 15:52:36.8327973 5004 15808 Shared UpdateNetworkState Ipv6, cNetworkInterfaces = 3.
  1988. 2019/11/04 15:52:36.8328153 5004 15808 Shared UpdateNetworkState Ipv4, cNetworkInterfaces = 4.
  1989. 2019/11/04 15:52:36.8332201 5004 15808 Shared Network state: Connected
  1990. 2019/11/04 15:52:36.9303880 5004 15808 Misc *FAILED* [8024000C] LoadHistoryEventFromRegistry completed
  1991. 2019/11/04 15:52:36.9305051 5004 15808 Shared UpdateNetworkState Ipv6, cNetworkInterfaces = 3.
  1992. 2019/11/04 15:52:36.9305125 5004 15808 Shared UpdateNetworkState Ipv4, cNetworkInterfaces = 4.
  1993. 2019/11/04 15:52:36.9305192 5004 15808 Shared Power status changed
  1994. 2019/11/04 15:52:36.9320887 5004 1556 Agent Timer: 8B24B027-1DEE-BABB-9A95-3517DFB9C552, Expires 2019-11-04 22:31:27, not idle-only, network-only
  1995. 2019/11/04 15:52:36.9320936 5004 1556 Agent Timer: 29A863E7-8609-4D1E-B7CD-5668F857F1DB, Expires 2019-11-05 15:23:02, not idle-only, not network-only
RAW Paste Data